Time,TemperatureF,DewpointF,PressureIn,WindDirection,WindDirectionDegrees,WindSpeedMPH,WindSpeedGustMPH,Humidity,HourlyPrecipIn,Conditions,Clouds,dailyrainin,SoftwareType,DateUTC
2013-04-04 00:00:00,42.4,30.4,28.76,SSW,202,9.8,9.8,62,0.00,,---,0.00,VWS V14.01,2013-04-04 05:00:00,
2013-04-04 00:01:00,42.4,30.4,28.76,SSW,202,6.3,7.6,62,0.00,,---,0.00,VWS V14.01,2013-04-04 05:01:00,
2013-04-04 00:02:00,42.4,30.8,28.76,WSW,248,8.1,9.8,63,0.00,,---,0.00,VWS V14.01,2013-04-04 05:02:00,
2013-04-04 00:03:00,42.4,30.8,28.76,SW,225,8.5,10.5,63,0.00,,---,0.00,VWS V14.01,2013-04-04 05:03:00,
2013-04-04 00:05:00,42.4,30.4,28.76,SW,225,5.6,6.3,62,0.00,,---,0.00,VWS V14.01,2013-04-04 05:05:00,
2013-04-04 00:06:00,42.4,30.4,28.76,SW,225,6.0,8.5,62,0.00,,---,0.00,VWS V14.01,2013-04-04 05:06:00,
2013-04-04 00:07:00,42.4,30.4,28.76,SW,225,8.1,8.1,62,0.00,,---,0.00,VWS V14.01,2013-04-04 05:07:00,
2013-04-04 00:08:00,42.3,30.6,28.76,SW,225,5.6,10.5,63,0.00,,---,0.00,VWS V14.01,2013-04-04 05:08:00,
2013-04-04 00:09:00,42.3,30.6,28.79,SW,225,6.5,9.0,63,0.00,,---,0.00,VWS V14.01,2013-04-04 05:09:00,
2013-04-04 00:10:00,42.1,30.4,28.79,SW,225,7.6,7.6,63,0.00,,---,0.00,VWS V14.01,2013-04-04 05:10:00,
2013-04-04 00:11:00,42.3,30.6,28.79,SW,225,7.4,7.8,63,0.00,,---,0.00,VWS V14.01,2013-04-04 05:11:00,
2013-04-04 00:12:00,42.1,30.4,28.79,SW,225,7.8,7.8,63,0.00,,---,0.00,VWS V14.01,2013-04-04 05:12:00,
2013-04-04 00:13:00,42.1,30.4,28.79,SW,225,5.8,8.7,63,0.00,,---,0.00,VWS V14.01,2013-04-04 05:13:00,
2013-04-04 00:14:00,41.9,30.2,28.79,SW,225,8.1,8.1,63,0.00,,---,0.00,VWS V14.01,2013-04-04 05:14:00,
2013-04-04 00:15:00,41.9,30.6,28.79,WSW,248,10.3,12.3,64,0.00,,---,0.00,VWS V14.01,2013-04-04 05:15:00,
2013-04-04 00:16:00,41.9,30.6,28.79,SW,225,8.1,8.1,64,0.00,,---,0.00,VWS V14.01,2013-04-04 05:16:00,
2013-04-04 00:17:00,41.9,30.6,28.79,WSW,248,9.2,12.3,64,0.00,,---,0.00,VWS V14.01,2013-04-04 05:17:00,
2013-04-04 00:18:00,41.7,30.5,28.79,WSW,248,7.6,9.2,64,0.00,,---,0.00,VWS V14.01,2013-04-04 05:18:00,
2013-04-04 00:19:00,41.7,30.5,28.79,WSW,248,6.3,7.8,64,0.00,,---,0.00,VWS V14.01,2013-04-04 05:19:00,
2013-04-04 00:20:00,41.4,30.5,28.79,WSW,248,5.4,6.9,65,0.00,,---,0.00,VWS V14.01,2013-04-04 05:20:00,
2013-04-04 00:21:00,41.5,30.7,28.79,WSW,248,6.9,8.7,65,0.00,,---,0.00,VWS V14.01,2013-04-04 05:21:00,
2013-04-04 00:22:00,41.4,30.5,28.79,WSW,248,5.4,6.9,65,0.00,,---,0.00,VWS V14.01,2013-04-04 05:22:00,
2013-04-04 00:23:00,41.2,30.7,28.79,WSW,248,6.9,7.4,66,0.00,,---,0.00,VWS V14.01,2013-04-04 05:23:00,
2013-04-04 00:24:00,41.0,30.5,28.79,WSW,248,8.5,8.5,66,0.00,,---,0.00,VWS V14.01,2013-04-04 05:24:00,
2013-04-04 00:25:00,40.8,31.1,28.79,WSW,248,7.4,7.8,68,0.00,,---,0.00,VWS V14.01,2013-04-04 05:25:00,
2013-04-04 00:26:00,40.8,31.1,28.79,WSW,248,5.8,6.0,68,0.00,,---,0.00,VWS V14.01,2013-04-04 05:26:00,
2013-04-04 00:27:00,40.8,31.1,28.79,WSW,248,7.4,7.8,68,0.00,,---,0.00,VWS V14.01,2013-04-04 05:27:00,
2013-04-04 00:28:00,40.8,31.1,28.79,WSW,248,7.4,7.8,68,0.00,,---,0.00,VWS V14.01,2013-04-04 05:28:00,
2013-04-04 00:29:00,40.5,31.1,28.79,WNW,292,8.5,8.5,69,0.00,,---,0.00,VWS V14.01,2013-04-04 05:29:00,
2013-04-04 00:30:00,40.1,31.5,28.79,WSW,248,7.4,7.6,71,0.00,,---,0.00,VWS V14.01,2013-04-04 05:30:00,
2013-04-04 00:31:00,40.3,31.3,28.79,WNW,292,7.2,9.6,70,0.00,,---,0.00,VWS V14.01,2013-04-04 05:31:00,
2013-04-04 00:32:00,40.1,31.5,28.79,West,270,7.8,7.8,71,0.00,,---,0.00,VWS V14.01,2013-04-04 05:32:00,
2013-04-04 00:33:00,39.9,31.3,28.79,WSW,248,6.7,8.7,71,0.00,,---,0.00,VWS V14.01,2013-04-04 05:33:00,
2013-04-04 00:34:00,39.9,31.3,28.79,WSW,248,5.8,7.4,71,0.00,,---,0.00,VWS V14.01,2013-04-04 05:34:00,
2013-04-04 00:35:00,39.7,31.5,28.79,WSW,248,4.9,6.3,72,0.00,,---,0.00,VWS V14.01,2013-04-04 05:35:00,
2013-04-04 00:36:00,39.7,31.5,28.79,WSW,248,5.4,5.6,72,0.00,,---,0.00,VWS V14.01,2013-04-04 05:36:00,
2013-04-04 00:37:00,39.6,31.3,28.79,WSW,248,5.4,6.3,72,0.00,,---,0.00,VWS V14.01,2013-04-04 05:37:00,
2013-04-04 00:38:00,39.4,31.1,28.79,WNW,292,3.8,5.6,72,0.00,,---,0.00,VWS V14.01,2013-04-04 05:38:00,
2013-04-04 00:39:00,39.4,31.1,28.82,WSW,248,5.4,5.8,72,0.00,,---,0.00,VWS V14.01,2013-04-04 05:39:00,
2013-04-04 00:40:00,39.2,31.3,28.82,WSW,248,6.0,6.5,73,0.00,,---,0.00,VWS V14.01,2013-04-04 05:40:00,
2013-04-04 00:41:00,39.2,31.3,28.82,WSW,248,6.5,6.5,73,0.00,,---,0.00,VWS V14.01,2013-04-04 05:41:00,
2013-04-04 00:42:00,39.2,31.3,28.82,WSW,248,6.0,6.5,73,0.00,,---,0.00,VWS V14.01,2013-04-04 05:42:00,
2013-04-04 00:43:00,39.0,31.5,28.82,WSW,248,4.3,6.0,74,0.00,,---,0.00,VWS V14.01,2013-04-04 05:43:00,
2013-04-04 00:44:00,39.0,31.5,28.82,WSW,248,4.9,5.4,74,0.00,,---,0.00,VWS V14.01,2013-04-04 05:44:00,
2013-04-04 00:45:00,38.5,30.9,28.82,WSW,248,5.6,6.0,74,0.00,,---,0.00,VWS V14.01,2013-04-04 05:45:00,
2013-04-04 00:46:00,38.7,31.1,28.82,WSW,248,6.0,6.0,74,0.00,,---,0.00,VWS V14.01,2013-04-04 05:46:00,
2013-04-04 00:47:00,38.5,30.9,28.82,WSW,248,5.6,6.0,74,0.00,,---,0.00,VWS V14.01,2013-04-04 05:47:00,
2013-04-04 00:48:00,38.5,30.9,28.82,WSW,248,4.9,5.6,74,0.00,,---,0.00,VWS V14.01,2013-04-04 05:48:00,
2013-04-04 00:49:00,38.3,30.8,28.82,SW,225,5.4,5.4,74,0.00,,---,0.00,VWS V14.01,2013-04-04 05:49:00,
2013-04-04 00:50:00,38.1,30.9,28.82,SW,225,4.3,4.5,75,0.00,,---,0.00,VWS V14.01,2013-04-04 05:50:00,
2013-04-04 00:51:00,38.1,30.9,28.82,SW,225,4.3,4.5,75,0.00,,---,0.00,VWS V14.01,2013-04-04 05:51:00,
2013-04-04 00:52:00,38.1,30.9,28.82,SW,225,4.3,4.5,75,0.00,,---,0.00,VWS V14.01,2013-04-04 05:52:00,
2013-04-04 00:53:00,38.1,30.9,28.82,SSW,202,4.3,4.3,75,0.00,,---,0.00,VWS V14.01,2013-04-04 05:53:00,
2013-04-04 00:54:00,38.1,31.2,28.79,SW,225,3.8,4.7,76,0.00,,---,0.00,VWS V14.01,2013-04-04 05:54:00,
2013-04-04 00:55:00,38.1,31.6,28.79,SW,225,3.1,3.8,77,0.00,,---,0.00,VWS V14.01,2013-04-04 05:55:00,
2013-04-04 00:56:00,38.1,31.6,28.79,SW,225,2.9,3.8,77,0.00,,---,0.00,VWS V14.01,2013-04-04 05:56:00,
2013-04-04 00:57:00,38.1,31.6,28.79,SW,225,3.1,3.8,77,0.00,,---,0.00,VWS V14.01,2013-04-04 05:57:00,
2013-04-04 00:58:00,38.1,31.6,28.79,SW,225,3.1,3.1,77,0.00,,---,0.00,VWS V14.01,2013-04-04 05:58:00,
2013-04-04 00:59:00,38.1,31.6,28.79,SSW,202,3.1,3.1,77,0.00,,---,0.00,VWS V14.01,2013-04-04 05:59:00,
2013-04-04 01:00:00,38.1,31.6,28.79,SW,225,3.6,4.0,77,0.00,,---,0.00,VWS V14.01,2013-04-04 06:00:00,
2013-04-04 01:01:00,38.1,31.6,28.79,SSW,202,3.1,3.4,77,0.00,,---,0.00,VWS V14.01,2013-04-04 06:01:00,
2013-04-04 01:02:00,38.1,31.6,28.79,SW,225,3.6,4.0,77,0.00,,---,0.00,VWS V14.01,2013-04-04 06:02:00,
2013-04-04 01:03:00,38.1,31.6,28.79,WSW,248,2.9,4.0,77,0.00,,---,0.00,VWS V14.01,2013-04-04 06:03:00,
2013-04-04 01:04:00,38.1,31.6,28.79,SW,225,3.4,3.8,77,0.00,,---,0.00,VWS V14.01,2013-04-04 06:04:00,
2013-04-04 01:05:00,38.3,31.7,28.79,SW,225,5.4,5.6,77,0.00,,---,0.00,VWS V14.01,2013-04-04 06:05:00,
2013-04-04 01:06:00,38.3,31.7,28.79,SW,225,4.9,5.6,77,0.00,,---,0.00,VWS V14.01,2013-04-04 06:06:00,
2013-04-04 01:07:00,38.3,31.7,28.79,SW,225,5.4,5.6,77,0.00,,---,0.00,VWS V14.01,2013-04-04 06:07:00,
2013-04-04 01:08:00,38.3,31.7,28.79,SW,225,5.4,5.6,77,0.00,,---,0.00,VWS V14.01,2013-04-04 06:08:00,
2013-04-04 01:09:00,38.3,31.7,28.79,SW,225,5.6,5.6,77,0.00,,---,0.00,VWS V14.01,2013-04-04 06:09:00,
2013-04-04 01:10:00,38.3,31.7,28.79,SW,225,6.3,6.5,77,0.00,,---,0.00,VWS V14.01,2013-04-04 06:10:00,
2013-04-04 01:11:00,38.3,31.7,28.79,WSW,248,5.4,5.6,77,0.00,,---,0.00,VWS V14.01,2013-04-04 06:11:00,
2013-04-04 01:12:00,38.3,31.7,28.79,SW,225,6.3,6.5,77,0.00,,---,0.00,VWS V14.01,2013-04-04 06:12:00,
2013-04-04 01:13:00,38.5,31.9,28.79,SW,225,4.9,6.3,77,0.00,,---,0.00,VWS V14.01,2013-04-04 06:13:00,
2013-04-04 01:14:00,38.5,31.9,28.79,SW,225,4.9,4.9,77,0.00,,---,0.00,VWS V14.01,2013-04-04 06:14:00,
2013-04-04 01:15:00,38.5,31.6,28.79,SW,225,5.4,5.4,76,0.00,,---,0.00,VWS V14.01,2013-04-04 06:15:00,
2013-04-04 01:16:00,38.5,31.6,28.79,SSW,202,3.8,4.9,76,0.00,,---,0.00,VWS V14.01,2013-04-04 06:16:00,
2013-04-04 01:17:00,38.5,31.6,28.79,SW,225,5.4,5.4,76,0.00,,---,0.00,VWS V14.01,2013-04-04 06:17:00,
2013-04-04 01:18:00,38.5,31.6,28.79,SW,225,4.3,5.4,76,0.00,,---,0.00,VWS V14.01,2013-04-04 06:18:00,
2013-04-04 01:19:00,38.5,31.6,28.79,SW,225,4.3,4.3,76,0.00,,---,0.00,VWS V14.01,2013-04-04 06:19:00,
2013-04-04 01:20:00,38.5,31.6,28.79,SW,225,3.8,4.7,76,0.00,,---,0.00,VWS V14.01,2013-04-04 06:20:00,
2013-04-04 01:21:00,38.5,31.6,28.79,SW,225,5.6,5.6,76,0.00,,---,0.00,VWS V14.01,2013-04-04 06:21:00,
2013-04-04 01:22:00,38.5,31.6,28.79,SW,225,5.6,5.6,76,0.00,,---,0.00,VWS V14.01,2013-04-04 06:22:00,
2013-04-04 01:23:00,38.5,31.6,28.79,WSW,248,4.9,5.6,76,0.00,,---,0.00,VWS V14.01,2013-04-04 06:23:00,
2013-04-04 01:24:00,38.5,31.6,28.76,SW,225,4.9,5.4,76,0.00,,---,0.00,VWS V14.01,2013-04-04 06:24:00,
2013-04-04 01:25:00,38.5,31.6,28.76,SW,225,5.4,5.4,76,0.00,,---,0.00,VWS V14.01,2013-04-04 06:25:00,
2013-04-04 01:26:00,38.5,31.6,28.76,SSW,202,4.0,5.4,76,0.00,,---,0.00,VWS V14.01,2013-04-04 06:26:00,
2013-04-04 01:27:00,38.7,31.8,28.76,SW,225,3.8,4.0,76,0.00,,---,0.00,VWS V14.01,2013-04-04 06:27:00,
2013-04-04 01:28:00,38.7,31.8,28.76,SSW,202,4.3,4.3,76,0.00,,---,0.00,VWS V14.01,2013-04-04 06:28:00,
2013-04-04 01:29:00,38.7,31.8,28.76,SW,225,2.7,4.3,76,0.00,,---,0.00,VWS V14.01,2013-04-04 06:29:00,
2013-04-04 01:30:00,38.7,31.8,28.76,SW,225,3.4,4.3,76,0.00,,---,0.00,VWS V14.01,2013-04-04 06:30:00,
2013-04-04 01:31:00,38.7,31.8,28.76,SW,225,3.4,3.4,76,0.00,,---,0.00,VWS V14.01,2013-04-04 06:31:00,
2013-04-04 01:32:00,38.7,31.8,28.76,SSW,202,3.1,3.1,76,0.00,,---,0.00,VWS V14.01,2013-04-04 06:32:00,
2013-04-04 01:33:00,38.7,31.8,28.76,SSW,202,3.1,3.1,76,0.00,,---,0.00,VWS V14.01,2013-04-04 06:33:00,
2013-04-04 01:34:00,38.8,31.9,28.76,SSW,202,3.6,4.5,76,0.00,,---,0.00,VWS V14.01,2013-04-04 06:34:00,
2013-04-04 01:35:00,38.8,31.9,28.76,SSW,202,4.3,4.3,76,0.00,,---,0.00,VWS V14.01,2013-04-04 06:35:00,
2013-04-04 01:36:00,38.8,31.9,28.76,SW,225,3.4,4.3,76,0.00,,---,0.00,VWS V14.01,2013-04-04 06:36:00,
2013-04-04 01:37:00,38.8,31.9,28.76,SSW,202,4.7,4.7,76,0.00,,---,0.00,VWS V14.01,2013-04-04 06:37:00,
2013-04-04 01:38:00,38.8,31.9,28.76,SSW,202,4.7,5.8,76,0.00,,---,0.00,VWS V14.01,2013-04-04 06:38:00,
2013-04-04 01:39:00,38.8,31.6,28.79,SW,225,4.7,4.9,75,0.00,,---,0.00,VWS V14.01,2013-04-04 06:39:00,
2013-04-04 01:40:00,38.8,31.6,28.79,SW,225,4.9,4.9,75,0.00,,---,0.00,VWS V14.01,2013-04-04 06:40:00,
2013-04-04 01:41:00,38.8,31.6,28.79,SSW,202,5.6,5.6,75,0.00,,---,0.00,VWS V14.01,2013-04-04 06:41:00,
2013-04-04 01:42:00,38.8,31.6,28.79,SW,225,7.4,7.4,75,0.00,,---,0.00,VWS V14.01,2013-04-04 06:42:00,
2013-04-04 01:43:00,38.8,31.6,28.79,SW,225,4.3,4.3,75,0.00,,---,0.00,VWS V14.01,2013-04-04 06:43:00,
2013-04-04 01:44:00,38.8,31.6,28.79,SW,225,4.0,7.4,75,0.00,,---,0.00,VWS V14.01,2013-04-04 06:44:00,
2013-04-04 01:45:00,38.8,31.6,28.79,SSW,202,6.0,7.2,75,0.00,,---,0.00,VWS V14.01,2013-04-04 06:45:00,
2013-04-04 01:46:00,38.8,31.6,28.79,SW,225,5.6,6.0,75,0.00,,---,0.00,VWS V14.01,2013-04-04 06:46:00,
2013-04-04 01:47:00,39.0,31.8,28.79,SW,225,6.0,6.5,75,0.00,,---,0.00,VWS V14.01,2013-04-04 06:47:00,
2013-04-04 01:48:00,39.0,31.8,28.79,SW,225,5.6,6.5,75,0.00,,---,0.00,VWS V14.01,2013-04-04 06:48:00,
2013-04-04 01:49:00,39.0,31.8,28.79,SW,225,7.2,7.2,75,0.00,,---,0.00,VWS V14.01,2013-04-04 06:49:00,
2013-04-04 01:50:00,39.0,31.8,28.79,SW,225,6.5,7.2,75,0.00,,---,0.00,VWS V14.01,2013-04-04 06:50:00,
2013-04-04 01:52:00,39.6,31.6,28.79,SW,225,8.7,8.7,73,0.00,,---,0.00,VWS V14.01,2013-04-04 06:52:00,
2013-04-04 01:53:00,39.6,31.6,28.79,SW,225,7.6,8.1,73,0.00,,---,0.00,VWS V14.01,2013-04-04 06:53:00,
2013-04-04 01:54:00,39.6,31.6,28.76,SW,225,9.0,9.0,73,0.00,,---,0.00,VWS V14.01,2013-04-04 06:54:00,
2013-04-04 01:55:00,39.7,31.8,28.76,SW,225,9.8,9.8,73,0.00,,---,0.00,VWS V14.01,2013-04-04 06:55:00,
2013-04-04 01:56:00,39.9,32.0,28.76,WSW,248,8.5,9.8,73,0.00,,---,0.00,VWS V14.01,2013-04-04 06:56:00,
2013-04-04 01:57:00,39.9,31.6,28.76,WSW,248,8.7,9.8,72,0.00,,---,0.00,VWS V14.01,2013-04-04 06:57:00,
2013-04-04 01:58:00,39.9,31.6,28.76,WSW,248,7.8,9.0,72,0.00,,---,0.00,VWS V14.01,2013-04-04 06:58:00,
2013-04-04 01:59:00,39.9,31.6,28.76,WSW,248,6.9,9.8,72,0.00,,---,0.00,VWS V14.01,2013-04-04 06:59:00,
2013-04-04 02:00:00,39.9,31.6,28.76,WSW,248,7.4,7.4,72,0.00,,---,0.00,VWS V14.01,2013-04-04 07:00:00,
2013-04-04 02:01:00,39.7,31.1,28.76,WNW,292,5.8,7.4,71,0.00,,---,0.00,VWS V14.01,2013-04-04 07:01:00,
2013-04-04 02:02:00,39.7,31.5,28.76,WSW,248,7.8,7.8,72,0.00,,---,0.00,VWS V14.01,2013-04-04 07:02:00,
2013-04-04 02:03:00,39.7,31.5,28.76,WNW,292,5.6,6.5,72,0.00,,---,0.00,VWS V14.01,2013-04-04 07:03:00,
2013-04-04 02:04:00,39.7,31.5,28.76,WSW,248,7.6,7.8,72,0.00,,---,0.00,VWS V14.01,2013-04-04 07:04:00,
2013-04-04 02:05:00,39.7,31.5,28.76,WSW,248,8.1,8.1,72,0.00,,---,0.00,VWS V14.01,2013-04-04 07:05:00,
2013-04-04 02:06:00,39.6,31.3,28.76,WSW,248,6.3,8.5,72,0.00,,---,0.00,VWS V14.01,2013-04-04 07:06:00,
2013-04-04 02:07:00,39.6,31.3,28.76,WSW,248,10.5,10.5,72,0.00,,---,0.00,VWS V14.01,2013-04-04 07:07:00,
2013-04-04 02:08:00,39.6,31.3,28.76,WNW,292,7.6,9.4,72,0.00,,---,0.00,VWS V14.01,2013-04-04 07:08:00,
2013-04-04 02:09:00,39.6,31.3,28.79,WNW,292,10.5,10.5,72,0.00,,---,0.00,VWS V14.01,2013-04-04 07:09:00,
2013-04-04 02:10:00,39.7,31.5,28.79,West,270,8.1,10.7,72,0.00,,---,0.00,VWS V14.01,2013-04-04 07:10:00,
2013-04-04 02:11:00,39.7,31.5,28.79,West,270,9.2,10.7,72,0.00,,---,0.00,VWS V14.01,2013-04-04 07:11:00,
2013-04-04 02:12:00,39.6,31.3,28.79,WSW,248,12.3,15.2,72,0.00,,---,0.00,VWS V14.01,2013-04-04 07:12:00,
2013-04-04 02:13:00,39.6,31.3,28.79,WNW,292,10.7,12.5,72,0.00,,---,0.00,VWS V14.01,2013-04-04 07:13:00,
2013-04-04 02:14:00,39.6,31.3,28.79,WSW,248,10.5,15.2,72,0.00,,---,0.00,VWS V14.01,2013-04-04 07:14:00,
2013-04-04 02:15:00,39.6,31.3,28.79,WNW,292,12.1,13.2,72,0.00,,---,0.00,VWS V14.01,2013-04-04 07:15:00,
2013-04-04 02:16:00,39.4,31.1,28.79,West,270,10.7,13.0,72,0.00,,---,0.00,VWS V14.01,2013-04-04 07:16:00,
2013-04-04 02:17:00,39.2,31.3,28.79,NNW,338,13.6,13.6,73,0.00,,---,0.00,VWS V14.01,2013-04-04 07:17:00,
2013-04-04 02:18:00,39.4,31.5,28.79,WNW,292,12.8,12.8,73,0.00,,---,0.00,VWS V14.01,2013-04-04 07:18:00,
2013-04-04 02:19:00,39.2,31.3,28.79,NW,315,15.4,15.4,73,0.00,,---,0.00,VWS V14.01,2013-04-04 07:19:00,
2013-04-04 02:20:00,39.2,31.6,28.79,WNW,292,10.7,15.4,74,0.00,,---,0.00,VWS V14.01,2013-04-04 07:20:00,
2013-04-04 02:21:00,39.2,32.0,28.79,WNW,292,13.0,15.2,75,0.00,,---,0.00,VWS V14.01,2013-04-04 07:21:00,
2013-04-04 02:22:00,38.8,32.3,28.79,WSW,248,12.8,13.2,77,0.00,,---,0.00,VWS V14.01,2013-04-04 07:22:00,
2013-04-04 02:23:00,39.0,32.4,28.79,WNW,292,13.2,13.2,77,0.00,,---,0.00,VWS V14.01,2013-04-04 07:23:00,
2013-04-04 02:24:00,38.8,32.3,28.79,WNW,292,12.5,13.2,77,0.00,,---,0.00,VWS V14.01,2013-04-04 07:24:00,
2013-04-04 02:25:00,38.7,32.4,28.79,SW,225,11.0,12.5,78,0.00,,---,0.00,VWS V14.01,2013-04-04 07:25:00,
2013-04-04 02:26:00,38.7,32.4,28.79,WNW,292,15.2,16.3,78,0.00,,---,0.00,VWS V14.01,2013-04-04 07:26:00,
2013-04-04 02:27:00,38.5,32.5,28.79,WSW,248,11.0,14.8,79,0.00,,---,0.00,VWS V14.01,2013-04-04 07:27:00,
2013-04-04 02:28:00,38.5,32.5,28.79,WNW,292,14.8,14.8,79,0.00,,---,0.00,VWS V14.01,2013-04-04 07:28:00,
2013-04-04 02:29:00,38.5,32.5,28.79,WNW,292,9.8,14.8,79,0.00,,---,0.00,VWS V14.01,2013-04-04 07:29:00,
2013-04-04 02:30:00,38.5,32.9,28.79,WNW,292,12.8,12.8,80,0.00,,---,0.00,VWS V14.01,2013-04-04 07:30:00,
2013-04-04 02:31:00,38.3,32.7,28.79,NW,315,10.1,12.8,80,0.00,,---,0.00,VWS V14.01,2013-04-04 07:31:00,
2013-04-04 02:32:00,38.1,32.8,28.79,NNE,22,12.5,15.2,81,0.00,,---,0.00,VWS V14.01,2013-04-04 07:32:00,
2013-04-04 02:33:00,38.1,32.8,28.79,WNW,292,15.2,15.2,81,0.00,,---,0.00,VWS V14.01,2013-04-04 07:33:00,
2013-04-04 02:34:00,38.1,32.8,28.79,NNE,22,12.5,15.2,81,0.00,,---,0.00,VWS V14.01,2013-04-04 07:34:00,
2013-04-04 02:35:00,38.1,32.8,28.79,WNW,292,10.5,12.5,81,0.00,,---,0.00,VWS V14.01,2013-04-04 07:35:00,
2013-04-04 02:36:00,38.1,33.1,28.79,WNW,292,11.4,12.3,82,0.00,,---,0.00,VWS V14.01,2013-04-04 07:36:00,
2013-04-04 02:37:00,37.9,33.2,28.79,West,270,10.5,10.5,83,0.00,,---,0.00,VWS V14.01,2013-04-04 07:37:00,
2013-04-04 02:38:00,37.9,33.2,28.79,West,270,10.3,13.4,83,0.00,,---,0.00,VWS V14.01,2013-04-04 07:38:00,
2013-04-04 02:39:00,37.9,33.2,28.79,WNW,292,8.7,10.5,83,0.00,,---,0.00,VWS V14.01,2013-04-04 07:39:00,
2013-04-04 02:40:00,37.9,33.2,28.79,WNW,292,8.7,8.7,83,0.00,,---,0.00,VWS V14.01,2013-04-04 07:40:00,
2013-04-04 02:41:00,37.9,33.2,28.79,WNW,292,10.5,10.5,83,0.00,,---,0.00,VWS V14.01,2013-04-04 07:41:00,
2013-04-04 02:42:00,37.9,33.2,28.79,WNW,292,12.8,12.8,83,0.00,,---,0.00,VWS V14.01,2013-04-04 07:42:00,
2013-04-04 02:43:00,37.9,33.2,28.79,WNW,292,12.8,12.8,83,0.00,,---,0.00,VWS V14.01,2013-04-04 07:43:00,
2013-04-04 02:44:00,37.9,33.2,28.79,WNW,292,14.1,14.1,83,0.00,,---,0.00,VWS V14.01,2013-04-04 07:44:00,
2013-04-04 02:45:00,37.8,33.4,28.79,WNW,292,10.5,14.1,84,0.00,,---,0.00,VWS V14.01,2013-04-04 07:45:00,
2013-04-04 02:46:00,37.6,33.2,28.79,West,270,8.7,10.7,84,0.00,,---,0.00,VWS V14.01,2013-04-04 07:46:00,
2013-04-04 02:47:00,37.6,33.2,28.79,West,270,7.6,8.7,84,0.00,,---,0.00,VWS V14.01,2013-04-04 07:47:00,
2013-04-04 02:48:00,37.6,33.2,28.79,NW,315,8.7,9.8,84,0.00,,---,0.00,VWS V14.01,2013-04-04 07:48:00,
2013-04-04 02:49:00,37.6,33.2,28.79,West,270,7.6,8.7,84,0.00,,---,0.00,VWS V14.01,2013-04-04 07:49:00,
2013-04-04 02:50:00,37.6,33.2,28.79,WSW,248,7.8,9.8,84,0.00,,---,0.00,VWS V14.01,2013-04-04 07:50:00,
2013-04-04 02:51:00,37.4,33.3,28.79,West,270,9.8,9.8,85,0.00,,---,0.00,VWS V14.01,2013-04-04 07:51:00,
2013-04-04 02:52:00,37.4,33.3,28.79,WSW,248,8.7,10.7,85,0.00,,---,0.00,VWS V14.01,2013-04-04 07:52:00,
2013-04-04 02:53:00,37.4,33.3,28.79,WSW,248,10.7,10.7,85,0.00,,---,0.00,VWS V14.01,2013-04-04 07:53:00,
2013-04-04 02:54:00,37.4,33.3,28.79,West,270,7.6,10.7,85,0.00,,---,0.00,VWS V14.01,2013-04-04 07:54:00,
2013-04-04 02:55:00,37.4,33.3,28.79,WSW,248,12.3,12.3,85,0.00,,---,0.00,VWS V14.01,2013-04-04 07:55:00,
2013-04-04 02:56:00,37.4,33.3,28.79,West,270,8.7,12.3,85,0.00,,---,0.00,VWS V14.01,2013-04-04 07:56:00,
2013-04-04 02:57:00,37.4,33.3,28.79,WNW,292,8.5,8.7,85,0.00,,---,0.00,VWS V14.01,2013-04-04 07:57:00,
2013-04-04 02:58:00,37.4,33.3,28.79,WSW,248,8.7,10.3,85,0.00,,---,0.00,VWS V14.01,2013-04-04 07:58:00,
2013-04-04 02:59:00,37.4,33.3,28.79,WNW,292,8.1,8.7,85,0.00,,---,0.00,VWS V14.01,2013-04-04 07:59:00,
2013-04-04 03:00:00,37.0,33.0,28.79,WSW,248,6.3,8.7,85,0.00,,---,0.00,VWS V14.01,2013-04-04 08:00:00,
2013-04-04 03:01:00,36.9,33.1,28.79,West,270,6.3,8.5,86,0.00,,---,0.00,VWS V14.01,2013-04-04 08:01:00,
2013-04-04 03:02:00,36.9,33.1,28.79,West,270,5.8,9.8,86,0.00,,---,0.00,VWS V14.01,2013-04-04 08:02:00,
2013-04-04 03:03:00,36.9,33.1,28.79,WNW,292,5.8,9.8,86,0.00,,---,0.00,VWS V14.01,2013-04-04 08:03:00,
2013-04-04 03:04:00,36.9,33.1,28.79,WSW,248,10.1,10.1,86,0.00,,---,0.00,VWS V14.01,2013-04-04 08:04:00,
2013-04-04 03:05:00,36.9,33.1,28.79,WNW,292,8.1,10.1,86,0.00,,---,0.00,VWS V14.01,2013-04-04 08:05:00,
2013-04-04 03:07:00,36.7,32.9,28.79,NW,315,9.6,10.5,86,0.00,,---,0.00,VWS V14.01,2013-04-04 08:07:00,
2013-04-04 03:08:00,36.7,32.9,28.79,WSW,248,9.4,10.1,86,0.00,,---,0.00,VWS V14.01,2013-04-04 08:08:00,
2013-04-04 03:09:00,36.7,32.9,28.79,West,270,6.3,10.5,86,0.00,,---,0.00,VWS V14.01,2013-04-04 08:09:00,
2013-04-04 03:10:00,36.5,32.7,28.79,West,270,5.8,8.7,86,0.00,,---,0.00,VWS V14.01,2013-04-04 08:10:00,
2013-04-04 03:11:00,36.5,32.7,28.79,West,270,8.7,10.7,86,0.00,,---,0.00,VWS V14.01,2013-04-04 08:11:00,
2013-04-04 03:12:00,36.5,33.0,28.79,WSW,248,9.2,9.8,87,0.00,,---,0.00,VWS V14.01,2013-04-04 08:12:00,
2013-04-04 03:13:00,36.5,32.7,28.79,NW,315,9.8,9.8,86,0.00,,---,0.00,VWS V14.01,2013-04-04 08:13:00,
2013-04-04 03:14:00,36.5,33.0,28.79,WSW,248,7.6,9.8,87,0.00,,---,0.00,VWS V14.01,2013-04-04 08:14:00,
2013-04-04 03:15:00,36.5,33.0,28.79,WSW,248,8.1,8.5,87,0.00,,---,0.00,VWS V14.01,2013-04-04 08:15:00,
2013-04-04 03:16:00,36.3,32.8,28.79,WNW,292,11.0,11.0,87,0.00,,---,0.00,VWS V14.01,2013-04-04 08:16:00,
2013-04-04 03:17:00,36.3,32.8,28.79,North,0,8.7,12.3,87,0.00,,---,0.00,VWS V14.01,2013-04-04 08:17:00,
2013-04-04 03:19:00,36.3,32.8,28.79,North,0,8.7,12.3,87,0.00,,---,0.00,VWS V14.01,2013-04-04 08:19:00,
2013-04-04 03:20:00,36.3,32.8,28.79,WNW,292,10.3,10.3,87,0.00,,---,0.00,VWS V14.01,2013-04-04 08:20:00,
2013-04-04 03:21:00,36.3,32.8,28.79,WNW,292,8.1,10.3,87,0.00,,---,0.00,VWS V14.01,2013-04-04 08:21:00,
2013-04-04 03:22:00,36.1,32.7,28.79,WSW,248,8.7,8.7,87,0.00,,---,0.00,VWS V14.01,2013-04-04 08:22:00,
2013-04-04 03:23:00,36.3,32.8,28.79,West,270,7.4,9.8,87,0.00,,---,0.00,VWS V14.01,2013-04-04 08:23:00,
2013-04-04 03:24:00,36.1,32.7,28.79,WSW,248,8.7,8.7,87,0.00,,---,0.00,VWS V14.01,2013-04-04 08:24:00,
2013-04-04 03:25:00,36.1,32.7,28.79,WSW,248,8.1,8.7,87,0.00,,---,0.00,VWS V14.01,2013-04-04 08:25:00,
2013-04-04 03:26:00,36.1,32.7,28.79,WSW,248,6.3,10.3,87,0.00,,---,0.00,VWS V14.01,2013-04-04 08:26:00,
2013-04-04 03:27:00,36.0,32.8,28.79,WNW,292,7.8,10.3,88,0.00,,---,0.00,VWS V14.01,2013-04-04 08:27:00,
2013-04-04 03:28:00,36.0,32.5,28.79,WNW,292,8.7,9.0,87,0.00,,---,0.00,VWS V14.01,2013-04-04 08:28:00,
2013-04-04 03:29:00,36.0,32.8,28.79,WNW,292,7.8,10.3,88,0.00,,---,0.00,VWS V14.01,2013-04-04 08:29:00,
2013-04-04 03:30:00,36.0,32.8,28.79,West,270,8.5,10.7,88,0.00,,---,0.00,VWS V14.01,2013-04-04 08:30:00,
2013-04-04 03:31:00,36.0,32.8,28.79,NW,315,7.4,10.5,88,0.00,,---,0.00,VWS V14.01,2013-04-04 08:31:00,
2013-04-04 03:32:00,36.0,32.8,28.79,WNW,292,8.1,8.1,88,0.00,,---,0.00,VWS V14.01,2013-04-04 08:32:00,
2013-04-04 03:33:00,36.0,32.8,28.79,WNW,292,7.8,7.8,88,0.00,,---,0.00,VWS V14.01,2013-04-04 08:33:00,
2013-04-04 03:34:00,36.0,32.8,28.79,WNW,292,8.1,8.1,88,0.00,,---,0.00,VWS V14.01,2013-04-04 08:34:00,
2013-04-04 03:35:00,35.8,32.3,28.79,WSW,248,9.8,9.8,87,0.00,,---,0.00,VWS V14.01,2013-04-04 08:35:00,
2013-04-04 03:36:00,35.8,32.3,28.79,WNW,292,4.3,10.3,87,0.00,,---,0.00,VWS V14.01,2013-04-04 08:36:00,
2013-04-04 03:37:00,35.6,32.1,28.79,NW,315,8.5,8.5,87,0.00,,---,0.00,VWS V14.01,2013-04-04 08:37:00,
2013-04-04 03:38:00,35.6,32.1,28.79,NNW,338,5.8,8.5,87,0.00,,---,0.00,VWS V14.01,2013-04-04 08:38:00,
2013-04-04 03:39:00,35.6,32.1,28.79,NW,315,8.5,8.5,87,0.00,,---,0.00,VWS V14.01,2013-04-04 08:39:00,
2013-04-04 03:40:00,35.6,32.4,28.79,West,270,10.1,10.1,88,0.00,,---,0.00,VWS V14.01,2013-04-04 08:40:00,
2013-04-04 03:41:00,35.6,32.4,28.79,WSW,248,7.8,10.1,88,0.00,,---,0.00,VWS V14.01,2013-04-04 08:41:00,
2013-04-04 03:42:00,35.6,32.4,28.79,West,270,8.7,11.0,88,0.00,,---,0.00,VWS V14.01,2013-04-04 08:42:00,
2013-04-04 03:43:00,35.6,32.4,28.79,WNW,292,8.1,8.1,88,0.00,,---,0.00,VWS V14.01,2013-04-04 08:43:00,
2013-04-04 03:44:00,35.6,32.4,28.79,West,270,8.7,11.0,88,0.00,,---,0.00,VWS V14.01,2013-04-04 08:44:00,
2013-04-04 03:45:00,35.6,32.4,28.79,WSW,248,10.5,11.0,88,0.00,,---,0.00,VWS V14.01,2013-04-04 08:45:00,
2013-04-04 03:46:00,35.6,32.4,28.79,NW,315,7.6,10.5,88,0.00,,---,0.00,VWS V14.01,2013-04-04 08:46:00,
2013-04-04 03:47:00,35.4,32.2,28.79,WNW,292,4.9,5.6,88,0.00,,---,0.00,VWS V14.01,2013-04-04 08:47:00,
2013-04-04 03:48:00,35.4,32.2,28.79,North,0,4.3,8.1,88,0.00,,---,0.00,VWS V14.01,2013-04-04 08:48:00,
2013-04-04 03:49:00,35.4,32.2,28.79,WNW,292,4.9,5.6,88,0.00,,---,0.00,VWS V14.01,2013-04-04 08:49:00,
2013-04-04 03:50:00,35.4,32.2,28.79,WNW,292,10.1,10.5,88,0.00,,---,0.00,VWS V14.01,2013-04-04 08:50:00,
2013-04-04 03:51:00,35.4,32.2,28.79,NW,315,7.4,10.1,88,0.00,,---,0.00,VWS V14.01,2013-04-04 08:51:00,
2013-04-04 03:52:00,35.2,32.0,28.79,NW,315,8.5,8.7,88,0.00,,---,0.00,VWS V14.01,2013-04-04 08:52:00,
2013-04-04 03:53:00,35.2,32.0,28.79,WNW,292,8.7,8.7,88,0.00,,---,0.00,VWS V14.01,2013-04-04 08:53:00,
2013-04-04 03:54:00,35.2,32.0,28.79,NW,315,8.5,8.7,88,0.00,,---,0.00,VWS V14.01,2013-04-04 08:54:00,
2013-04-04 03:55:00,35.2,32.0,28.79,WNW,292,6.5,8.5,88,0.00,,---,0.00,VWS V14.01,2013-04-04 08:55:00,
2013-04-04 03:56:00,35.1,31.9,28.79,WNW,292,5.6,8.1,88,0.00,,---,0.00,VWS V14.01,2013-04-04 08:56:00,
2013-04-04 03:57:00,35.1,31.9,28.79,WNW,292,6.0,6.0,88,0.00,,---,0.00,VWS V14.01,2013-04-04 08:57:00,
2013-04-04 03:58:00,35.1,31.9,28.79,West,270,5.8,9.6,88,0.00,,---,0.00,VWS V14.01,2013-04-04 08:58:00,
2013-04-04 03:59:00,35.1,31.9,28.79,West,270,5.8,9.6,88,0.00,,---,0.00,VWS V14.01,2013-04-04 08:59:00,
2013-04-04 04:00:00,34.9,31.7,28.79,West,270,7.2,7.2,88,0.00,,---,0.00,VWS V14.01,2013-04-04 09:00:00,
2013-04-04 04:01:00,34.9,31.7,28.79,West,270,6.0,8.7,88,0.00,,---,0.00,VWS V14.01,2013-04-04 09:01:00,
2013-04-04 04:02:00,34.9,31.7,28.79,NNW,338,5.6,7.8,88,0.00,,---,0.00,VWS V14.01,2013-04-04 09:02:00,
2013-04-04 04:03:00,34.9,31.7,28.79,WNW,292,6.3,6.3,88,0.00,,---,0.00,VWS V14.01,2013-04-04 09:03:00,
2013-04-04 04:04:00,34.9,31.7,28.79,WSW,248,4.7,6.3,88,0.00,,---,0.00,VWS V14.01,2013-04-04 09:04:00,
2013-04-04 04:06:00,34.7,31.5,28.79,SSW,202,6.5,6.5,88,0.00,,---,0.00,VWS V14.01,2013-04-04 09:06:00,
2013-04-04 04:07:00,34.5,31.3,28.79,WNW,292,6.0,8.5,88,0.00,,---,0.00,VWS V14.01,2013-04-04 09:07:00,
2013-04-04 04:08:00,34.5,31.3,28.79,WSW,248,7.6,7.6,88,0.00,,---,0.00,VWS V14.01,2013-04-04 09:08:00,
2013-04-04 04:09:00,34.5,31.3,28.79,West,270,5.6,8.1,88,0.00,,---,0.00,VWS V14.01,2013-04-04 09:09:00,
2013-04-04 04:10:00,34.5,31.3,28.79,WNW,292,6.0,7.6,88,0.00,,---,0.00,VWS V14.01,2013-04-04 09:10:00,
2013-04-04 04:11:00,34.5,31.6,28.79,WNW,292,7.2,8.7,89,0.00,,---,0.00,VWS V14.01,2013-04-04 09:11:00,
2013-04-04 04:12:00,34.3,31.4,28.79,WNW,292,4.9,7.2,89,0.00,,---,0.00,VWS V14.01,2013-04-04 09:12:00,
2013-04-04 04:13:00,34.3,31.4,28.79,West,270,6.5,7.6,89,0.00,,---,0.00,VWS V14.01,2013-04-04 09:13:00,
2013-04-04 04:14:00,34.3,31.4,28.79,NNW,338,7.6,9.6,89,0.00,,---,0.00,VWS V14.01,2013-04-04 09:14:00,
2013-04-04 04:15:00,34.3,31.4,28.79,WNW,292,6.0,7.6,89,0.00,,---,0.00,VWS V14.01,2013-04-04 09:15:00,
2013-04-04 04:16:00,34.3,31.4,28.79,WNW,292,6.0,6.0,89,0.00,,---,0.00,VWS V14.01,2013-04-04 09:16:00,
2013-04-04 04:17:00,34.2,31.3,28.79,WNW,292,5.4,6.9,89,0.00,,---,0.00,VWS V14.01,2013-04-04 09:17:00,
2013-04-04 04:18:00,34.2,31.3,28.79,WNW,292,5.4,6.7,89,0.00,,---,0.00,VWS V14.01,2013-04-04 09:18:00,
2013-04-04 04:19:00,34.2,31.3,28.79,WNW,292,6.7,6.7,89,0.00,,---,0.00,VWS V14.01,2013-04-04 09:19:00,
2013-04-04 04:20:00,34.0,30.8,28.79,WNW,292,4.3,6.7,88,0.00,,---,0.00,VWS V14.01,2013-04-04 09:20:00,
2013-04-04 04:21:00,34.0,30.8,28.79,WNW,292,3.8,6.0,88,0.00,,---,0.00,VWS V14.01,2013-04-04 09:21:00,
2013-04-04 04:22:00,34.0,30.8,28.79,WNW,292,6.0,6.0,88,0.00,,---,0.00,VWS V14.01,2013-04-04 09:22:00,
2013-04-04 04:23:00,33.8,30.6,28.82,WNW,292,4.9,4.9,88,0.00,,---,0.00,VWS V14.01,2013-04-04 09:23:00,
2013-04-04 04:24:00,33.8,30.6,28.82,WNW,292,4.9,5.4,88,0.00,,---,0.00,VWS V14.01,2013-04-04 09:24:00,
2013-04-04 04:25:00,33.8,30.6,28.82,West,270,4.3,5.8,88,0.00,,---,0.00,VWS V14.01,2013-04-04 09:25:00,
2013-04-04 04:26:00,33.6,30.5,28.82,WSW,248,7.6,7.6,88,0.00,,---,0.00,VWS V14.01,2013-04-04 09:26:00,
2013-04-04 04:27:00,33.6,30.5,28.82,WNW,292,5.6,7.6,88,0.00,,---,0.00,VWS V14.01,2013-04-04 09:27:00,
2013-04-04 04:28:00,33.6,30.5,28.82,NW,315,5.4,6.5,88,0.00,,---,0.00,VWS V14.01,2013-04-04 09:28:00,
2013-04-04 04:29:00,33.6,30.5,28.82,WNW,292,6.5,6.5,88,0.00,,---,0.00,VWS V14.01,2013-04-04 09:29:00,
2013-04-04 04:30:00,33.6,30.5,28.82,WNW,292,5.6,6.5,88,0.00,,---,0.00,VWS V14.01,2013-04-04 09:30:00,
2013-04-04 04:32:00,33.4,30.3,28.82,WNW,292,5.8,7.2,88,0.00,,---,0.00,VWS V14.01,2013-04-04 09:32:00,
2013-04-04 04:33:00,33.4,30.3,28.82,WNW,292,4.0,4.3,88,0.00,,---,0.00,VWS V14.01,2013-04-04 09:33:00,
2013-04-04 04:34:00,33.4,30.3,28.82,West,270,4.3,7.6,88,0.00,,---,0.00,VWS V14.01,2013-04-04 09:34:00,
2013-04-04 04:35:00,33.4,30.3,28.82,WNW,292,4.5,5.6,88,0.00,,---,0.00,VWS V14.01,2013-04-04 09:35:00,
2013-04-04 04:36:00,33.4,30.3,28.82,WNW,292,2.5,4.5,88,0.00,,---,0.00,VWS V14.01,2013-04-04 09:36:00,
2013-04-04 04:37:00,33.3,30.1,28.82,WNW,292,5.6,5.6,88,0.00,,---,0.00,VWS V14.01,2013-04-04 09:37:00,
2013-04-04 04:38:00,33.3,30.1,28.79,WNW,292,4.0,4.3,88,0.00,,---,0.00,VWS V14.01,2013-04-04 09:38:00,
2013-04-04 04:39:00,33.3,30.1,28.79,WNW,292,4.3,5.6,88,0.00,,---,0.00,VWS V14.01,2013-04-04 09:39:00,
2013-04-04 04:40:00,33.3,30.1,28.79,West,270,5.6,5.6,88,0.00,,---,0.00,VWS V14.01,2013-04-04 09:40:00,
2013-04-04 04:41:00,33.3,30.4,28.79,WSW,248,4.3,5.6,89,0.00,,---,0.00,VWS V14.01,2013-04-04 09:41:00,
2013-04-04 04:42:00,33.3,30.4,28.79,NW,315,3.8,5.6,89,0.00,,---,0.00,VWS V14.01,2013-04-04 09:42:00,
2013-04-04 04:43:00,33.3,30.4,28.79,West,270,4.9,6.0,89,0.00,,---,0.00,VWS V14.01,2013-04-04 09:43:00,
2013-04-04 04:44:00,33.3,30.4,28.79,WNW,292,5.4,6.3,89,0.00,,---,0.00,VWS V14.01,2013-04-04 09:44:00,
2013-04-04 04:45:00,33.3,30.4,28.79,WNW,292,6.3,6.3,89,0.00,,---,0.00,VWS V14.01,2013-04-04 09:45:00,
2013-04-04 04:46:00,33.3,30.4,28.79,WNW,292,5.6,6.3,89,0.00,,---,0.00,VWS V14.01,2013-04-04 09:46:00,
2013-04-04 04:47:00,33.3,30.4,28.79,WSW,248,5.4,5.6,89,0.00,,---,0.00,VWS V14.01,2013-04-04 09:47:00,
2013-04-04 04:48:00,33.3,30.4,28.79,West,270,4.0,4.0,89,0.00,,---,0.00,VWS V14.01,2013-04-04 09:48:00,
2013-04-04 04:49:00,33.3,30.4,28.79,West,270,4.0,4.9,89,0.00,,---,0.00,VWS V14.01,2013-04-04 09:49:00,
2013-04-04 04:50:00,33.3,30.6,28.79,WSW,248,5.8,5.8,90,0.00,,---,0.00,VWS V14.01,2013-04-04 09:50:00,
2013-04-04 04:51:00,33.3,30.6,28.79,WNW,292,6.3,6.3,90,0.00,,---,0.00,VWS V14.01,2013-04-04 09:51:00,
2013-04-04 04:52:00,33.3,30.6,28.79,West,270,5.6,6.3,90,0.00,,---,0.00,VWS V14.01,2013-04-04 09:52:00,
2013-04-04 04:53:00,33.1,30.5,28.79,West,270,4.9,6.5,90,0.00,,---,0.00,VWS V14.01,2013-04-04 09:53:00,
2013-04-04 04:54:00,33.3,30.6,28.79,WNW,292,6.5,6.5,90,0.00,,---,0.00,VWS V14.01,2013-04-04 09:54:00,
2013-04-04 04:55:00,33.1,30.5,28.79,West,270,5.6,6.5,90,0.00,,---,0.00,VWS V14.01,2013-04-04 09:55:00,
2013-04-04 04:56:00,33.1,30.7,28.79,West,270,5.6,5.6,91,0.00,,---,0.00,VWS V14.01,2013-04-04 09:56:00,
2013-04-04 04:57:00,33.1,30.7,28.79,West,270,7.6,7.6,91,0.00,,---,0.00,VWS V14.01,2013-04-04 09:57:00,
2013-04-04 04:58:00,33.1,30.7,28.79,WNW,292,6.5,6.5,91,0.00,,---,0.00,VWS V14.01,2013-04-04 09:58:00,
2013-04-04 04:59:00,33.1,30.7,28.79,WNW,292,6.0,7.4,91,0.00,,---,0.00,VWS V14.01,2013-04-04 09:59:00,
2013-04-04 05:00:00,32.7,30.1,28.79,WNW,292,5.8,6.5,90,0.00,,---,0.00,VWS V14.01,2013-04-04 10:00:00,
2013-04-04 05:01:00,32.7,30.1,28.79,West,270,6.0,6.0,90,0.00,,---,0.00,VWS V14.01,2013-04-04 10:01:00,
2013-04-04 05:02:00,32.7,30.1,28.79,WNW,292,3.8,6.0,90,0.00,,---,0.00,VWS V14.01,2013-04-04 10:02:00,
2013-04-04 05:03:00,32.7,30.1,28.79,WNW,292,5.8,6.0,90,0.00,,---,0.00,VWS V14.01,2013-04-04 10:03:00,
2013-04-04 05:04:00,32.7,30.1,28.79,WSW,248,6.0,6.5,90,0.00,,---,0.00,VWS V14.01,2013-04-04 10:04:00,
2013-04-04 05:05:00,32.7,30.1,28.79,NW,315,7.2,7.2,90,0.00,,---,0.00,VWS V14.01,2013-04-04 10:05:00,
2013-04-04 05:06:00,32.7,30.1,28.79,WNW,292,4.9,7.2,90,0.00,,---,0.00,VWS V14.01,2013-04-04 10:06:00,
2013-04-04 05:07:00,32.7,30.1,28.79,WNW,292,5.8,5.8,90,0.00,,---,0.00,VWS V14.01,2013-04-04 10:07:00,
2013-04-04 05:08:00,32.5,29.9,28.82,WNW,292,7.4,7.4,90,0.00,,---,0.00,VWS V14.01,2013-04-04 10:08:00,
2013-04-04 05:09:00,32.5,29.9,28.82,WNW,292,5.6,6.7,90,0.00,,---,0.00,VWS V14.01,2013-04-04 10:09:00,
2013-04-04 05:10:00,32.5,29.9,28.82,WNW,292,6.0,7.4,90,0.00,,---,0.00,VWS V14.01,2013-04-04 10:10:00,
2013-04-04 05:11:00,32.5,29.7,28.82,WNW,292,7.8,7.8,89,0.00,,---,0.00,VWS V14.01,2013-04-04 10:11:00,
2013-04-04 05:12:00,32.4,29.5,28.82,WNW,292,9.2,9.2,89,0.00,,---,0.00,VWS V14.01,2013-04-04 10:12:00,
2013-04-04 05:13:00,32.4,29.5,28.82,WNW,292,7.4,7.4,89,0.00,,---,0.00,VWS V14.01,2013-04-04 10:13:00,
2013-04-04 05:14:00,32.4,29.5,28.82,NNW,338,6.0,9.0,89,0.00,,---,0.00,VWS V14.01,2013-04-04 10:14:00,
2013-04-04 05:15:00,32.5,29.7,28.82,WNW,292,7.8,9.2,89,0.00,,---,0.00,VWS V14.01,2013-04-04 10:15:00,
2013-04-04 05:16:00,32.5,29.7,28.82,WNW,292,5.6,7.8,89,0.00,,---,0.00,VWS V14.01,2013-04-04 10:16:00,
2013-04-04 05:17:00,32.5,29.7,28.82,WNW,292,8.1,8.1,89,0.00,,---,0.00,VWS V14.01,2013-04-04 10:17:00,
2013-04-04 05:18:00,32.5,29.7,28.82,WNW,292,7.8,7.8,89,0.00,,---,0.00,VWS V14.01,2013-04-04 10:18:00,
2013-04-04 05:19:00,32.5,29.7,28.82,WNW,292,7.8,7.8,89,0.00,,---,0.00,VWS V14.01,2013-04-04 10:19:00,
2013-04-04 05:20:00,32.5,29.7,28.82,WNW,292,6.7,7.8,89,0.00,,---,0.00,VWS V14.01,2013-04-04 10:20:00,
2013-04-04 05:21:00,32.5,29.9,28.82,WNW,292,8.7,8.7,90,0.00,,---,0.00,VWS V14.01,2013-04-04 10:21:00,
2013-04-04 05:22:00,32.5,29.9,28.82,WNW,292,6.3,8.7,90,0.00,,---,0.00,VWS V14.01,2013-04-04 10:22:00,
2013-04-04 05:23:00,32.4,29.8,28.82,WNW,292,5.8,6.3,90,0.00,,---,0.00,VWS V14.01,2013-04-04 10:23:00,
2013-04-04 05:24:00,32.4,29.8,28.82,WNW,292,6.3,6.3,90,0.00,,---,0.00,VWS V14.01,2013-04-04 10:24:00,
2013-04-04 05:25:00,32.4,29.8,28.82,WNW,292,5.8,6.3,90,0.00,,---,0.00,VWS V14.01,2013-04-04 10:25:00,
2013-04-04 05:26:00,32.4,29.5,28.82,West,270,6.3,8.1,89,0.00,,---,0.00,VWS V14.01,2013-04-04 10:26:00,
2013-04-04 05:27:00,32.4,29.5,28.82,WSW,248,6.3,6.3,89,0.00,,---,0.00,VWS V14.01,2013-04-04 10:27:00,
2013-04-04 05:28:00,32.2,29.3,28.82,WNW,292,6.0,6.5,89,0.00,,---,0.00,VWS V14.01,2013-04-04 10:28:00,
2013-04-04 05:29:00,32.4,29.5,28.82,WSW,248,6.5,6.5,89,0.00,,---,0.00,VWS V14.01,2013-04-04 10:29:00,
2013-04-04 05:30:00,32.2,29.3,28.82,West,270,5.8,6.5,89,0.00,,---,0.00,VWS V14.01,2013-04-04 10:30:00,
2013-04-04 05:31:00,32.2,29.3,28.82,WNW,292,5.8,5.8,89,0.00,,---,0.00,VWS V14.01,2013-04-04 10:31:00,
2013-04-04 05:32:00,32.2,29.3,28.82,WNW,292,6.0,6.0,89,0.00,,---,0.00,VWS V14.01,2013-04-04 10:32:00,
2013-04-04 05:33:00,32.2,29.3,28.82,WNW,292,4.5,6.3,89,0.00,,---,0.00,VWS V14.01,2013-04-04 10:33:00,
2013-04-04 05:34:00,32.2,29.3,28.82,WNW,292,4.9,4.9,89,0.00,,---,0.00,VWS V14.01,2013-04-04 10:34:00,
2013-04-04 05:35:00,32.2,29.3,28.82,WNW,292,4.9,6.0,89,0.00,,---,0.00,VWS V14.01,2013-04-04 10:35:00,
2013-04-04 05:36:00,32.4,29.5,28.82,West,270,4.9,6.3,89,0.00,,---,0.00,VWS V14.01,2013-04-04 10:36:00,
2013-04-04 05:37:00,32.4,29.5,28.82,WNW,292,3.6,6.0,89,0.00,,---,0.00,VWS V14.01,2013-04-04 10:37:00,
2013-04-04 05:39:00,32.5,29.9,28.82,North,0,5.8,7.6,90,0.00,,---,0.00,VWS V14.01,2013-04-04 10:39:00,
2013-04-04 05:40:00,32.5,29.9,28.82,NNW,338,7.6,7.6,90,0.00,,---,0.00,VWS V14.01,2013-04-04 10:40:00,
2013-04-04 05:41:00,32.5,29.9,28.82,WNW,292,6.0,7.6,90,0.00,,---,0.00,VWS V14.01,2013-04-04 10:41:00,
2013-04-04 05:42:00,32.5,29.9,28.82,West,270,4.3,6.0,90,0.00,,---,0.00,VWS V14.01,2013-04-04 10:42:00,
2013-04-04 05:43:00,32.5,30.2,28.82,WNW,292,7.6,7.6,91,0.00,,---,0.00,VWS V14.01,2013-04-04 10:43:00,
2013-04-04 05:44:00,32.5,30.2,28.82,West,270,5.6,5.6,91,0.00,,---,0.00,VWS V14.01,2013-04-04 10:44:00,
2013-04-04 05:45:00,32.5,30.2,28.82,WNW,292,5.6,5.6,91,0.00,,---,0.00,VWS V14.01,2013-04-04 10:45:00,
2013-04-04 05:46:00,32.5,29.9,28.82,WNW,292,6.5,6.5,90,0.00,,---,0.00,VWS V14.01,2013-04-04 10:46:00,
2013-04-04 05:47:00,32.5,29.9,28.82,WNW,292,6.0,6.5,90,0.00,,---,0.00,VWS V14.01,2013-04-04 10:47:00,
2013-04-04 05:48:00,32.5,29.9,28.82,NW,315,6.5,6.5,90,0.00,,---,0.00,VWS V14.01,2013-04-04 10:48:00,
2013-04-04 05:49:00,32.5,29.9,28.82,WNW,292,4.3,4.3,90,0.00,,---,0.00,VWS V14.01,2013-04-04 10:49:00,
2013-04-04 05:50:00,32.5,29.9,28.82,WNW,292,2.9,5.6,90,0.00,,---,0.00,VWS V14.01,2013-04-04 10:50:00,
2013-04-04 05:51:00,32.5,29.9,28.82,WNW,292,4.3,5.4,90,0.00,,---,0.00,VWS V14.01,2013-04-04 10:51:00,
2013-04-04 05:52:00,32.5,29.9,28.82,West,270,5.4,5.8,90,0.00,,---,0.00,VWS V14.01,2013-04-04 10:52:00,
2013-04-04 05:53:00,32.5,29.9,28.82,WNW,292,5.8,6.5,90,0.00,,---,0.00,VWS V14.01,2013-04-04 10:53:00,
2013-04-04 05:54:00,32.5,29.9,28.85,NW,315,4.0,4.9,90,0.00,,---,0.00,VWS V14.01,2013-04-04 10:54:00,
2013-04-04 05:55:00,32.5,29.9,28.85,WNW,292,4.9,4.9,90,0.00,,---,0.00,VWS V14.01,2013-04-04 10:55:00,
2013-04-04 05:56:00,32.5,29.9,28.85,NNW,338,5.8,5.8,90,0.00,,---,0.00,VWS V14.01,2013-04-04 10:56:00,
2013-04-04 05:57:00,32.4,29.5,28.85,WNW,292,4.7,5.8,89,0.00,,---,0.00,VWS V14.01,2013-04-04 10:57:00,
2013-04-04 05:58:00,32.4,29.5,28.85,NNW,338,5.8,5.8,89,0.00,,---,0.00,VWS V14.01,2013-04-04 10:58:00,
2013-04-04 05:59:00,32.4,29.2,28.85,WNW,292,6.5,6.5,88,0.00,,---,0.00,VWS V14.01,2013-04-04 10:59:00,
2013-04-04 06:00:00,32.4,29.2,28.85,WNW,292,4.9,5.8,88,0.00,,---,0.00,VWS V14.01,2013-04-04 11:00:00,
2013-04-04 06:01:00,32.4,29.2,28.85,WNW,292,6.0,6.5,88,0.00,,---,0.00,VWS V14.01,2013-04-04 11:01:00,
2013-04-04 06:02:00,32.4,29.2,28.85,WNW,292,5.8,6.5,88,0.00,,---,0.00,VWS V14.01,2013-04-04 11:02:00,
2013-04-04 06:03:00,32.4,29.2,28.85,WNW,292,5.6,5.8,88,0.00,,---,0.00,VWS V14.01,2013-04-04 11:03:00,
2013-04-04 06:04:00,32.2,29.0,28.85,WNW,292,4.7,6.0,88,0.00,,---,0.00,VWS V14.01,2013-04-04 11:04:00,
2013-04-04 06:05:00,32.2,29.0,28.85,WNW,292,4.0,5.8,88,0.00,,---,0.00,VWS V14.01,2013-04-04 11:05:00,
2013-04-04 06:06:00,32.2,29.0,28.85,WNW,292,5.6,6.0,88,0.00,,---,0.00,VWS V14.01,2013-04-04 11:06:00,
2013-04-04 06:07:00,32.2,29.0,28.85,NW,315,5.4,5.6,88,0.00,,---,0.00,VWS V14.01,2013-04-04 11:07:00,
2013-04-04 06:08:00,32.2,29.0,28.85,NNW,338,7.8,7.8,88,0.00,,---,0.00,VWS V14.01,2013-04-04 11:08:00,
2013-04-04 06:09:00,32.2,29.0,28.85,WNW,292,4.3,6.3,88,0.00,,---,0.00,VWS V14.01,2013-04-04 11:09:00,
2013-04-04 06:10:00,32.2,29.0,28.85,WNW,292,6.3,6.3,88,0.00,,---,0.00,VWS V14.01,2013-04-04 11:10:00,
2013-04-04 06:11:00,32.2,29.0,28.85,WNW,292,6.3,6.3,88,0.00,,---,0.00,VWS V14.01,2013-04-04 11:11:00,
2013-04-04 06:12:00,32.2,29.0,28.85,WNW,292,5.6,6.3,88,0.00,,---,0.00,VWS V14.01,2013-04-04 11:12:00,
2013-04-04 06:13:00,32.2,29.0,28.85,WNW,292,6.5,6.5,88,0.00,,---,0.00,VWS V14.01,2013-04-04 11:13:00,
2013-04-04 06:14:00,32.2,29.0,28.85,WNW,292,8.5,8.5,88,0.00,,---,0.00,VWS V14.01,2013-04-04 11:14:00,
2013-04-04 06:15:00,32.2,29.0,28.85,WNW,292,6.5,7.6,88,0.00,,---,0.00,VWS V14.01,2013-04-04 11:15:00,
2013-04-04 06:16:00,32.2,29.0,28.85,WNW,292,4.3,8.5,88,0.00,,---,0.00,VWS V14.01,2013-04-04 11:16:00,
2013-04-04 06:17:00,32.2,29.0,28.85,WNW,292,6.5,7.6,88,0.00,,---,0.00,VWS V14.01,2013-04-04 11:17:00,
2013-04-04 06:18:00,32.2,29.0,28.85,WNW,292,6.7,8.1,88,0.00,,---,0.00,VWS V14.01,2013-04-04 11:18:00,
2013-04-04 06:19:00,32.2,29.0,28.85,NW,315,5.4,5.8,88,0.00,,---,0.00,VWS V14.01,2013-04-04 11:19:00,
2013-04-04 06:20:00,32.2,29.0,28.85,WNW,292,4.7,4.7,88,0.00,,---,0.00,VWS V14.01,2013-04-04 11:20:00,
2013-04-04 06:21:00,32.2,29.0,28.85,NW,315,5.4,5.8,88,0.00,,---,0.00,VWS V14.01,2013-04-04 11:21:00,
2013-04-04 06:22:00,32.2,29.0,28.85,NW,315,5.4,5.4,88,0.00,,---,0.00,VWS V14.01,2013-04-04 11:22:00,
2013-04-04 06:23:00,32.2,28.8,28.85,WNW,292,4.9,5.8,87,0.00,,---,0.00,VWS V14.01,2013-04-04 11:23:00,
2013-04-04 06:24:00,32.2,28.8,28.85,WNW,292,5.6,7.6,87,0.00,,---,0.00,VWS V14.01,2013-04-04 11:24:00,
2013-04-04 06:25:00,32.2,28.8,28.85,NW,315,5.4,5.6,87,0.00,,---,0.00,VWS V14.01,2013-04-04 11:25:00,
2013-04-04 06:26:00,32.2,28.8,28.85,WNW,292,5.8,7.6,87,0.00,,---,0.00,VWS V14.01,2013-04-04 11:26:00,
2013-04-04 06:27:00,32.0,28.6,28.85,WNW,292,5.8,5.8,87,0.00,,---,0.00,VWS V14.01,2013-04-04 11:27:00,
2013-04-04 06:28:00,32.0,28.6,28.85,WNW,292,4.0,5.8,87,0.00,,---,0.00,VWS V14.01,2013-04-04 11:28:00,
2013-04-04 06:29:00,31.8,28.4,28.85,WNW,292,3.1,5.4,87,0.00,,---,0.00,VWS V14.01,2013-04-04 11:29:00,
2013-04-04 06:30:00,31.8,28.4,28.85,WNW,292,4.0,5.4,87,0.00,,---,0.00,VWS V14.01,2013-04-04 11:30:00,
2013-04-04 06:31:00,31.8,28.4,28.85,WNW,292,4.3,5.4,87,0.00,,---,0.00,VWS V14.01,2013-04-04 11:31:00,
2013-04-04 06:32:00,31.6,28.2,28.85,WNW,292,4.0,5.4,87,0.00,,---,0.00,VWS V14.01,2013-04-04 11:32:00,
2013-04-04 06:33:00,31.6,28.2,28.85,WNW,292,4.9,4.9,87,0.00,,---,0.00,VWS V14.01,2013-04-04 11:33:00,
2013-04-04 06:34:00,31.5,27.8,28.85,WNW,292,4.7,6.0,86,0.00,,---,0.00,VWS V14.01,2013-04-04 11:34:00,
2013-04-04 06:35:00,31.5,27.8,28.85,WNW,292,4.7,6.0,86,0.00,,---,0.00,VWS V14.01,2013-04-04 11:35:00,
2013-04-04 06:36:00,31.5,27.8,28.85,WNW,292,4.7,4.7,86,0.00,,---,0.00,VWS V14.01,2013-04-04 11:36:00,
2013-04-04 06:37:00,31.5,27.8,28.85,NW,315,5.4,7.2,86,0.00,,---,0.00,VWS V14.01,2013-04-04 11:37:00,
2013-04-04 06:38:00,31.5,27.8,28.85,WNW,292,4.3,5.8,86,0.00,,---,0.00,VWS V14.01,2013-04-04 11:38:00,
2013-04-04 06:39:00,31.3,27.6,28.85,NW,315,5.8,6.0,86,0.00,,---,0.00,VWS V14.01,2013-04-04 11:39:00,
2013-04-04 06:40:00,31.3,27.6,28.85,NW,315,5.8,6.0,86,0.00,,---,0.00,VWS V14.01,2013-04-04 11:40:00,
2013-04-04 06:41:00,31.3,27.6,28.85,WNW,292,6.0,6.0,86,0.00,,---,0.00,VWS V14.01,2013-04-04 11:41:00,
2013-04-04 06:42:00,31.3,27.6,28.85,WNW,292,4.3,6.0,86,0.00,,---,0.00,VWS V14.01,2013-04-04 11:42:00,
2013-04-04 06:43:00,31.1,27.4,28.85,NW,315,5.4,5.4,86,0.00,,---,0.00,VWS V14.01,2013-04-04 11:43:00,
2013-04-04 06:44:00,31.1,27.4,28.85,NW,315,5.6,6.5,86,0.00,,---,0.00,VWS V14.01,2013-04-04 11:44:00,
2013-04-04 06:45:00,31.1,27.4,28.85,NW,315,4.3,4.9,86,0.00,,---,0.00,VWS V14.01,2013-04-04 11:45:00,
2013-04-04 06:46:00,31.1,27.4,28.85,NW,315,5.6,6.5,86,0.00,,---,0.00,VWS V14.01,2013-04-04 11:46:00,
2013-04-04 06:47:00,31.1,27.4,28.85,WNW,292,4.0,6.5,86,0.00,,---,0.00,VWS V14.01,2013-04-04 11:47:00,
2013-04-04 06:48:00,31.1,27.4,28.85,WNW,292,5.8,5.8,86,0.00,,---,0.00,VWS V14.01,2013-04-04 11:48:00,
2013-04-04 06:49:00,31.1,27.4,28.85,WNW,292,5.4,6.0,86,0.00,,---,0.00,VWS V14.01,2013-04-04 11:49:00,
2013-04-04 06:50:00,31.1,27.4,28.85,NW,315,6.0,6.7,86,0.00,,---,0.00,VWS V14.01,2013-04-04 11:50:00,
2013-04-04 06:52:00,31.1,27.4,28.85,WNW,292,5.4,6.0,86,0.00,,---,0.00,VWS V14.01,2013-04-04 11:52:00,
2013-04-04 06:53:00,30.9,27.2,28.85,NW,315,4.0,5.8,86,0.00,,---,0.00,VWS V14.01,2013-04-04 11:53:00,
2013-04-04 06:54:00,30.9,27.0,28.85,WNW,292,4.0,4.9,85,0.00,,---,0.00,VWS V14.01,2013-04-04 11:54:00,
2013-04-04 06:55:00,30.9,27.2,28.85,NNW,338,4.9,5.6,86,0.00,,---,0.00,VWS V14.01,2013-04-04 11:55:00,
2013-04-04 06:56:00,30.9,27.0,28.85,WNW,292,4.0,4.9,85,0.00,,---,0.00,VWS V14.01,2013-04-04 11:56:00,
2013-04-04 06:57:00,30.7,26.8,28.85,NW,315,3.4,4.3,85,0.00,,---,0.00,VWS V14.01,2013-04-04 11:57:00,
2013-04-04 06:58:00,30.7,26.8,28.85,NW,315,4.0,4.9,85,0.00,,---,0.00,VWS V14.01,2013-04-04 11:58:00,
2013-04-04 06:59:00,30.6,26.6,28.85,WNW,292,4.0,4.3,85,0.00,,---,0.00,VWS V14.01,2013-04-04 11:59:00,
2013-04-04 07:00:00,30.7,26.8,28.85,WNW,292,4.3,5.6,85,0.00,,---,0.00,VWS V14.01,2013-04-04 12:00:00,
2013-04-04 07:01:00,30.6,26.6,28.85,WNW,292,4.0,4.3,85,0.00,,---,0.00,VWS V14.01,2013-04-04 12:01:00,
2013-04-04 07:02:00,30.6,26.6,28.85,NW,315,4.3,4.7,85,0.00,,---,0.00,VWS V14.01,2013-04-04 12:02:00,
2013-04-04 07:03:00,30.6,26.6,28.85,WNW,292,3.6,4.3,85,0.00,,---,0.00,VWS V14.01,2013-04-04 12:03:00,
2013-04-04 07:04:00,30.4,26.4,28.85,NW,315,4.0,4.7,85,0.00,,---,0.00,VWS V14.01,2013-04-04 12:04:00,
2013-04-04 07:05:00,30.6,26.6,28.85,NW,315,4.3,4.7,85,0.00,,---,0.00,VWS V14.01,2013-04-04 12:05:00,
2013-04-04 07:06:00,30.4,26.4,28.85,NW,315,4.0,4.7,85,0.00,,---,0.00,VWS V14.01,2013-04-04 12:06:00,
2013-04-04 07:07:00,30.4,26.4,28.85,WNW,292,4.9,4.9,85,0.00,,---,0.00,VWS V14.01,2013-04-04 12:07:00,
2013-04-04 07:08:00,30.4,26.4,28.85,WNW,292,4.3,5.8,85,0.00,,---,0.00,VWS V14.01,2013-04-04 12:08:00,
2013-04-04 07:09:00,30.4,26.4,28.85,WNW,292,3.4,4.9,85,0.00,,---,0.00,VWS V14.01,2013-04-04 12:09:00,
2013-04-04 07:10:00,30.4,26.4,28.85,WNW,292,4.9,4.9,85,0.00,,---,0.00,VWS V14.01,2013-04-04 12:10:00,
2013-04-04 07:11:00,30.4,26.4,28.85,WNW,292,3.4,4.9,85,0.00,,---,0.00,VWS V14.01,2013-04-04 12:11:00,
2013-04-04 07:12:00,30.2,26.2,28.85,WNW,292,4.0,4.0,85,0.00,,---,0.00,VWS V14.01,2013-04-04 12:12:00,
2013-04-04 07:13:00,30.2,26.2,28.85,WNW,292,5.4,5.4,85,0.00,,---,0.00,VWS V14.01,2013-04-04 12:13:00,
2013-04-04 07:14:00,30.2,26.2,28.85,NW,315,4.0,5.4,85,0.00,,---,0.00,VWS V14.01,2013-04-04 12:14:00,
2013-04-04 07:15:00,30.2,26.2,28.85,WNW,292,5.6,5.6,85,0.00,,---,0.00,VWS V14.01,2013-04-04 12:15:00,
2013-04-04 07:16:00,30.2,26.2,28.85,WNW,292,5.6,5.6,85,0.00,,---,0.00,VWS V14.01,2013-04-04 12:16:00,
2013-04-04 07:17:00,30.2,26.2,28.85,NW,315,4.3,6.0,85,0.00,,---,0.00,VWS V14.01,2013-04-04 12:17:00,
2013-04-04 07:18:00,30.2,26.2,28.85,WNW,292,3.6,4.3,85,0.00,,---,0.00,VWS V14.01,2013-04-04 12:18:00,
2013-04-04 07:19:00,30.2,26.2,28.85,WNW,292,3.4,3.6,85,0.00,,---,0.00,VWS V14.01,2013-04-04 12:19:00,
2013-04-04 07:20:00,30.2,26.2,28.85,WNW,292,5.8,5.8,85,0.00,,---,0.00,VWS V14.01,2013-04-04 12:20:00,
2013-04-04 07:21:00,30.2,26.2,28.85,NW,315,3.6,4.3,85,0.00,,---,0.00,VWS V14.01,2013-04-04 12:21:00,
2013-04-04 07:22:00,30.2,26.2,28.85,WNW,292,4.3,5.8,85,0.00,,---,0.00,VWS V14.01,2013-04-04 12:22:00,
2013-04-04 07:23:00,30.2,26.2,28.85,WNW,292,4.0,4.3,85,0.00,,---,0.00,VWS V14.01,2013-04-04 12:23:00,
2013-04-04 07:24:00,30.2,26.2,28.82,WNW,292,4.7,5.8,85,0.00,,---,0.00,VWS V14.01,2013-04-04 12:24:00,
2013-04-04 07:25:00,30.2,26.2,28.82,WNW,292,5.4,5.4,85,0.00,,---,0.00,VWS V14.01,2013-04-04 12:25:00,
2013-04-04 07:26:00,30.2,26.2,28.82,WNW,292,4.3,4.7,85,0.00,,---,0.00,VWS V14.01,2013-04-04 12:26:00,
2013-04-04 07:27:00,30.2,26.2,28.82,WNW,292,5.4,5.4,85,0.00,,---,0.00,VWS V14.01,2013-04-04 12:27:00,
2013-04-04 07:28:00,30.4,26.4,28.82,WNW,292,5.8,6.3,85,0.00,,---,0.00,VWS V14.01,2013-04-04 12:28:00,
2013-04-04 07:29:00,30.4,26.4,28.82,WNW,292,4.0,5.8,85,0.00,,---,0.00,VWS V14.01,2013-04-04 12:29:00,
2013-04-04 07:30:00,30.6,26.6,28.82,WNW,292,3.4,4.7,85,0.00,,---,0.00,VWS V14.01,2013-04-04 12:30:00,
2013-04-04 07:31:00,30.6,26.6,28.82,WNW,292,4.7,4.9,85,0.00,,---,0.00,VWS V14.01,2013-04-04 12:31:00,
2013-04-04 07:32:00,30.7,26.8,28.82,WNW,292,4.9,4.9,85,0.00,,---,0.00,VWS V14.01,2013-04-04 12:32:00,
2013-04-04 07:33:00,30.9,27.0,28.82,WNW,292,3.8,5.6,85,0.00,,---,0.00,VWS V14.01,2013-04-04 12:33:00,
2013-04-04 07:34:00,31.1,27.1,28.82,WNW,292,4.9,4.9,85,0.00,,---,0.00,VWS V14.01,2013-04-04 12:34:00,
2013-04-04 07:35:00,31.3,27.3,28.82,West,270,5.4,5.6,85,0.00,,---,0.00,VWS V14.01,2013-04-04 12:35:00,
2013-04-04 07:36:00,31.3,27.3,28.82,WNW,292,5.6,5.8,85,0.00,,---,0.00,VWS V14.01,2013-04-04 12:36:00,
2013-04-04 07:37:00,31.5,27.5,28.82,WNW,292,5.4,6.0,85,0.00,,---,0.00,VWS V14.01,2013-04-04 12:37:00,
2013-04-04 07:38:00,32.0,28.0,28.82,WNW,292,3.1,5.4,85,0.00,,---,0.00,VWS V14.01,2013-04-04 12:38:00,
2013-04-04 07:39:00,32.4,28.4,28.85,WNW,292,5.6,5.8,85,0.00,,---,0.00,VWS V14.01,2013-04-04 12:39:00,
2013-04-04 07:40:00,32.9,28.9,28.85,WNW,292,5.4,6.7,85,0.00,,---,0.00,VWS V14.01,2013-04-04 12:40:00,
2013-04-04 07:42:00,33.1,28.8,28.85,WNW,292,6.5,6.7,84,0.00,,---,0.00,VWS V14.01,2013-04-04 12:42:00,
2013-04-04 07:43:00,33.1,28.8,28.85,WNW,292,4.9,6.5,84,0.00,,---,0.00,VWS V14.01,2013-04-04 12:43:00,
2013-04-04 07:44:00,33.1,28.5,28.85,WNW,292,3.4,5.8,83,0.00,,---,0.00,VWS V14.01,2013-04-04 12:44:00,
2013-04-04 07:45:00,33.1,28.2,28.85,West,270,4.0,4.0,82,0.00,,---,0.00,VWS V14.01,2013-04-04 12:45:00,
2013-04-04 07:46:00,33.1,28.2,28.85,WNW,292,3.8,5.4,82,0.00,,---,0.00,VWS V14.01,2013-04-04 12:46:00,
2013-04-04 07:47:00,33.1,28.2,28.85,West,270,4.0,4.0,82,0.00,,---,0.00,VWS V14.01,2013-04-04 12:47:00,
2013-04-04 07:48:00,32.7,27.8,28.85,WNW,292,4.9,5.4,82,0.00,,---,0.00,VWS V14.01,2013-04-04 12:48:00,
2013-04-04 07:49:00,32.7,27.8,28.85,WNW,292,4.9,4.9,82,0.00,,---,0.00,VWS V14.01,2013-04-04 12:49:00,
2013-04-04 07:50:00,32.4,27.8,28.85,WSW,248,3.8,5.6,83,0.00,,---,0.00,VWS V14.01,2013-04-04 12:50:00,
2013-04-04 07:51:00,32.4,27.8,28.85,WNW,292,5.6,6.0,83,0.00,,---,0.00,VWS V14.01,2013-04-04 12:51:00,
2013-04-04 07:52:00,32.4,27.8,28.85,NW,315,4.0,5.6,83,0.00,,---,0.00,VWS V14.01,2013-04-04 12:52:00,
2013-04-04 07:53:00,32.5,28.0,28.85,NW,315,4.3,5.4,83,0.00,,---,0.00,VWS V14.01,2013-04-04 12:53:00,
2013-04-04 07:54:00,32.5,28.0,28.88,WNW,292,6.3,6.7,83,0.00,,---,0.00,VWS V14.01,2013-04-04 12:54:00,
2013-04-04 07:55:00,32.7,28.4,28.88,NNW,338,4.9,5.8,84,0.00,,---,0.00,VWS V14.01,2013-04-04 12:55:00,
2013-04-04 07:56:00,32.5,28.2,28.88,NW,315,5.8,6.5,84,0.00,,---,0.00,VWS V14.01,2013-04-04 12:56:00,
2013-04-04 07:57:00,32.7,28.4,28.88,NNW,338,4.9,5.8,84,0.00,,---,0.00,VWS V14.01,2013-04-04 12:57:00,
2013-04-04 07:58:00,33.1,28.8,28.88,NNW,338,6.3,7.4,84,0.00,,---,0.00,VWS V14.01,2013-04-04 12:58:00,
2013-04-04 07:59:00,33.3,29.0,28.88,NNW,338,5.6,8.5,84,0.00,,---,0.00,VWS V14.01,2013-04-04 12:59:00,
2013-04-04 08:00:00,33.3,28.7,28.88,NNW,338,6.5,7.8,83,0.00,,---,0.00,VWS V14.01,2013-04-04 13:00:00,
2013-04-04 08:01:00,33.3,28.7,28.88,NNW,338,6.5,7.8,83,0.00,,---,0.00,VWS V14.01,2013-04-04 13:01:00,
2013-04-04 08:02:00,33.3,28.7,28.88,NW,315,8.1,8.1,83,0.00,,---,0.00,VWS V14.01,2013-04-04 13:02:00,
2013-04-04 08:03:00,33.4,28.8,28.88,WNW,292,6.0,9.8,83,0.00,,---,0.00,VWS V14.01,2013-04-04 13:03:00,
2013-04-04 08:04:00,33.4,28.8,28.88,NNW,338,4.0,8.1,83,0.00,,---,0.00,VWS V14.01,2013-04-04 13:04:00,
2013-04-04 08:05:00,33.3,28.7,28.88,WNW,292,3.4,6.5,83,0.00,,---,0.00,VWS V14.01,2013-04-04 13:05:00,
2013-04-04 08:06:00,33.3,28.7,28.88,NNW,338,6.5,7.6,83,0.00,,---,0.00,VWS V14.01,2013-04-04 13:06:00,
2013-04-04 08:07:00,33.1,28.5,28.88,NW,315,5.4,6.5,83,0.00,,---,0.00,VWS V14.01,2013-04-04 13:07:00,
2013-04-04 08:08:00,33.1,28.5,28.88,NW,315,6.0,6.3,83,0.00,,---,0.00,VWS V14.01,2013-04-04 13:08:00,
2013-04-04 08:09:00,33.1,28.5,28.88,NNW,338,9.8,9.8,83,0.00,,---,0.00,VWS V14.01,2013-04-04 13:09:00,
2013-04-04 08:10:00,33.3,28.7,28.88,WNW,292,6.5,6.5,83,0.00,,---,0.00,VWS V14.01,2013-04-04 13:10:00,
2013-04-04 08:11:00,33.3,28.7,28.88,WNW,292,6.5,6.5,83,0.00,,---,0.00,VWS V14.01,2013-04-04 13:11:00,
2013-04-04 08:12:00,33.3,28.7,28.88,NNW,338,4.9,6.5,83,0.00,,---,0.00,VWS V14.01,2013-04-04 13:12:00,
2013-04-04 08:13:00,33.3,28.7,28.88,NW,315,6.0,8.1,83,0.00,,---,0.00,VWS V14.01,2013-04-04 13:13:00,
2013-04-04 08:14:00,33.3,28.7,28.88,NNW,338,4.0,7.6,83,0.00,,---,0.00,VWS V14.01,2013-04-04 13:14:00,
2013-04-04 08:15:00,33.4,28.8,28.88,WNW,292,6.0,11.2,83,0.00,,---,0.00,VWS V14.01,2013-04-04 13:15:00,
2013-04-04 08:16:00,33.4,28.8,28.88,NW,315,11.2,11.2,83,0.00,,---,0.00,VWS V14.01,2013-04-04 13:16:00,
2013-04-04 08:17:00,33.4,28.8,28.88,WNW,292,7.6,11.2,83,0.00,,---,0.00,VWS V14.01,2013-04-04 13:17:00,
2013-04-04 08:18:00,33.4,28.5,28.88,NNW,338,7.6,8.7,82,0.00,,---,0.00,VWS V14.01,2013-04-04 13:18:00,
2013-04-04 08:19:00,33.6,28.4,28.88,NW,315,5.6,7.6,81,0.00,,---,0.00,VWS V14.01,2013-04-04 13:19:00,
2013-04-04 08:20:00,33.6,28.4,28.88,WNW,292,5.6,7.6,81,0.00,,---,0.00,VWS V14.01,2013-04-04 13:20:00,
2013-04-04 08:21:00,33.6,28.4,28.88,NNW,338,7.6,7.6,81,0.00,,---,0.00,VWS V14.01,2013-04-04 13:21:00,
2013-04-04 08:22:00,33.6,28.4,28.88,NW,315,4.5,7.6,81,0.00,,---,0.00,VWS V14.01,2013-04-04 13:22:00,
2013-04-04 08:23:00,33.6,28.4,28.88,WNW,292,7.6,7.6,81,0.00,,---,0.00,VWS V14.01,2013-04-04 13:23:00,
2013-04-04 08:24:00,33.6,28.4,28.88,WNW,292,7.4,7.4,81,0.00,,---,0.00,VWS V14.01,2013-04-04 13:24:00,
2013-04-04 08:25:00,33.6,28.1,28.88,West,270,7.2,7.4,80,0.00,,---,0.00,VWS V14.01,2013-04-04 13:25:00,
2013-04-04 08:26:00,33.6,28.1,28.88,WNW,292,6.3,7.2,80,0.00,,---,0.00,VWS V14.01,2013-04-04 13:26:00,
2013-04-04 08:27:00,33.6,28.1,28.88,NNW,338,4.9,6.3,80,0.00,,---,0.00,VWS V14.01,2013-04-04 13:27:00,
2013-04-04 08:28:00,33.8,28.0,28.88,WNW,292,5.4,5.4,79,0.00,,---,0.00,VWS V14.01,2013-04-04 13:28:00,
2013-04-04 08:29:00,33.6,28.1,28.88,WNW,292,6.7,6.7,80,0.00,,---,0.00,VWS V14.01,2013-04-04 13:29:00,
2013-04-04 08:30:00,33.6,28.1,28.88,SW,225,4.9,6.7,80,0.00,,---,0.00,VWS V14.01,2013-04-04 13:30:00,
2013-04-04 08:31:00,33.8,28.0,28.88,WNW,292,5.6,5.6,79,0.00,,---,0.00,VWS V14.01,2013-04-04 13:31:00,
2013-04-04 08:32:00,33.8,28.0,28.88,West,270,4.0,5.6,79,0.00,,---,0.00,VWS V14.01,2013-04-04 13:32:00,
2013-04-04 08:33:00,33.8,28.0,28.88,WNW,292,4.0,4.0,79,0.00,,---,0.00,VWS V14.01,2013-04-04 13:33:00,
2013-04-04 08:34:00,33.8,28.0,28.88,WNW,292,7.4,7.4,79,0.00,,---,0.00,VWS V14.01,2013-04-04 13:34:00,
2013-04-04 08:35:00,33.8,28.0,28.88,WNW,292,4.0,7.4,79,0.00,,---,0.00,VWS V14.01,2013-04-04 13:35:00,
2013-04-04 08:36:00,34.0,28.2,28.88,WNW,292,6.5,6.5,79,0.00,,---,0.00,VWS V14.01,2013-04-04 13:36:00,
2013-04-04 08:37:00,34.0,28.2,28.88,WNW,292,7.6,7.6,79,0.00,,---,0.00,VWS V14.01,2013-04-04 13:37:00,
2013-04-04 08:38:00,34.0,28.2,28.88,WSW,248,5.4,7.6,79,0.00,,---,0.00,VWS V14.01,2013-04-04 13:38:00,
2013-04-04 08:39:00,34.0,28.2,28.88,WNW,292,6.5,6.5,79,0.00,,---,0.00,VWS V14.01,2013-04-04 13:39:00,
2013-04-04 08:40:00,34.0,28.2,28.88,NW,315,5.6,6.5,79,0.00,,---,0.00,VWS V14.01,2013-04-04 13:40:00,
2013-04-04 08:41:00,34.0,28.2,28.88,NNW,338,3.1,5.6,79,0.00,,---,0.00,VWS V14.01,2013-04-04 13:41:00,
2013-04-04 08:42:00,34.2,28.3,28.88,WNW,292,5.8,5.8,79,0.00,,---,0.00,VWS V14.01,2013-04-04 13:42:00,
2013-04-04 08:43:00,34.2,28.3,28.88,NW,315,6.3,6.3,79,0.00,,---,0.00,VWS V14.01,2013-04-04 13:43:00,
2013-04-04 08:44:00,34.3,28.2,28.88,NW,315,6.0,6.3,78,0.00,,---,0.00,VWS V14.01,2013-04-04 13:44:00,
2013-04-04 08:45:00,34.3,28.2,28.88,WNW,292,5.8,6.0,78,0.00,,---,0.00,VWS V14.01,2013-04-04 13:45:00,
2013-04-04 08:46:00,34.3,28.2,28.88,NNE,22,7.6,7.6,78,0.00,,---,0.00,VWS V14.01,2013-04-04 13:46:00,
2013-04-04 08:47:00,34.3,28.2,28.88,NW,315,7.8,7.8,78,0.00,,---,0.00,VWS V14.01,2013-04-04 13:47:00,
2013-04-04 08:48:00,34.3,28.2,28.88,NW,315,8.5,8.5,78,0.00,,---,0.00,VWS V14.01,2013-04-04 13:48:00,
2013-04-04 08:49:00,34.3,28.2,28.88,NW,315,9.8,9.8,78,0.00,,---,0.00,VWS V14.01,2013-04-04 13:49:00,
2013-04-04 08:50:00,34.3,27.9,28.88,WNW,292,5.8,9.8,77,0.00,,---,0.00,VWS V14.01,2013-04-04 13:50:00,
2013-04-04 08:51:00,34.5,28.1,28.88,NW,315,7.6,7.6,77,0.00,,---,0.00,VWS V14.01,2013-04-04 13:51:00,
2013-04-04 08:52:00,34.5,28.1,28.88,NNW,338,7.6,7.6,77,0.00,,---,0.00,VWS V14.01,2013-04-04 13:52:00,
2013-04-04 08:53:00,34.5,28.1,28.88,NW,315,7.6,7.6,77,0.00,,---,0.00,VWS V14.01,2013-04-04 13:53:00,
2013-04-04 08:54:00,34.5,28.1,28.88,NW,315,6.5,7.6,77,0.00,,---,0.00,VWS V14.01,2013-04-04 13:54:00,
2013-04-04 08:55:00,34.5,28.1,28.88,NW,315,8.1,8.1,77,0.00,,---,0.00,VWS V14.01,2013-04-04 13:55:00,
2013-04-04 08:56:00,34.5,27.8,28.88,WNW,292,7.8,8.1,76,0.00,,---,0.00,VWS V14.01,2013-04-04 13:56:00,
2013-04-04 08:57:00,34.5,27.8,28.88,NNW,338,8.7,8.7,76,0.00,,---,0.00,VWS V14.01,2013-04-04 13:57:00,
2013-04-04 08:58:00,34.5,27.8,28.88,WNW,292,9.0,9.0,76,0.00,,---,0.00,VWS V14.01,2013-04-04 13:58:00,
2013-04-04 08:59:00,34.5,27.8,28.88,WNW,292,11.0,11.0,76,0.00,,---,0.00,VWS V14.01,2013-04-04 13:59:00,
2013-04-04 09:00:00,34.7,27.9,28.88,NNW,338,7.8,11.0,76,0.00,,---,0.00,VWS V14.01,2013-04-04 14:00:00,
2013-04-04 09:01:00,34.7,27.9,28.88,North,0,6.0,7.8,76,0.00,,---,0.00,VWS V14.01,2013-04-04 14:01:00,
2013-04-04 09:02:00,34.7,27.9,28.88,NNW,338,8.5,8.5,76,0.00,,---,0.00,VWS V14.01,2013-04-04 14:02:00,
2013-04-04 12:34:00,34.7,27.9,28.88,NNW,338,8.5,8.5,76,0.00,,---,0.00,VWS V14.01,2013-04-04 17:34:00,
2013-04-04 12:35:00,34.7,27.9,28.88,NNW,338,8.5,8.5,76,0.00,,---,0.00,VWS V14.01,2013-04-04 17:35:00,
2013-04-04 12:36:00,46.2,28.6,28.88,NNW,338,6.5,8.5,50,0.00,,---,0.00,VWS V14.01,2013-04-04 17:36:00,
2013-04-04 12:37:00,46.2,28.6,28.88,NNW,338,10.3,10.3,50,0.00,,---,0.00,VWS V14.01,2013-04-04 17:37:00,
2013-04-04 12:39:00,46.2,28.6,28.88,WNW,292,3.6,6.0,50,0.00,,---,0.00,VWS V14.01,2013-04-04 17:39:00,
2013-04-04 12:40:00,46.2,28.6,28.88,NW,315,6.0,10.3,50,0.00,,---,0.00,VWS V14.01,2013-04-04 17:40:00,
2013-04-04 12:41:00,46.4,28.3,28.91,NW,315,10.5,10.5,49,0.00,,---,0.00,VWS V14.01,2013-04-04 17:41:00,
2013-04-04 12:42:00,46.0,28.0,28.91,NNW,338,7.4,10.5,49,0.00,,---,0.00,VWS V14.01,2013-04-04 17:42:00,
2013-04-04 12:43:00,46.0,28.0,28.91,NNW,338,7.4,7.4,49,0.00,,---,0.00,VWS V14.01,2013-04-04 17:43:00,
2013-04-04 12:44:00,46.0,28.0,28.91,North,0,9.8,9.8,49,0.00,,---,0.00,VWS V14.01,2013-04-04 17:44:00,
2013-04-04 12:45:00,46.0,28.0,28.91,NNW,338,8.1,9.8,49,0.00,,---,0.00,VWS V14.01,2013-04-04 17:45:00,
2013-04-04 12:46:00,46.4,28.3,28.91,NNW,338,6.7,9.8,49,0.00,,---,0.00,VWS V14.01,2013-04-04 17:46:00,
2013-04-04 12:47:00,46.4,28.3,28.91,NNW,338,12.3,12.3,49,0.00,,---,0.00,VWS V14.01,2013-04-04 17:47:00,
2013-04-04 12:48:00,46.2,28.6,28.91,NW,315,9.0,12.8,50,0.00,,---,0.00,VWS V14.01,2013-04-04 17:48:00,
2013-04-04 12:49:00,46.2,28.1,28.91,NW,315,8.7,12.3,49,0.00,,---,0.00,VWS V14.01,2013-04-04 17:49:00,
2013-04-04 12:50:00,46.2,28.6,28.91,NNW,338,8.7,8.7,50,0.00,,---,0.00,VWS V14.01,2013-04-04 17:50:00,
2013-04-04 12:51:00,46.2,28.1,28.91,NW,315,10.3,12.3,49,0.00,,---,0.00,VWS V14.01,2013-04-04 17:51:00,
2013-04-04 12:52:00,46.2,28.1,28.91,NW,315,7.8,13.0,49,0.00,,---,0.00,VWS V14.01,2013-04-04 17:52:00,
2013-04-04 12:53:00,45.9,27.8,28.91,NNW,338,10.1,11.0,49,0.00,,---,0.00,VWS V14.01,2013-04-04 17:53:00,
2013-04-04 12:54:00,46.2,28.1,28.91,WNW,292,8.7,12.1,49,0.00,,---,0.00,VWS V14.01,2013-04-04 17:54:00,
2013-04-04 12:56:00,46.2,28.1,28.91,WNW,292,8.7,12.1,49,0.00,,---,0.00,VWS V14.01,2013-04-04 17:56:00,
2013-04-04 12:57:00,46.2,28.1,28.91,NW,315,15.9,15.9,49,0.00,,---,0.00,VWS V14.01,2013-04-04 17:57:00,
2013-04-04 12:58:00,46.2,28.1,28.91,NNW,338,10.3,15.9,49,0.00,,---,0.00,VWS V14.01,2013-04-04 17:58:00,
2013-04-04 12:59:00,46.0,28.0,28.91,NNW,338,12.1,12.5,49,0.00,,---,0.00,VWS V14.01,2013-04-04 17:59:00,
2013-04-04 13:00:00,46.2,28.1,28.91,NNW,338,6.5,6.5,49,0.00,,---,0.00,VWS V14.01,2013-04-04 18:00:00,
2013-04-04 13:01:00,46.0,28.0,28.91,NNW,338,6.5,12.5,49,0.00,,---,0.00,VWS V14.01,2013-04-04 18:01:00,
2013-04-04 13:02:00,46.2,28.1,28.91,NW,315,10.7,10.7,49,0.00,,---,0.00,VWS V14.01,2013-04-04 18:02:00,
2013-04-04 13:03:00,46.2,28.1,28.91,NW,315,6.5,10.7,49,0.00,,---,0.00,VWS V14.01,2013-04-04 18:03:00,
2013-04-04 13:04:00,46.4,28.3,28.91,NW,315,10.5,13.6,49,0.00,,---,0.00,VWS V14.01,2013-04-04 18:04:00,
2013-04-04 13:05:00,46.4,28.3,28.91,NNW,338,13.6,13.6,49,0.00,,---,0.00,VWS V14.01,2013-04-04 18:05:00,
2013-04-04 13:06:00,46.4,28.3,28.91,NNW,338,10.5,13.6,49,0.00,,---,0.00,VWS V14.01,2013-04-04 18:06:00,
2013-04-04 13:07:00,46.4,28.3,28.91,NW,315,12.1,13.2,49,0.00,,---,0.00,VWS V14.01,2013-04-04 18:07:00,
2013-04-04 13:08:00,46.2,28.1,28.91,NNW,338,6.3,14.5,49,0.00,,---,0.00,VWS V14.01,2013-04-04 18:08:00,
2013-04-04 13:09:00,45.9,27.8,28.91,NNW,338,7.4,7.8,49,0.00,,---,0.00,VWS V14.01,2013-04-04 18:09:00,
2013-04-04 13:10:00,46.0,28.0,28.91,NNW,338,6.3,10.5,49,0.00,,---,0.00,VWS V14.01,2013-04-04 18:10:00,
2013-04-04 13:11:00,45.9,27.8,28.91,NNW,338,7.4,7.8,49,0.00,,---,0.00,VWS V14.01,2013-04-04 18:11:00,
2013-04-04 13:12:00,46.0,28.0,28.91,NW,315,11.4,11.4,49,0.00,,---,0.00,VWS V14.01,2013-04-04 18:12:00,
2013-04-04 13:13:00,46.2,28.1,28.91,NNW,338,11.9,11.9,49,0.00,,---,0.00,VWS V14.01,2013-04-04 18:13:00,
2013-04-04 13:14:00,45.9,27.3,28.91,WNW,292,15.2,15.2,48,0.00,,---,0.00,VWS V14.01,2013-04-04 18:14:00,
2013-04-04 13:16:00,45.9,27.3,28.91,WNW,292,15.2,15.2,48,0.00,,---,0.00,VWS V14.01,2013-04-04 18:16:00,
2013-04-04 13:17:00,45.9,27.8,28.91,NW,315,10.3,15.2,49,0.00,,---,0.00,VWS V14.01,2013-04-04 18:17:00,
2013-04-04 13:18:00,46.0,27.5,28.91,NW,315,13.0,13.0,48,0.00,,---,0.00,VWS V14.01,2013-04-04 18:18:00,
2013-04-04 13:19:00,46.0,27.5,28.91,NNW,338,8.7,13.9,48,0.00,,---,0.00,VWS V14.01,2013-04-04 18:19:00,
2013-04-04 13:20:00,46.0,27.5,28.91,WNW,292,8.7,16.3,48,0.00,,---,0.00,VWS V14.01,2013-04-04 18:20:00,
2013-04-04 13:21:00,46.0,27.5,28.91,NNW,338,8.7,13.9,48,0.00,,---,0.00,VWS V14.01,2013-04-04 18:21:00,
2013-04-04 13:22:00,46.0,27.5,28.91,North,0,10.1,12.3,48,0.00,,---,0.00,VWS V14.01,2013-04-04 18:22:00,
2013-04-04 13:23:00,45.9,27.3,28.91,NW,315,10.1,12.5,48,0.00,,---,0.00,VWS V14.01,2013-04-04 18:23:00,
2013-04-04 13:24:00,46.4,27.8,28.91,North,0,10.1,10.1,48,0.00,,---,0.00,VWS V14.01,2013-04-04 18:24:00,
2013-04-04 13:25:00,46.4,27.8,28.91,NNW,338,7.6,11.4,48,0.00,,---,0.00,VWS V14.01,2013-04-04 18:25:00,
2013-04-04 13:26:00,46.4,27.8,28.91,NW,315,10.1,10.1,48,0.00,,---,0.00,VWS V14.01,2013-04-04 18:26:00,
2013-04-04 13:27:00,46.4,27.8,28.91,NNW,338,10.1,12.1,48,0.00,,---,0.00,VWS V14.01,2013-04-04 18:27:00,
2013-04-04 13:28:00,46.2,27.1,28.91,NNW,338,7.6,12.3,47,0.00,,---,0.00,VWS V14.01,2013-04-04 18:28:00,
2013-04-04 13:29:00,46.4,27.3,28.91,North,0,7.8,7.8,47,0.00,,---,0.00,VWS V14.01,2013-04-04 18:29:00,
2013-04-04 13:30:00,46.2,27.1,28.91,NNW,338,11.0,11.0,47,0.00,,---,0.00,VWS V14.01,2013-04-04 18:30:00,
2013-04-04 13:31:00,46.4,27.3,28.91,North,0,7.8,13.0,47,0.00,,---,0.00,VWS V14.01,2013-04-04 18:31:00,
2013-04-04 13:32:00,46.2,27.1,28.91,NNW,338,10.3,10.7,47,0.00,,---,0.00,VWS V14.01,2013-04-04 18:32:00,
2013-04-04 13:33:00,46.2,27.1,28.91,WNW,292,9.8,10.7,47,0.00,,---,0.00,VWS V14.01,2013-04-04 18:33:00,
2013-04-04 13:34:00,46.4,27.3,28.91,NW,315,6.7,12.5,47,0.00,,---,0.00,VWS V14.01,2013-04-04 18:34:00,
2013-04-04 13:35:00,46.4,27.3,28.91,NW,315,6.7,12.5,47,0.00,,---,0.00,VWS V14.01,2013-04-04 18:35:00,
2013-04-04 13:36:00,46.4,27.3,28.91,NW,315,6.7,6.7,47,0.00,,---,0.00,VWS V14.01,2013-04-04 18:36:00,
2013-04-04 13:37:00,46.4,27.3,28.91,NNW,338,9.8,14.5,47,0.00,,---,0.00,VWS V14.01,2013-04-04 18:37:00,
2013-04-04 13:38:00,46.4,26.8,28.91,North,0,6.5,11.0,46,0.00,,---,0.00,VWS V14.01,2013-04-04 18:38:00,
2013-04-04 13:39:00,46.6,26.9,28.91,NNW,338,8.5,8.5,46,0.00,,---,0.00,VWS V14.01,2013-04-04 18:39:00,
2013-04-04 13:40:00,46.6,26.9,28.91,NNW,338,7.4,9.8,46,0.00,,---,0.00,VWS V14.01,2013-04-04 18:40:00,
2013-04-04 13:41:00,46.6,26.9,28.91,NNW,338,8.5,8.5,46,0.00,,---,0.00,VWS V14.01,2013-04-04 18:41:00,
2013-04-04 13:42:00,46.9,27.2,28.91,NNW,338,10.1,10.3,46,0.00,,---,0.00,VWS V14.01,2013-04-04 18:42:00,
2013-04-04 13:43:00,46.8,27.1,28.91,NNW,338,9.8,12.5,46,0.00,,---,0.00,VWS V14.01,2013-04-04 18:43:00,
2013-04-04 13:44:00,46.9,27.2,28.91,NW,315,13.4,13.4,46,0.00,,---,0.00,VWS V14.01,2013-04-04 18:44:00,
2013-04-04 13:45:00,46.4,26.8,28.91,NNW,338,13.2,13.2,46,0.00,,---,0.00,VWS V14.01,2013-04-04 18:45:00,
2013-04-04 13:46:00,46.4,26.8,28.91,NNW,338,11.9,14.5,46,0.00,,---,0.00,VWS V14.01,2013-04-04 18:46:00,
2013-04-04 13:47:00,46.6,26.9,28.91,NNW,338,8.7,13.2,46,0.00,,---,0.00,VWS V14.01,2013-04-04 18:47:00,
2013-04-04 13:48:00,46.6,26.9,28.91,ENE,68,7.8,10.7,46,0.00,,---,0.00,VWS V14.01,2013-04-04 18:48:00,
2013-04-04 13:49:00,46.6,26.9,28.91,NW,315,9.6,9.6,46,0.00,,---,0.00,VWS V14.01,2013-04-04 18:49:00,
2013-04-04 13:50:00,46.8,27.1,28.91,NW,315,10.1,12.1,46,0.00,,---,0.00,VWS V14.01,2013-04-04 18:50:00,
2013-04-04 13:51:00,46.8,27.1,28.91,NNW,338,12.1,12.3,46,0.00,,---,0.00,VWS V14.01,2013-04-04 18:51:00,
2013-04-04 13:52:00,46.9,26.7,28.91,WNW,292,10.5,12.5,45,0.00,,---,0.00,VWS V14.01,2013-04-04 18:52:00,
2013-04-04 13:53:00,46.8,27.1,28.91,NNW,338,10.3,12.5,46,0.00,,---,0.00,VWS V14.01,2013-04-04 18:53:00,
2013-04-04 13:54:00,46.8,27.1,28.91,NNW,338,11.0,12.5,46,0.00,,---,0.00,VWS V14.01,2013-04-04 18:54:00,
2013-04-04 13:55:00,46.8,27.1,28.91,NNW,338,10.3,10.3,46,0.00,,---,0.00,VWS V14.01,2013-04-04 18:55:00,
2013-04-04 13:56:00,46.8,27.1,28.91,NNW,338,6.3,10.1,46,0.00,,---,0.00,VWS V14.01,2013-04-04 18:56:00,
2013-04-04 13:57:00,47.1,27.4,28.91,SE,135,6.9,10.3,46,0.00,,---,0.00,VWS V14.01,2013-04-04 18:57:00,
2013-04-04 13:58:00,47.3,27.6,28.91,NNW,338,12.5,12.5,46,0.00,,---,0.00,VWS V14.01,2013-04-04 18:58:00,
2013-04-04 13:59:00,47.3,27.6,28.91,NNW,338,10.1,15.4,46,0.00,,---,0.00,VWS V14.01,2013-04-04 18:59:00,
2013-04-04 14:00:00,46.9,26.7,28.91,NNW,338,13.0,13.0,45,0.00,,---,0.00,VWS V14.01,2013-04-04 19:00:00,
2013-04-04 14:01:00,46.9,26.7,28.91,NNW,338,10.3,12.8,45,0.00,,---,0.00,VWS V14.01,2013-04-04 19:01:00,
2013-04-04 14:02:00,46.9,26.7,28.91,NNW,338,10.3,13.0,45,0.00,,---,0.00,VWS V14.01,2013-04-04 19:02:00,
2013-04-04 14:04:00,46.9,26.7,28.91,North,0,10.7,10.7,45,0.00,,---,0.00,VWS V14.01,2013-04-04 19:04:00,
2013-04-04 14:05:00,46.8,26.6,28.91,NNE,22,6.3,8.1,45,0.00,,---,0.00,VWS V14.01,2013-04-04 19:05:00,
2013-04-04 14:06:00,46.6,26.4,28.91,North,0,8.1,12.8,45,0.00,,---,0.00,VWS V14.01,2013-04-04 19:06:00,
2013-04-04 14:07:00,46.8,26.6,28.91,NNE,22,11.0,11.0,45,0.00,,---,0.00,VWS V14.01,2013-04-04 19:07:00,
2013-04-04 14:08:00,46.8,26.6,28.91,NNW,338,9.8,15.4,45,0.00,,---,0.00,VWS V14.01,2013-04-04 19:08:00,
2013-04-04 14:09:00,46.6,25.9,28.91,North,0,10.3,13.2,44,0.00,,---,0.00,VWS V14.01,2013-04-04 19:09:00,
2013-04-04 14:10:00,46.8,26.6,28.91,NNW,338,7.8,10.3,45,0.00,,---,0.00,VWS V14.01,2013-04-04 19:10:00,
2013-04-04 14:11:00,46.8,26.6,28.91,NW,315,10.3,10.3,45,0.00,,---,0.00,VWS V14.01,2013-04-04 19:11:00,
2013-04-04 14:12:00,46.8,26.6,28.91,NNW,338,7.8,10.3,45,0.00,,---,0.00,VWS V14.01,2013-04-04 19:12:00,
2013-04-04 14:13:00,46.8,26.6,28.91,NNW,338,12.1,12.1,45,0.00,,---,0.00,VWS V14.01,2013-04-04 19:13:00,
2013-04-04 14:14:00,46.9,26.7,28.91,NNW,338,8.1,12.8,45,0.00,,---,0.00,VWS V14.01,2013-04-04 19:14:00,
2013-04-04 14:15:00,46.9,26.7,28.91,NNE,22,10.3,10.5,45,0.00,,---,0.00,VWS V14.01,2013-04-04 19:15:00,
2013-04-04 14:16:00,47.1,27.4,28.91,NNW,338,10.5,10.5,46,0.00,,---,0.00,VWS V14.01,2013-04-04 19:16:00,
2013-04-04 14:18:00,46.9,26.7,28.91,NNE,22,6.0,10.5,45,0.00,,---,0.00,VWS V14.01,2013-04-04 19:18:00,
2013-04-04 14:19:00,47.1,26.9,28.91,North,0,8.5,8.5,45,0.00,,---,0.00,VWS V14.01,2013-04-04 19:19:00,
2013-04-04 14:20:00,47.3,27.0,28.91,North,0,6.3,12.8,45,0.00,,---,0.00,VWS V14.01,2013-04-04 19:20:00,
2013-04-04 14:21:00,47.1,26.9,28.91,North,0,12.8,12.8,45,0.00,,---,0.00,VWS V14.01,2013-04-04 19:21:00,
2013-04-04 14:22:00,47.3,27.0,28.91,North,0,6.3,12.8,45,0.00,,---,0.00,VWS V14.01,2013-04-04 19:22:00,
2013-04-04 14:23:00,47.5,27.2,28.91,NNE,22,7.6,10.1,45,0.00,,---,0.00,VWS V14.01,2013-04-04 19:23:00,
2013-04-04 14:24:00,47.7,27.4,28.91,North,0,11.0,11.0,45,0.00,,---,0.00,VWS V14.01,2013-04-04 19:24:00,
2013-04-04 14:25:00,47.1,25.8,28.91,WSW,248,10.1,10.1,43,0.00,,---,0.00,VWS V14.01,2013-04-04 19:25:00,
2013-04-04 14:26:00,47.5,26.7,28.91,North,0,8.7,10.3,44,0.00,,---,0.00,VWS V14.01,2013-04-04 19:26:00,
2013-04-04 14:27:00,47.1,25.8,28.91,NNW,338,10.7,10.7,43,0.00,,---,0.00,VWS V14.01,2013-04-04 19:27:00,
2013-04-04 14:28:00,46.8,25.5,28.91,NNW,338,12.3,15.2,43,0.00,,---,0.00,VWS V14.01,2013-04-04 19:28:00,
2013-04-04 14:29:00,46.6,25.3,28.91,NNW,338,12.5,12.5,43,0.00,,---,0.00,VWS V14.01,2013-04-04 19:29:00,
2013-04-04 14:30:00,46.6,25.3,28.91,NNW,338,8.1,8.1,43,0.00,,---,0.00,VWS V14.01,2013-04-04 19:30:00,
2013-04-04 14:31:00,46.6,25.3,28.91,NNW,338,8.1,12.3,43,0.00,,---,0.00,VWS V14.01,2013-04-04 19:31:00,
2013-04-04 14:32:00,46.6,25.3,28.91,NNW,338,8.1,8.1,43,0.00,,---,0.00,VWS V14.01,2013-04-04 19:32:00,
2013-04-04 14:33:00,46.6,25.9,28.91,North,0,8.1,8.7,44,0.00,,---,0.00,VWS V14.01,2013-04-04 19:33:00,
2013-04-04 14:34:00,46.8,25.5,28.91,North,0,10.1,15.4,43,0.00,,---,0.00,VWS V14.01,2013-04-04 19:34:00,
2013-04-04 14:35:00,46.9,25.6,28.91,NNW,338,9.8,9.8,43,0.00,,---,0.00,VWS V14.01,2013-04-04 19:35:00,
2013-04-04 14:36:00,46.9,25.6,28.91,NNW,338,9.8,9.8,43,0.00,,---,0.00,VWS V14.01,2013-04-04 19:36:00,
2013-04-04 14:37:00,46.9,25.6,28.91,NNW,338,8.1,9.8,43,0.00,,---,0.00,VWS V14.01,2013-04-04 19:37:00,
2013-04-04 14:38:00,46.6,25.9,28.91,North,0,11.0,11.0,44,0.00,,---,0.00,VWS V14.01,2013-04-04 19:38:00,
2013-04-04 14:39:00,46.6,25.9,28.88,NNW,338,17.5,17.5,44,0.00,,---,0.00,VWS V14.01,2013-04-04 19:39:00,
2013-04-04 14:40:00,46.2,25.5,28.88,NNW,338,10.3,12.5,44,0.00,,---,0.00,VWS V14.01,2013-04-04 19:40:00,
2013-04-04 14:41:00,46.2,25.5,28.88,NNW,338,12.5,15.2,44,0.00,,---,0.00,VWS V14.01,2013-04-04 19:41:00,
2013-04-04 14:42:00,46.2,25.5,28.88,NNW,338,10.3,12.5,44,0.00,,---,0.00,VWS V14.01,2013-04-04 19:42:00,
2013-04-04 14:43:00,46.6,25.9,28.88,NNW,338,10.7,17.2,44,0.00,,---,0.00,VWS V14.01,2013-04-04 19:43:00,
2013-04-04 14:44:00,46.4,25.7,28.88,NNW,338,8.5,11.4,44,0.00,,---,0.00,VWS V14.01,2013-04-04 19:44:00,
2013-04-04 14:45:00,45.7,25.0,28.88,NNW,338,11.0,13.6,44,0.00,,---,0.00,VWS V14.01,2013-04-04 19:45:00,
2013-04-04 14:46:00,45.9,25.2,28.88,NNW,338,10.5,13.2,44,0.00,,---,0.00,VWS V14.01,2013-04-04 19:46:00,
2013-04-04 14:47:00,45.5,24.9,28.88,NNW,338,11.0,13.6,44,0.00,,---,0.00,VWS V14.01,2013-04-04 19:47:00,
2013-04-04 14:48:00,45.3,24.7,28.88,North,0,10.7,17.7,44,0.00,,---,0.00,VWS V14.01,2013-04-04 19:48:00,
2013-04-04 14:50:00,44.4,23.9,28.88,North,0,17.7,17.7,44,0.00,,---,0.00,VWS V14.01,2013-04-04 19:50:00,
2013-04-04 14:51:00,45.1,24.5,28.88,NW,315,9.6,13.2,44,0.00,,---,0.00,VWS V14.01,2013-04-04 19:51:00,
2013-04-04 14:52:00,44.4,23.9,28.88,North,0,14.8,17.7,44,0.00,,---,0.00,VWS V14.01,2013-04-04 19:52:00,
2013-04-04 14:53:00,44.4,23.9,28.88,NNW,338,13.0,14.8,44,0.00,,---,0.00,VWS V14.01,2013-04-04 19:53:00,
2013-04-04 14:54:00,43.9,23.4,28.88,NNW,338,14.5,17.7,44,0.00,,---,0.00,VWS V14.01,2013-04-04 19:54:00,
2013-04-04 14:55:00,43.9,23.4,28.88,North,0,17.2,17.2,44,0.00,,---,0.00,VWS V14.01,2013-04-04 19:55:00,
2013-04-04 14:56:00,43.9,23.9,28.88,NNW,338,10.1,13.2,45,0.00,,---,0.00,VWS V14.01,2013-04-04 19:56:00,
2013-04-04 14:57:00,43.9,23.4,28.88,NNW,338,10.7,17.2,44,0.00,,---,0.00,VWS V14.01,2013-04-04 19:57:00,
2013-04-04 14:58:00,43.7,23.8,28.88,NNW,338,13.2,15.2,45,0.00,,---,0.00,VWS V14.01,2013-04-04 19:58:00,
2013-04-04 14:59:00,43.7,23.8,28.88,NNW,338,10.5,13.2,45,0.00,,---,0.00,VWS V14.01,2013-04-04 19:59:00,
2013-04-04 15:00:00,44.1,24.1,28.88,NNW,338,10.5,14.3,45,0.00,,---,0.00,VWS V14.01,2013-04-04 20:00:00,
2013-04-04 15:01:00,43.9,23.9,28.88,North,0,14.3,14.3,45,0.00,,---,0.00,VWS V14.01,2013-04-04 20:01:00,
2013-04-04 15:02:00,44.2,24.3,28.88,NNW,338,17.9,17.9,45,0.00,,---,0.00,VWS V14.01,2013-04-04 20:02:00,
2013-04-04 15:03:00,44.2,24.3,28.88,NW,315,17.0,17.9,45,0.00,,---,0.00,VWS V14.01,2013-04-04 20:03:00,
2013-04-04 15:05:00,43.7,23.2,28.88,WNW,292,12.1,13.2,44,0.00,,---,0.00,VWS V14.01,2013-04-04 20:05:00,
2013-04-04 15:06:00,43.9,23.4,28.88,NNW,338,13.2,15.2,44,0.00,,---,0.00,VWS V14.01,2013-04-04 20:06:00,
2013-04-04 15:07:00,43.7,23.2,28.88,WNW,292,12.1,13.2,44,0.00,,---,0.00,VWS V14.01,2013-04-04 20:07:00,
2013-04-04 15:08:00,43.7,23.2,28.88,NNW,338,15.4,15.4,44,0.00,,---,0.00,VWS V14.01,2013-04-04 20:08:00,
2013-04-04 15:09:00,43.7,23.8,28.91,NNW,338,12.8,15.4,45,0.00,,---,0.00,VWS V14.01,2013-04-04 20:09:00,
2013-04-04 15:10:00,43.5,23.6,28.91,NNW,338,8.7,13.6,45,0.00,,---,0.00,VWS V14.01,2013-04-04 20:10:00,
2013-04-04 15:11:00,43.7,23.8,28.91,NNW,338,12.3,15.9,45,0.00,,---,0.00,VWS V14.01,2013-04-04 20:11:00,
2013-04-04 15:12:00,43.5,23.6,28.91,NNW,338,8.7,13.6,45,0.00,,---,0.00,VWS V14.01,2013-04-04 20:12:00,
2013-04-04 15:13:00,43.5,23.6,28.91,North,0,10.3,19.7,45,0.00,,---,0.00,VWS V14.01,2013-04-04 20:13:00,
2013-04-04 15:14:00,43.5,23.6,28.91,NNW,338,13.2,13.2,45,0.00,,---,0.00,VWS V14.01,2013-04-04 20:14:00,
2013-04-04 15:15:00,43.7,23.2,28.91,NNW,338,15.7,15.7,44,0.00,,---,0.00,VWS V14.01,2013-04-04 20:15:00,
2013-04-04 15:16:00,43.7,24.3,28.91,NNW,338,8.5,14.3,46,0.00,,---,0.00,VWS V14.01,2013-04-04 20:16:00,
2013-04-04 15:17:00,43.5,23.6,28.91,NNW,338,15.7,15.7,45,0.00,,---,0.00,VWS V14.01,2013-04-04 20:17:00,
2013-04-04 15:18:00,43.5,23.6,28.91,NNW,338,12.8,16.3,45,0.00,,---,0.00,VWS V14.01,2013-04-04 20:18:00,
2013-04-04 15:19:00,43.3,23.4,28.91,NNW,338,12.1,15.4,45,0.00,,---,0.00,VWS V14.01,2013-04-04 20:19:00,
2013-04-04 15:20:00,43.3,23.4,28.91,NNW,338,10.1,15.2,45,0.00,,---,0.00,VWS V14.01,2013-04-04 20:20:00,
2013-04-04 15:21:00,43.3,23.4,28.91,NNW,338,8.7,12.5,45,0.00,,---,0.00,VWS V14.01,2013-04-04 20:21:00,
2013-04-04 15:22:00,43.3,23.4,28.91,NW,315,7.8,15.2,45,0.00,,---,0.00,VWS V14.01,2013-04-04 20:22:00,
2013-04-04 15:23:00,43.3,23.4,28.91,NNW,338,8.1,10.1,45,0.00,,---,0.00,VWS V14.01,2013-04-04 20:23:00,
2013-04-04 15:24:00,43.3,23.4,28.91,NNW,338,15.4,15.4,45,0.00,,---,0.00,VWS V14.01,2013-04-04 20:24:00,
2013-04-04 15:25:00,43.0,23.1,28.91,NW,315,12.1,15.4,45,0.00,,---,0.00,VWS V14.01,2013-04-04 20:25:00,
2013-04-04 15:26:00,43.0,23.1,28.91,NNW,338,15.4,15.4,45,0.00,,---,0.00,VWS V14.01,2013-04-04 20:26:00,
2013-04-04 15:27:00,43.0,23.1,28.91,NW,315,12.1,15.4,45,0.00,,---,0.00,VWS V14.01,2013-04-04 20:27:00,
2013-04-04 15:28:00,43.0,23.1,28.91,NNW,338,15.7,15.7,45,0.00,,---,0.00,VWS V14.01,2013-04-04 20:28:00,
2013-04-04 15:29:00,43.0,23.1,28.91,NNW,338,14.3,18.1,45,0.00,,---,0.00,VWS V14.01,2013-04-04 20:29:00,
2013-04-04 15:30:00,43.0,23.6,28.91,NNW,338,13.2,13.2,46,0.00,,---,0.00,VWS V14.01,2013-04-04 20:30:00,
2013-04-04 15:31:00,43.0,23.6,28.91,NNW,338,10.1,13.6,46,0.00,,---,0.00,VWS V14.01,2013-04-04 20:31:00,
2013-04-04 15:32:00,43.0,23.6,28.91,NNW,338,13.2,13.2,46,0.00,,---,0.00,VWS V14.01,2013-04-04 20:32:00,
2013-04-04 15:33:00,43.0,23.6,28.91,NNW,338,10.3,14.3,46,0.00,,---,0.00,VWS V14.01,2013-04-04 20:33:00,
2013-04-04 15:34:00,43.0,23.6,28.91,NNW,338,19.7,19.7,46,0.00,,---,0.00,VWS V14.01,2013-04-04 20:34:00,
2013-04-04 15:35:00,42.8,23.0,28.91,NNW,338,15.7,17.7,45,0.00,,---,0.00,VWS V14.01,2013-04-04 20:35:00,
2013-04-04 15:36:00,43.0,23.6,28.91,NNW,338,17.7,17.7,46,0.00,,---,0.00,VWS V14.01,2013-04-04 20:36:00,
2013-04-04 15:37:00,42.8,23.0,28.91,NNW,338,15.7,17.7,45,0.00,,---,0.00,VWS V14.01,2013-04-04 20:37:00,
2013-04-04 15:38:00,42.8,23.0,28.91,NW,315,8.7,15.7,45,0.00,,---,0.00,VWS V14.01,2013-04-04 20:38:00,
2013-04-04 15:39:00,43.0,23.6,28.88,NW,315,9.8,12.5,46,0.00,,---,0.00,VWS V14.01,2013-04-04 20:39:00,
2013-04-04 15:40:00,42.8,23.5,28.88,NNW,338,7.6,11.0,46,0.00,,---,0.00,VWS V14.01,2013-04-04 20:40:00,
2013-04-04 15:41:00,42.8,23.5,28.88,NNW,338,8.1,12.8,46,0.00,,---,0.00,VWS V14.01,2013-04-04 20:41:00,
2013-04-04 15:42:00,42.8,23.5,28.88,NNW,338,7.6,11.0,46,0.00,,---,0.00,VWS V14.01,2013-04-04 20:42:00,
2013-04-04 15:43:00,42.8,23.5,28.88,NNW,338,9.4,11.4,46,0.00,,---,0.00,VWS V14.01,2013-04-04 20:43:00,
2013-04-04 15:45:00,43.0,23.6,28.88,NNE,22,5.6,5.6,46,0.00,,---,0.00,VWS V14.01,2013-04-04 20:45:00,
2013-04-04 15:46:00,43.0,23.6,28.88,NNW,338,11.0,12.3,46,0.00,,---,0.00,VWS V14.01,2013-04-04 20:46:00,
2013-04-04 15:47:00,43.0,23.6,28.88,NNE,22,5.6,13.2,46,0.00,,---,0.00,VWS V14.01,2013-04-04 20:47:00,
2013-04-04 15:48:00,43.0,23.6,28.88,NNW,338,8.7,9.4,46,0.00,,---,0.00,VWS V14.01,2013-04-04 20:48:00,
2013-04-04 15:49:00,43.0,24.1,28.88,NNW,338,9.8,13.6,47,0.00,,---,0.00,VWS V14.01,2013-04-04 20:49:00,
2013-04-04 15:50:00,42.4,23.6,28.88,WNW,292,11.0,11.0,47,0.00,,---,0.00,VWS V14.01,2013-04-04 20:50:00,
2013-04-04 15:51:00,42.6,23.8,28.88,NNW,338,12.5,12.5,47,0.00,,---,0.00,VWS V14.01,2013-04-04 20:51:00,
2013-04-04 15:52:00,42.4,23.6,28.88,NW,315,11.0,12.5,47,0.00,,---,0.00,VWS V14.01,2013-04-04 20:52:00,
2013-04-04 15:53:00,42.4,23.6,28.88,North,0,14.3,14.3,47,0.00,,---,0.00,VWS V14.01,2013-04-04 20:53:00,
2013-04-04 15:54:00,42.4,23.6,28.91,NW,315,19.7,19.7,47,0.00,,---,0.00,VWS V14.01,2013-04-04 20:54:00,
2013-04-04 15:55:00,42.4,23.6,28.91,NNW,338,10.3,10.3,47,0.00,,---,0.00,VWS V14.01,2013-04-04 20:55:00,
2013-04-04 15:56:00,42.3,23.0,28.91,NW,315,10.3,13.2,46,0.00,,---,0.00,VWS V14.01,2013-04-04 20:56:00,
2013-04-04 15:57:00,42.4,23.6,28.91,NNW,338,10.3,10.3,47,0.00,,---,0.00,VWS V14.01,2013-04-04 20:57:00,
2013-04-04 15:58:00,42.4,23.1,28.91,NNW,338,12.8,13.2,46,0.00,,---,0.00,VWS V14.01,2013-04-04 20:58:00,
2013-04-04 15:59:00,42.3,23.0,28.91,NNW,338,10.5,12.8,46,0.00,,---,0.00,VWS V14.01,2013-04-04 20:59:00,
2013-04-04 16:00:00,41.9,22.6,28.91,NNW,338,10.1,10.1,46,0.00,,---,0.00,VWS V14.01,2013-04-04 21:00:00,
2013-04-04 16:01:00,42.3,23.0,28.91,NNW,338,12.3,12.3,46,0.00,,---,0.00,VWS V14.01,2013-04-04 21:01:00,
2013-04-04 16:02:00,41.9,22.6,28.91,NNW,338,10.1,12.3,46,0.00,,---,0.00,VWS V14.01,2013-04-04 21:02:00,
2013-04-04 16:03:00,42.1,23.3,28.91,WNW,292,8.1,12.1,47,0.00,,---,0.00,VWS V14.01,2013-04-04 21:03:00,
2013-04-04 16:04:00,42.1,23.3,28.91,NNW,338,8.1,9.6,47,0.00,,---,0.00,VWS V14.01,2013-04-04 21:04:00,
2013-04-04 16:05:00,42.4,23.1,28.91,North,0,12.8,12.8,46,0.00,,---,0.00,VWS V14.01,2013-04-04 21:05:00,
2013-04-04 16:06:00,42.3,23.0,28.91,NNW,338,12.8,14.8,46,0.00,,---,0.00,VWS V14.01,2013-04-04 21:06:00,
2013-04-04 16:07:00,42.4,23.1,28.91,NNW,338,10.3,12.8,46,0.00,,---,0.00,VWS V14.01,2013-04-04 21:07:00,
2013-04-04 16:09:00,42.4,23.1,28.91,NNW,338,9.2,16.3,46,0.00,,---,0.00,VWS V14.01,2013-04-04 21:09:00,
2013-04-04 16:10:00,42.4,23.1,28.91,NNW,338,9.0,14.5,46,0.00,,---,0.00,VWS V14.01,2013-04-04 21:10:00,
2013-04-04 16:11:00,42.3,23.0,28.91,NNW,338,10.1,13.2,46,0.00,,---,0.00,VWS V14.01,2013-04-04 21:11:00,
2013-04-04 16:12:00,42.3,23.0,28.91,NNW,338,13.2,13.2,46,0.00,,---,0.00,VWS V14.01,2013-04-04 21:12:00,
2013-04-04 16:13:00,42.1,22.8,28.91,NNW,338,12.5,13.2,46,0.00,,---,0.00,VWS V14.01,2013-04-04 21:13:00,
2013-04-04 16:14:00,42.1,22.8,28.91,NNE,22,7.4,12.8,46,0.00,,---,0.00,VWS V14.01,2013-04-04 21:14:00,
2013-04-04 16:15:00,42.1,22.8,28.91,NNW,338,10.5,10.5,46,0.00,,---,0.00,VWS V14.01,2013-04-04 21:15:00,
2013-04-04 16:16:00,42.1,22.8,28.91,NNW,338,14.5,14.5,46,0.00,,---,0.00,VWS V14.01,2013-04-04 21:16:00,
2013-04-04 16:17:00,42.1,22.8,28.91,NNW,338,14.5,14.5,46,0.00,,---,0.00,VWS V14.01,2013-04-04 21:17:00,
2013-04-04 16:18:00,42.1,22.8,28.91,NNW,338,10.1,14.5,46,0.00,,---,0.00,VWS V14.01,2013-04-04 21:18:00,
2013-04-04 16:19:00,42.1,22.8,28.91,North,0,15.7,15.7,46,0.00,,---,0.00,VWS V14.01,2013-04-04 21:19:00,
2013-04-04 16:20:00,42.1,23.3,28.91,NNW,338,5.8,15.7,47,0.00,,---,0.00,VWS V14.01,2013-04-04 21:20:00,
2013-04-04 16:21:00,42.3,23.5,28.91,NNW,338,8.1,8.1,47,0.00,,---,0.00,VWS V14.01,2013-04-04 21:21:00,
2013-04-04 16:22:00,42.3,23.5,28.91,NNW,338,8.1,10.3,47,0.00,,---,0.00,VWS V14.01,2013-04-04 21:22:00,
2013-04-04 16:23:00,42.3,23.5,28.91,NNW,338,10.5,12.8,47,0.00,,---,0.00,VWS V14.01,2013-04-04 21:23:00,
2013-04-04 16:24:00,42.3,23.5,28.91,NNW,338,13.2,13.2,47,0.00,,---,0.00,VWS V14.01,2013-04-04 21:24:00,
2013-04-04 16:25:00,42.3,23.5,28.91,NNW,338,13.0,19.5,47,0.00,,---,0.00,VWS V14.01,2013-04-04 21:25:00,
2013-04-04 16:26:00,42.4,23.1,28.91,NNW,338,10.7,12.5,46,0.00,,---,0.00,VWS V14.01,2013-04-04 21:26:00,
2013-04-04 16:27:00,42.4,23.1,28.91,NNW,338,12.5,12.8,46,0.00,,---,0.00,VWS V14.01,2013-04-04 21:27:00,
2013-04-04 16:28:00,42.4,23.1,28.91,NW,315,10.5,13.6,46,0.00,,---,0.00,VWS V14.01,2013-04-04 21:28:00,
2013-04-04 16:29:00,42.4,23.1,28.91,NNW,338,10.3,14.5,46,0.00,,---,0.00,VWS V14.01,2013-04-04 21:29:00,
2013-04-04 16:30:00,42.4,23.1,28.91,NNW,338,11.0,12.1,46,0.00,,---,0.00,VWS V14.01,2013-04-04 21:30:00,
2013-04-04 16:31:00,42.3,23.0,28.91,North,0,8.1,16.8,46,0.00,,---,0.00,VWS V14.01,2013-04-04 21:31:00,
2013-04-04 16:32:00,42.3,23.5,28.91,NNW,338,16.8,16.8,47,0.00,,---,0.00,VWS V14.01,2013-04-04 21:32:00,
2013-04-04 16:33:00,42.3,23.0,28.91,NNW,338,10.7,16.8,46,0.00,,---,0.00,VWS V14.01,2013-04-04 21:33:00,
2013-04-04 16:34:00,42.3,23.0,28.91,NNW,338,8.7,14.8,46,0.00,,---,0.00,VWS V14.01,2013-04-04 21:34:00,
2013-04-04 16:35:00,42.3,23.5,28.91,NNW,338,5.8,13.2,47,0.00,,---,0.00,VWS V14.01,2013-04-04 21:35:00,
2013-04-04 16:36:00,42.3,23.5,28.91,NNW,338,9.0,9.8,47,0.00,,---,0.00,VWS V14.01,2013-04-04 21:36:00,
2013-04-04 16:37:00,42.3,23.5,28.91,North,0,9.8,10.5,47,0.00,,---,0.00,VWS V14.01,2013-04-04 21:37:00,
2013-04-04 16:38:00,41.9,22.6,28.91,NNW,338,9.8,9.8,46,0.00,,---,0.00,VWS V14.01,2013-04-04 21:38:00,
2013-04-04 16:39:00,41.7,23.0,28.88,NNW,338,8.7,12.3,47,0.00,,---,0.00,VWS V14.01,2013-04-04 21:39:00,
2013-04-04 16:40:00,41.5,22.8,28.88,NNW,338,12.5,12.5,47,0.00,,---,0.00,VWS V14.01,2013-04-04 21:40:00,
2013-04-04 16:41:00,41.4,22.7,28.88,NNW,338,13.0,13.0,47,0.00,,---,0.00,VWS V14.01,2013-04-04 21:41:00,
2013-04-04 16:42:00,41.4,22.7,28.88,North,0,10.1,13.2,47,0.00,,---,0.00,VWS V14.01,2013-04-04 21:42:00,
2013-04-04 16:43:00,41.4,22.7,28.88,NNW,338,14.5,14.5,47,0.00,,---,0.00,VWS V14.01,2013-04-04 21:43:00,
2013-04-04 16:44:00,41.5,22.8,28.88,NNW,338,6.3,14.5,47,0.00,,---,0.00,VWS V14.01,2013-04-04 21:44:00,
2013-04-04 16:45:00,41.5,22.8,28.88,NNW,338,7.2,12.8,47,0.00,,---,0.00,VWS V14.01,2013-04-04 21:45:00,
2013-04-04 16:46:00,41.0,22.3,28.88,NNW,338,9.2,11.0,47,0.00,,---,0.00,VWS V14.01,2013-04-04 21:46:00,
2013-04-04 16:47:00,41.2,23.0,28.88,NW,315,11.0,11.0,48,0.00,,---,0.00,VWS V14.01,2013-04-04 21:47:00,
2013-04-04 16:48:00,41.0,22.3,28.88,NNW,338,9.8,11.0,47,0.00,,---,0.00,VWS V14.01,2013-04-04 21:48:00,
2013-04-04 16:49:00,40.6,22.5,28.88,NNW,338,12.5,14.8,48,0.00,,---,0.00,VWS V14.01,2013-04-04 21:49:00,
2013-04-04 16:50:00,40.8,22.7,28.88,NNW,338,10.1,12.5,48,0.00,,---,0.00,VWS V14.01,2013-04-04 21:50:00,
2013-04-04 16:51:00,41.0,22.3,28.88,NNW,338,10.5,13.4,47,0.00,,---,0.00,VWS V14.01,2013-04-04 21:51:00,
2013-04-04 16:52:00,41.0,22.3,28.88,NNW,338,13.4,13.4,47,0.00,,---,0.00,VWS V14.01,2013-04-04 21:52:00,
2013-04-04 16:53:00,41.2,23.0,28.88,NNW,338,8.1,13.4,48,0.00,,---,0.00,VWS V14.01,2013-04-04 21:53:00,
2013-04-04 16:54:00,41.4,23.2,28.88,NNW,338,11.4,12.5,48,0.00,,---,0.00,VWS V14.01,2013-04-04 21:54:00,
2013-04-04 16:55:00,41.4,22.7,28.91,WNW,292,10.5,12.5,47,0.00,,---,0.00,VWS V14.01,2013-04-04 21:55:00,
2013-04-04 16:56:00,41.4,22.1,28.91,North,0,8.1,8.1,46,0.00,,---,0.00,VWS V14.01,2013-04-04 21:56:00,
2013-04-04 16:57:00,41.4,22.1,28.91,North,0,8.1,12.3,46,0.00,,---,0.00,VWS V14.01,2013-04-04 21:57:00,
2013-04-04 16:58:00,41.5,22.8,28.91,NNW,338,12.8,12.8,47,0.00,,---,0.00,VWS V14.01,2013-04-04 21:58:00,
2013-04-04 16:59:00,41.5,22.8,28.91,NNW,338,13.2,13.2,47,0.00,,---,0.00,VWS V14.01,2013-04-04 21:59:00,
2013-04-04 17:00:00,41.5,22.8,28.91,NNE,22,10.5,13.2,47,0.00,,---,0.00,VWS V14.01,2013-04-04 22:00:00,
2013-04-04 17:01:00,41.5,22.3,28.91,NNW,338,15.2,15.2,46,0.00,,---,0.00,VWS V14.01,2013-04-04 22:01:00,
2013-04-04 17:02:00,41.5,22.3,28.91,NNW,338,15.2,15.2,46,0.00,,---,0.00,VWS V14.01,2013-04-04 22:02:00,
2013-04-04 17:03:00,41.5,22.3,28.91,NNW,338,9.8,15.2,46,0.00,,---,0.00,VWS V14.01,2013-04-04 22:03:00,
2013-04-04 17:04:00,41.5,22.3,28.91,NNW,338,10.7,10.7,46,0.00,,---,0.00,VWS V14.01,2013-04-04 22:04:00,
2013-04-04 17:05:00,41.5,22.8,28.91,NW,315,12.5,12.5,47,0.00,,---,0.00,VWS V14.01,2013-04-04 22:05:00,
2013-04-04 17:06:00,41.7,22.5,28.91,NNW,338,7.4,12.8,46,0.00,,---,0.00,VWS V14.01,2013-04-04 22:06:00,
2013-04-04 17:07:00,41.7,22.5,28.91,North,0,12.8,12.8,46,0.00,,---,0.00,VWS V14.01,2013-04-04 22:07:00,
2013-04-04 17:08:00,41.7,22.5,28.91,NNW,338,7.4,12.8,46,0.00,,---,0.00,VWS V14.01,2013-04-04 22:08:00,
2013-04-04 17:09:00,41.7,22.5,28.91,NNW,338,13.2,13.2,46,0.00,,---,0.00,VWS V14.01,2013-04-04 22:09:00,
2013-04-04 17:10:00,41.7,22.5,28.91,NNW,338,13.6,13.6,46,0.00,,---,0.00,VWS V14.01,2013-04-04 22:10:00,
2013-04-04 17:11:00,41.9,22.6,28.91,NNW,338,8.1,10.5,46,0.00,,---,0.00,VWS V14.01,2013-04-04 22:11:00,
2013-04-04 17:12:00,41.9,22.6,28.91,NNW,338,10.5,14.5,46,0.00,,---,0.00,VWS V14.01,2013-04-04 22:12:00,
2013-04-04 17:13:00,41.9,22.6,28.91,NNW,338,8.1,10.5,46,0.00,,---,0.00,VWS V14.01,2013-04-04 22:13:00,
2013-04-04 17:14:00,41.9,22.6,28.91,NNW,338,7.4,11.0,46,0.00,,---,0.00,VWS V14.01,2013-04-04 22:14:00,
2013-04-04 17:15:00,41.9,22.6,28.91,NW,315,10.5,10.7,46,0.00,,---,0.00,VWS V14.01,2013-04-04 22:15:00,
2013-04-04 17:16:00,41.9,22.6,28.91,NNW,338,11.0,12.3,46,0.00,,---,0.00,VWS V14.01,2013-04-04 22:16:00,
2013-04-04 17:17:00,41.9,22.1,28.91,WNW,292,11.0,14.3,45,0.00,,---,0.00,VWS V14.01,2013-04-04 22:17:00,
2013-04-04 17:18:00,41.9,22.6,28.91,NNW,338,13.2,13.2,46,0.00,,---,0.00,VWS V14.01,2013-04-04 22:18:00,
2013-04-04 17:19:00,42.1,22.3,28.91,NNW,338,10.7,13.2,45,0.00,,---,0.00,VWS V14.01,2013-04-04 22:19:00,
2013-04-04 17:20:00,42.1,22.8,28.91,North,0,7.6,10.7,46,0.00,,---,0.00,VWS V14.01,2013-04-04 22:20:00,
2013-04-04 17:21:00,42.4,22.6,28.91,NNW,338,7.6,7.6,45,0.00,,---,0.00,VWS V14.01,2013-04-04 22:21:00,
2013-04-04 17:22:00,42.3,23.0,28.91,North,0,6.0,6.0,46,0.00,,---,0.00,VWS V14.01,2013-04-04 22:22:00,
2013-04-04 17:23:00,42.4,22.6,28.91,NNW,338,7.6,7.6,45,0.00,,---,0.00,VWS V14.01,2013-04-04 22:23:00,
2013-04-04 17:24:00,42.3,22.5,28.91,North,0,11.0,11.0,45,0.00,,---,0.00,VWS V14.01,2013-04-04 22:24:00,
2013-04-04 17:25:00,42.1,22.3,28.91,NNW,338,9.8,11.0,45,0.00,,---,0.00,VWS V14.01,2013-04-04 22:25:00,
2013-04-04 17:26:00,42.1,22.3,28.91,North,0,11.2,11.2,45,0.00,,---,0.00,VWS V14.01,2013-04-04 22:26:00,
2013-04-04 17:27:00,42.3,22.5,28.91,NNW,338,8.7,8.7,45,0.00,,---,0.00,VWS V14.01,2013-04-04 22:27:00,
2013-04-04 17:28:00,42.3,22.5,28.91,NNW,338,8.7,8.7,45,0.00,,---,0.00,VWS V14.01,2013-04-04 22:28:00,
2013-04-04 17:29:00,42.4,23.1,28.91,North,0,5.6,8.7,46,0.00,,---,0.00,VWS V14.01,2013-04-04 22:29:00,
2013-04-04 17:30:00,42.6,23.3,28.91,NNE,22,5.8,5.8,46,0.00,,---,0.00,VWS V14.01,2013-04-04 22:30:00,
2013-04-04 17:31:00,42.6,23.3,28.91,NNW,338,8.1,10.3,46,0.00,,---,0.00,VWS V14.01,2013-04-04 22:31:00,
2013-04-04 17:32:00,42.8,23.0,28.91,NNW,338,6.3,6.5,45,0.00,,---,0.00,VWS V14.01,2013-04-04 22:32:00,
2013-04-04 17:33:00,42.6,23.3,28.91,NNW,338,6.5,9.6,46,0.00,,---,0.00,VWS V14.01,2013-04-04 22:33:00,
2013-04-04 17:34:00,42.8,23.0,28.91,NW,315,5.4,8.7,45,0.00,,---,0.00,VWS V14.01,2013-04-04 22:34:00,
2013-04-04 17:35:00,42.8,23.0,28.91,NNW,338,10.3,10.3,45,0.00,,---,0.00,VWS V14.01,2013-04-04 22:35:00,
2013-04-04 17:36:00,42.4,22.6,28.91,NNW,338,10.3,10.3,45,0.00,,---,0.00,VWS V14.01,2013-04-04 22:36:00,
2013-04-04 17:37:00,42.1,22.8,28.91,West,270,8.7,8.7,46,0.00,,---,0.00,VWS V14.01,2013-04-04 22:37:00,
2013-04-04 17:38:00,42.1,22.8,28.91,West,270,8.7,11.0,46,0.00,,---,0.00,VWS V14.01,2013-04-04 22:38:00,
2013-04-04 17:39:00,42.1,22.8,28.91,North,0,12.5,12.5,46,0.00,,---,0.00,VWS V14.01,2013-04-04 22:39:00,
2013-04-04 17:40:00,41.9,22.6,28.91,NNW,338,10.7,12.5,46,0.00,,---,0.00,VWS V14.01,2013-04-04 22:40:00,
2013-04-04 17:42:00,41.7,22.5,28.91,NNW,338,7.6,8.5,46,0.00,,---,0.00,VWS V14.01,2013-04-04 22:42:00,
2013-04-04 17:43:00,41.7,22.5,28.91,NNW,338,7.8,8.5,46,0.00,,---,0.00,VWS V14.01,2013-04-04 22:43:00,
2013-04-04 17:44:00,41.7,22.5,28.91,NNW,338,7.8,7.8,46,0.00,,---,0.00,VWS V14.01,2013-04-04 22:44:00,
2013-04-04 17:45:00,41.4,22.1,28.91,NNW,338,7.8,10.3,46,0.00,,---,0.00,VWS V14.01,2013-04-04 22:45:00,
2013-04-04 17:46:00,41.2,22.0,28.91,NNW,338,10.1,10.1,46,0.00,,---,0.00,VWS V14.01,2013-04-04 22:46:00,
2013-04-04 17:47:00,41.0,21.8,28.91,NNW,338,8.1,10.1,46,0.00,,---,0.00,VWS V14.01,2013-04-04 22:47:00,
2013-04-04 17:48:00,41.0,21.8,28.91,NNW,338,10.1,11.0,46,0.00,,---,0.00,VWS V14.01,2013-04-04 22:48:00,
2013-04-04 17:49:00,41.0,22.8,28.91,NNW,338,7.4,10.1,48,0.00,,---,0.00,VWS V14.01,2013-04-04 22:49:00,
2013-04-04 17:50:00,41.0,22.8,28.91,NNW,338,10.7,11.0,48,0.00,,---,0.00,VWS V14.01,2013-04-04 22:50:00,
2013-04-04 17:51:00,40.8,22.7,28.91,NNW,338,8.1,12.1,48,0.00,,---,0.00,VWS V14.01,2013-04-04 22:51:00,
2013-04-04 17:52:00,40.6,22.5,28.91,NNW,338,10.7,12.5,48,0.00,,---,0.00,VWS V14.01,2013-04-04 22:52:00,
2013-04-04 17:53:00,40.6,22.5,28.91,NNW,338,12.5,14.5,48,0.00,,---,0.00,VWS V14.01,2013-04-04 22:53:00,
2013-04-04 17:54:00,40.6,22.5,28.91,NNW,338,9.8,12.5,48,0.00,,---,0.00,VWS V14.01,2013-04-04 22:54:00,
2013-04-04 17:55:00,40.5,22.3,28.91,NNW,338,7.8,10.7,48,0.00,,---,0.00,VWS V14.01,2013-04-04 22:55:00,
2013-04-04 17:56:00,40.5,22.3,28.91,North,0,8.1,10.5,48,0.00,,---,0.00,VWS V14.01,2013-04-04 22:56:00,
2013-04-04 17:57:00,40.3,22.2,28.91,NNW,338,8.5,8.7,48,0.00,,---,0.00,VWS V14.01,2013-04-04 22:57:00,
2013-04-04 17:58:00,40.3,22.2,28.91,NNW,338,8.7,9.2,48,0.00,,---,0.00,VWS V14.01,2013-04-04 22:58:00,
2013-04-04 17:59:00,40.3,22.2,28.91,NNW,338,10.3,10.3,48,0.00,,---,0.00,VWS V14.01,2013-04-04 22:59:00,
2013-04-04 18:00:00,40.3,22.2,28.91,NNW,338,9.8,10.7,48,0.00,,---,0.00,VWS V14.01,2013-04-04 23:00:00,
2013-04-04 18:01:00,40.3,22.2,28.91,NNW,338,7.6,9.8,48,0.00,,---,0.00,VWS V14.01,2013-04-04 23:01:00,
2013-04-04 18:02:00,40.1,22.0,28.91,NNW,338,10.5,11.0,48,0.00,,---,0.00,VWS V14.01,2013-04-04 23:02:00,
2013-04-04 18:03:00,40.3,22.2,28.91,NNW,338,11.0,11.0,48,0.00,,---,0.00,VWS V14.01,2013-04-04 23:03:00,
2013-04-04 18:04:00,40.1,22.0,28.91,NNW,338,7.6,11.0,48,0.00,,---,0.00,VWS V14.01,2013-04-04 23:04:00,
2013-04-04 18:05:00,39.9,22.3,28.91,NNW,338,10.1,10.1,49,0.00,,---,0.00,VWS V14.01,2013-04-04 23:05:00,
2013-04-04 18:07:00,39.9,22.3,28.91,NNW,338,8.1,8.5,49,0.00,,---,0.00,VWS V14.01,2013-04-04 23:07:00,
2013-04-04 18:08:00,39.9,22.3,28.91,NNW,338,8.5,8.5,49,0.00,,---,0.00,VWS V14.01,2013-04-04 23:08:00,
2013-04-04 18:09:00,39.9,22.3,28.91,NNW,338,12.8,12.8,49,0.00,,---,0.00,VWS V14.01,2013-04-04 23:09:00,
2013-04-04 18:10:00,39.7,21.7,28.91,NNW,338,9.8,12.8,48,0.00,,---,0.00,VWS V14.01,2013-04-04 23:10:00,
2013-04-04 18:11:00,39.6,21.5,28.91,NNW,338,12.5,12.5,48,0.00,,---,0.00,VWS V14.01,2013-04-04 23:11:00,
2013-04-04 18:12:00,39.4,21.3,28.91,NW,315,9.6,9.6,48,0.00,,---,0.00,VWS V14.01,2013-04-04 23:12:00,
2013-04-04 18:13:00,39.4,21.3,28.91,NW,315,6.5,10.3,48,0.00,,---,0.00,VWS V14.01,2013-04-04 23:13:00,
2013-04-04 18:14:00,39.4,21.3,28.91,NW,315,9.6,9.6,48,0.00,,---,0.00,VWS V14.01,2013-04-04 23:14:00,
2013-04-04 18:16:00,39.4,21.3,28.91,NNW,338,12.3,12.3,48,0.00,,---,0.00,VWS V14.01,2013-04-04 23:16:00,
2013-04-04 18:17:00,39.4,20.8,28.91,NW,315,9.8,9.8,47,0.00,,---,0.00,VWS V14.01,2013-04-04 23:17:00,
2013-04-04 18:18:00,39.6,21.5,28.91,North,0,7.2,13.0,48,0.00,,---,0.00,VWS V14.01,2013-04-04 23:18:00,
2013-04-04 18:19:00,39.4,20.8,28.91,NNW,338,10.3,10.3,47,0.00,,---,0.00,VWS V14.01,2013-04-04 23:19:00,
2013-04-04 18:20:00,39.4,21.3,28.91,NNW,338,11.0,11.0,48,0.00,,---,0.00,VWS V14.01,2013-04-04 23:20:00,
2013-04-04 18:21:00,39.4,21.3,28.91,NW,315,8.5,11.0,48,0.00,,---,0.00,VWS V14.01,2013-04-04 23:21:00,
2013-04-04 18:22:00,39.2,21.2,28.91,North,0,12.3,12.3,48,0.00,,---,0.00,VWS V14.01,2013-04-04 23:22:00,
2013-04-04 18:23:00,39.2,21.2,28.91,NW,315,9.0,9.0,48,0.00,,---,0.00,VWS V14.01,2013-04-04 23:23:00,
2013-04-04 18:24:00,39.2,21.2,28.91,NNW,338,12.3,12.3,48,0.00,,---,0.00,VWS V14.01,2013-04-04 23:24:00,
2013-04-04 18:25:00,39.0,20.5,28.91,NNW,338,10.7,12.3,47,0.00,,---,0.00,VWS V14.01,2013-04-04 23:25:00,
2013-04-04 18:26:00,38.8,20.4,28.91,NNW,338,11.0,11.0,47,0.00,,---,0.00,VWS V14.01,2013-04-04 23:26:00,
2013-04-04 18:27:00,38.5,20.0,28.91,NNW,338,7.8,12.5,47,0.00,,---,0.00,VWS V14.01,2013-04-04 23:27:00,
2013-04-04 18:28:00,38.5,20.0,28.91,NNW,338,12.5,13.0,47,0.00,,---,0.00,VWS V14.01,2013-04-04 23:28:00,
2013-04-04 18:29:00,38.5,20.0,28.91,NNW,338,12.5,14.5,47,0.00,,---,0.00,VWS V14.01,2013-04-04 23:29:00,
2013-04-04 18:30:00,38.5,20.0,28.91,NNW,338,10.3,12.5,47,0.00,,---,0.00,VWS V14.01,2013-04-04 23:30:00,
2013-04-04 18:31:00,38.5,19.5,28.91,NNW,338,10.3,10.3,46,0.00,,---,0.00,VWS V14.01,2013-04-04 23:31:00,
2013-04-04 18:32:00,38.1,19.2,28.91,North,0,11.0,12.8,46,0.00,,---,0.00,VWS V14.01,2013-04-04 23:32:00,
2013-04-04 18:33:00,38.1,19.2,28.91,NNW,338,12.8,12.8,46,0.00,,---,0.00,VWS V14.01,2013-04-04 23:33:00,
2013-04-04 18:34:00,38.1,19.2,28.91,NNW,338,12.3,12.8,46,0.00,,---,0.00,VWS V14.01,2013-04-04 23:34:00,
2013-04-04 18:35:00,38.1,19.2,28.91,North,0,10.5,12.3,46,0.00,,---,0.00,VWS V14.01,2013-04-04 23:35:00,
2013-04-04 18:36:00,37.9,18.5,28.91,WNW,292,7.8,12.8,45,0.00,,---,0.00,VWS V14.01,2013-04-04 23:36:00,
2013-04-04 18:37:00,37.8,18.9,28.91,NNW,338,11.0,12.8,46,0.00,,---,0.00,VWS V14.01,2013-04-04 23:37:00,
2013-04-04 18:38:00,37.8,18.9,28.91,NNW,338,12.3,12.3,46,0.00,,---,0.00,VWS V14.01,2013-04-04 23:38:00,
2013-04-04 18:39:00,37.8,18.9,28.94,NNW,338,8.1,13.0,46,0.00,,---,0.00,VWS V14.01,2013-04-04 23:39:00,
2013-04-04 18:40:00,37.8,18.9,28.94,NNE,22,11.4,12.5,46,0.00,,---,0.00,VWS V14.01,2013-04-04 23:40:00,
2013-04-04 18:41:00,37.8,18.9,28.94,NNW,338,6.5,11.4,46,0.00,,---,0.00,VWS V14.01,2013-04-04 23:41:00,
2013-04-04 18:42:00,37.6,19.2,28.94,NNW,338,9.8,9.8,47,0.00,,---,0.00,VWS V14.01,2013-04-04 23:42:00,
2013-04-04 18:43:00,37.6,19.2,28.94,North,0,8.7,8.7,47,0.00,,---,0.00,VWS V14.01,2013-04-04 23:43:00,
2013-04-04 18:44:00,37.6,19.2,28.94,NNW,338,9.4,9.8,47,0.00,,---,0.00,VWS V14.01,2013-04-04 23:44:00,
2013-04-04 18:45:00,37.6,18.7,28.94,NNW,338,7.6,9.6,46,0.00,,---,0.00,VWS V14.01,2013-04-04 23:45:00,
2013-04-04 18:46:00,37.6,18.7,28.94,NNW,338,7.8,10.1,46,0.00,,---,0.00,VWS V14.01,2013-04-04 23:46:00,
2013-04-04 18:47:00,37.4,18.5,28.94,NW,315,12.1,12.1,46,0.00,,---,0.00,VWS V14.01,2013-04-04 23:47:00,
2013-04-04 18:48:00,37.4,18.5,28.94,North,0,10.7,14.5,46,0.00,,---,0.00,VWS V14.01,2013-04-04 23:48:00,
2013-04-04 18:49:00,37.4,18.5,28.94,NNW,338,10.3,12.1,46,0.00,,---,0.00,VWS V14.01,2013-04-04 23:49:00,
2013-04-04 18:50:00,37.4,19.0,28.94,NNW,338,8.5,10.7,47,0.00,,---,0.00,VWS V14.01,2013-04-04 23:50:00,
2013-04-04 18:51:00,37.4,19.0,28.94,NNW,338,7.8,9.8,47,0.00,,---,0.00,VWS V14.01,2013-04-04 23:51:00,
2013-04-04 18:52:00,37.2,19.4,28.94,North,0,5.8,8.7,48,0.00,,---,0.00,VWS V14.01,2013-04-04 23:52:00,
2013-04-04 18:53:00,37.2,19.4,28.94,North,0,8.7,8.7,48,0.00,,---,0.00,VWS V14.01,2013-04-04 23:53:00,
2013-04-04 18:54:00,37.2,19.4,28.94,NNW,338,6.0,8.7,48,0.00,,---,0.00,VWS V14.01,2013-04-04 23:54:00,
2013-04-04 18:55:00,37.2,18.9,28.94,NNW,338,7.6,8.1,47,0.00,,---,0.00,VWS V14.01,2013-04-04 23:55:00,
2013-04-04 18:56:00,37.2,18.9,28.94,NNW,338,7.8,7.8,47,0.00,,---,0.00,VWS V14.01,2013-04-04 23:56:00,
2013-04-04 18:57:00,37.2,19.4,28.94,NNW,338,10.5,10.5,48,0.00,,---,0.00,VWS V14.01,2013-04-04 23:57:00,
2013-04-04 18:58:00,37.2,19.4,28.94,NNW,338,3.8,6.5,48,0.00,,---,0.00,VWS V14.01,2013-04-04 23:58:00,
2013-04-04 18:59:00,37.0,18.7,28.94,NNW,338,13.2,13.2,47,0.00,,---,0.00,VWS V14.01,2013-04-04 23:59:00,
2013-04-04 19:00:00,37.0,18.7,28.94,NNW,338,8.5,13.2,47,0.00,,---,0.00,VWS V14.01,2013-04-05 00:00:00,
2013-04-04 19:01:00,37.0,18.7,28.94,NNW,338,10.3,10.7,47,0.00,,---,0.00,VWS V14.01,2013-04-05 00:01:00,
2013-04-04 19:02:00,36.9,18.5,28.94,North,0,6.3,7.4,47,0.00,,---,0.00,VWS V14.01,2013-04-05 00:02:00,
2013-04-04 19:03:00,36.9,18.5,28.94,North,0,7.4,7.8,47,0.00,,---,0.00,VWS V14.01,2013-04-05 00:03:00,
2013-04-04 19:04:00,36.9,18.5,28.94,North,0,5.8,7.4,47,0.00,,---,0.00,VWS V14.01,2013-04-05 00:04:00,
2013-04-04 19:05:00,36.9,18.5,28.94,NW,315,6.9,8.5,47,0.00,,---,0.00,VWS V14.01,2013-04-05 00:05:00,
2013-04-04 19:06:00,36.9,18.5,28.94,North,0,3.8,6.9,47,0.00,,---,0.00,VWS V14.01,2013-04-05 00:06:00,
2013-04-04 19:07:00,36.9,18.5,28.94,NNW,338,7.8,7.8,47,0.00,,---,0.00,VWS V14.01,2013-04-05 00:07:00,
2013-04-04 19:08:00,36.9,18.5,28.94,NNW,338,5.6,6.5,47,0.00,,---,0.00,VWS V14.01,2013-04-05 00:08:00,
2013-04-04 19:09:00,36.9,18.5,28.94,NNW,338,7.6,7.8,47,0.00,,---,0.00,VWS V14.01,2013-04-05 00:09:00,
2013-04-04 19:10:00,36.7,18.4,28.94,NNE,22,6.3,7.6,47,0.00,,---,0.00,VWS V14.01,2013-04-05 00:10:00,
2013-04-04 19:11:00,36.7,18.4,28.94,NNW,338,5.4,6.3,47,0.00,,---,0.00,VWS V14.01,2013-04-05 00:11:00,
2013-04-04 19:12:00,36.7,18.9,28.94,North,0,7.4,7.4,48,0.00,,---,0.00,VWS V14.01,2013-04-05 00:12:00,
2013-04-04 19:13:00,36.7,18.9,28.94,North,0,7.4,7.4,48,0.00,,---,0.00,VWS V14.01,2013-04-05 00:13:00,
2013-04-04 19:14:00,36.7,18.9,28.94,North,0,7.4,7.4,48,0.00,,---,0.00,VWS V14.01,2013-04-05 00:14:00,
2013-04-04 19:15:00,36.5,18.7,28.94,North,0,5.6,7.4,48,0.00,,---,0.00,VWS V14.01,2013-04-05 00:15:00,
2013-04-04 19:16:00,36.5,18.7,28.94,NNW,338,7.4,7.6,48,0.00,,---,0.00,VWS V14.01,2013-04-05 00:16:00,
2013-04-04 19:17:00,36.3,18.5,28.94,NNE,22,6.0,6.5,48,0.00,,---,0.00,VWS V14.01,2013-04-05 00:17:00,
2013-04-04 19:18:00,36.3,18.5,28.94,NNE,22,6.5,9.8,48,0.00,,---,0.00,VWS V14.01,2013-04-05 00:18:00,
2013-04-04 19:19:00,36.3,18.5,28.94,NNE,22,6.0,6.5,48,0.00,,---,0.00,VWS V14.01,2013-04-05 00:19:00,
2013-04-04 19:20:00,36.3,18.5,28.94,NNW,338,5.8,6.0,48,0.00,,---,0.00,VWS V14.01,2013-04-05 00:20:00,
2013-04-04 19:21:00,36.3,19.0,28.94,North,0,7.4,7.6,49,0.00,,---,0.00,VWS V14.01,2013-04-05 00:21:00,
2013-04-04 19:22:00,36.1,18.8,28.94,NNW,338,5.8,6.0,49,0.00,,---,0.00,VWS V14.01,2013-04-05 00:22:00,
2013-04-04 19:23:00,36.3,19.0,28.94,NNW,338,6.0,7.2,49,0.00,,---,0.00,VWS V14.01,2013-04-05 00:23:00,
2013-04-04 19:24:00,36.1,18.8,28.94,NNW,338,4.9,6.0,49,0.00,,---,0.00,VWS V14.01,2013-04-05 00:24:00,
2013-04-04 19:25:00,36.1,18.8,28.94,NNW,338,7.4,7.4,49,0.00,,---,0.00,VWS V14.01,2013-04-05 00:25:00,
2013-04-04 19:26:00,36.1,18.8,28.94,NNW,338,6.7,7.6,49,0.00,,---,0.00,VWS V14.01,2013-04-05 00:26:00,
2013-04-04 19:27:00,36.1,18.8,28.94,North,0,4.9,7.6,49,0.00,,---,0.00,VWS V14.01,2013-04-05 00:27:00,
2013-04-04 19:28:00,36.1,18.8,28.94,North,0,7.6,7.6,49,0.00,,---,0.00,VWS V14.01,2013-04-05 00:28:00,
2013-04-04 19:29:00,36.1,18.8,28.94,North,0,5.8,7.6,49,0.00,,---,0.00,VWS V14.01,2013-04-05 00:29:00,
2013-04-04 19:30:00,35.6,18.8,28.94,NNW,338,6.5,6.5,50,0.00,,---,0.00,VWS V14.01,2013-04-05 00:30:00,
2013-04-04 19:31:00,35.6,18.8,28.94,NNW,338,6.0,8.5,50,0.00,,---,0.00,VWS V14.01,2013-04-05 00:31:00,
2013-04-04 19:32:00,35.4,19.1,28.94,NNE,22,6.7,10.3,51,0.00,,---,0.00,VWS V14.01,2013-04-05 00:32:00,
2013-04-04 19:33:00,35.4,19.1,28.94,NNW,338,10.3,10.3,51,0.00,,---,0.00,VWS V14.01,2013-04-05 00:33:00,
2013-04-04 19:34:00,35.4,19.1,28.94,NNE,22,6.7,10.3,51,0.00,,---,0.00,VWS V14.01,2013-04-05 00:34:00,
2013-04-04 19:35:00,35.2,18.9,28.94,NNW,338,6.3,7.8,51,0.00,,---,0.00,VWS V14.01,2013-04-05 00:35:00,
2013-04-04 19:37:00,35.1,18.8,28.94,NNW,338,6.3,8.7,51,0.00,,---,0.00,VWS V14.01,2013-04-05 00:37:00,
2013-04-04 19:38:00,35.1,18.8,28.94,NNW,338,8.7,9.2,51,0.00,,---,0.00,VWS V14.01,2013-04-05 00:38:00,
2013-04-04 19:39:00,35.1,18.8,28.94,NNW,338,7.4,8.7,51,0.00,,---,0.00,VWS V14.01,2013-04-05 00:39:00,
2013-04-04 19:40:00,34.9,18.6,28.94,NNW,338,7.4,7.4,51,0.00,,---,0.00,VWS V14.01,2013-04-05 00:40:00,
2013-04-04 19:41:00,34.9,19.1,28.94,NNW,338,7.4,8.5,52,0.00,,---,0.00,VWS V14.01,2013-04-05 00:41:00,
2013-04-04 19:42:00,34.2,18.4,28.94,NNW,338,6.3,6.5,52,0.00,,---,0.00,VWS V14.01,2013-04-05 00:42:00,
2013-04-04 19:43:00,34.3,18.6,28.94,NNW,338,5.8,7.4,52,0.00,,---,0.00,VWS V14.01,2013-04-05 00:43:00,
2013-04-04 19:44:00,34.2,18.4,28.94,NNW,338,6.5,6.5,52,0.00,,---,0.00,VWS V14.01,2013-04-05 00:44:00,
2013-04-04 19:45:00,34.0,18.2,28.94,North,0,6.3,6.5,52,0.00,,---,0.00,VWS V14.01,2013-04-05 00:45:00,
2013-04-04 19:46:00,34.0,18.2,28.94,NNW,338,6.0,6.3,52,0.00,,---,0.00,VWS V14.01,2013-04-05 00:46:00,
2013-04-04 19:47:00,33.4,18.2,28.94,NNW,338,7.8,7.8,53,0.00,,---,0.00,VWS V14.01,2013-04-05 00:47:00,
2013-04-04 19:48:00,33.8,18.0,28.94,NNW,338,6.3,6.3,52,0.00,,---,0.00,VWS V14.01,2013-04-05 00:48:00,
2013-04-04 19:49:00,33.4,18.2,28.94,NNW,338,7.8,7.8,53,0.00,,---,0.00,VWS V14.01,2013-04-05 00:49:00,
2013-04-04 19:50:00,33.3,18.4,28.94,NNW,338,6.0,7.8,54,0.00,,---,0.00,VWS V14.01,2013-04-05 00:50:00,
2013-04-04 19:51:00,33.3,18.4,28.94,NNW,338,8.7,9.6,54,0.00,,---,0.00,VWS V14.01,2013-04-05 00:51:00,
2013-04-04 19:52:00,33.3,18.4,28.94,NNW,338,3.6,7.4,54,0.00,,---,0.00,VWS V14.01,2013-04-05 00:52:00,
2013-04-04 19:53:00,33.3,18.4,28.94,North,0,7.4,7.4,54,0.00,,---,0.00,VWS V14.01,2013-04-05 00:53:00,
2013-04-04 19:54:00,33.3,18.4,28.94,NNW,338,3.6,7.4,54,0.00,,---,0.00,VWS V14.01,2013-04-05 00:54:00,
2013-04-04 19:55:00,33.3,18.4,28.94,NNW,338,7.8,7.8,54,0.00,,---,0.00,VWS V14.01,2013-04-05 00:55:00,
2013-04-04 19:56:00,33.1,18.7,28.94,NNW,338,6.3,7.8,55,0.00,,---,0.00,VWS V14.01,2013-04-05 00:56:00,
2013-04-04 19:57:00,33.1,19.1,28.94,North,0,6.7,7.8,56,0.00,,---,0.00,VWS V14.01,2013-04-05 00:57:00,
2013-04-04 19:58:00,33.1,19.1,28.94,North,0,6.0,6.7,56,0.00,,---,0.00,VWS V14.01,2013-04-05 00:58:00,
2013-04-04 19:59:00,33.1,19.1,28.94,NNW,338,7.8,7.8,56,0.00,,---,0.00,VWS V14.01,2013-04-05 00:59:00,
2013-04-04 20:00:00,33.1,19.1,28.94,North,0,7.6,7.8,56,0.00,,---,0.00,VWS V14.01,2013-04-05 01:00:00,
2013-04-04 20:01:00,32.9,18.9,28.94,NNW,338,8.1,9.0,56,0.00,,---,0.00,VWS V14.01,2013-04-05 01:01:00,
2013-04-04 20:02:00,32.7,18.8,28.94,North,0,6.9,7.8,56,0.00,,---,0.00,VWS V14.01,2013-04-05 01:02:00,
2013-04-04 20:03:00,32.7,18.8,28.94,NNW,338,7.8,8.7,56,0.00,,---,0.00,VWS V14.01,2013-04-05 01:03:00,
2013-04-04 20:04:00,32.7,18.8,28.94,North,0,6.9,7.8,56,0.00,,---,0.00,VWS V14.01,2013-04-05 01:04:00,
2013-04-04 20:05:00,32.7,18.8,28.94,NNW,338,6.3,8.1,56,0.00,,---,0.00,VWS V14.01,2013-04-05 01:05:00,
2013-04-04 20:07:00,32.4,18.8,28.94,NNW,338,6.3,6.3,57,0.00,,---,0.00,VWS V14.01,2013-04-05 01:07:00,
2013-04-04 20:08:00,32.5,19.0,28.94,NNW,338,8.1,8.1,57,0.00,,---,0.00,VWS V14.01,2013-04-05 01:08:00,
2013-04-04 20:09:00,32.4,18.8,28.94,NNW,338,6.3,8.1,57,0.00,,---,0.00,VWS V14.01,2013-04-05 01:09:00,
2013-04-04 20:10:00,32.4,18.8,28.94,NNW,338,4.3,6.5,57,0.00,,---,0.00,VWS V14.01,2013-04-05 01:10:00,
2013-04-04 20:11:00,32.4,18.8,28.94,NNW,338,5.8,7.2,57,0.00,,---,0.00,VWS V14.01,2013-04-05 01:11:00,
2013-04-04 20:12:00,32.2,19.1,28.94,NNW,338,5.8,8.5,58,0.00,,---,0.00,VWS V14.01,2013-04-05 01:12:00,
2013-04-04 20:13:00,32.2,19.1,28.94,NNW,338,8.5,8.5,58,0.00,,---,0.00,VWS V14.01,2013-04-05 01:13:00,
2013-04-04 20:14:00,32.2,19.1,28.94,NNW,338,5.8,8.5,58,0.00,,---,0.00,VWS V14.01,2013-04-05 01:14:00,
2013-04-04 20:15:00,32.0,19.3,28.94,NNW,338,5.6,6.3,59,0.00,,---,0.00,VWS V14.01,2013-04-05 01:15:00,
2013-04-04 20:16:00,32.0,19.3,28.94,North,0,6.0,6.5,59,0.00,,---,0.00,VWS V14.01,2013-04-05 01:16:00,
2013-04-04 20:17:00,31.8,19.1,28.94,NNW,338,4.9,6.0,59,0.00,,---,0.00,VWS V14.01,2013-04-05 01:17:00,
2013-04-04 20:18:00,31.8,19.1,28.94,North,0,5.8,6.0,59,0.00,,---,0.00,VWS V14.01,2013-04-05 01:18:00,
2013-04-04 20:19:00,31.8,19.1,28.94,NNW,338,4.9,6.0,59,0.00,,---,0.00,VWS V14.01,2013-04-05 01:19:00,
2013-04-04 20:20:00,31.6,19.4,28.94,NNW,338,6.3,6.3,60,0.00,,---,0.00,VWS V14.01,2013-04-05 01:20:00,
2013-04-04 20:21:00,31.6,19.4,28.94,NNW,338,4.9,6.3,60,0.00,,---,0.00,VWS V14.01,2013-04-05 01:21:00,
2013-04-04 20:22:00,31.6,19.4,28.97,NNW,338,5.6,5.6,60,0.00,,---,0.00,VWS V14.01,2013-04-05 01:22:00,
2013-04-04 20:23:00,31.6,19.4,28.94,NNW,338,3.6,5.8,60,0.00,,---,0.00,VWS V14.01,2013-04-05 01:23:00,
2013-04-04 20:24:00,31.6,19.4,28.97,NNW,338,5.6,6.3,60,0.00,,---,0.00,VWS V14.01,2013-04-05 01:24:00,
2013-04-04 20:25:00,31.6,19.4,28.97,NNW,338,4.7,6.3,60,0.00,,---,0.00,VWS V14.01,2013-04-05 01:25:00,
2013-04-04 20:26:00,31.5,19.2,28.97,NNW,338,5.4,5.8,60,0.00,,---,0.00,VWS V14.01,2013-04-05 01:26:00,
2013-04-04 20:27:00,31.1,19.2,28.97,NNW,338,4.3,5.6,61,0.00,,---,0.00,VWS V14.01,2013-04-05 01:27:00,
2013-04-04 20:28:00,31.3,19.4,28.97,North,0,3.8,7.2,61,0.00,,---,0.00,VWS V14.01,2013-04-05 01:28:00,
2013-04-04 20:29:00,31.1,19.2,28.97,NNW,338,5.6,5.6,61,0.00,,---,0.00,VWS V14.01,2013-04-05 01:29:00,
2013-04-04 20:30:00,31.1,19.2,28.97,NNW,338,5.8,6.5,61,0.00,,---,0.00,VWS V14.01,2013-04-05 01:30:00,
2013-04-04 20:31:00,30.9,19.5,28.97,NNW,338,4.9,6.3,62,0.00,,---,0.00,VWS V14.01,2013-04-05 01:31:00,
2013-04-04 20:32:00,30.9,19.5,28.97,NNW,338,5.6,5.6,62,0.00,,---,0.00,VWS V14.01,2013-04-05 01:32:00,
2013-04-04 20:33:00,30.6,19.1,28.97,NNW,338,4.0,4.0,62,0.00,,---,0.00,VWS V14.01,2013-04-05 01:33:00,
2013-04-04 20:34:00,30.7,19.3,28.97,NNW,338,3.1,4.9,62,0.00,,---,0.00,VWS V14.01,2013-04-05 01:34:00,
2013-04-04 20:35:00,30.6,19.1,28.97,NNW,338,6.3,6.3,62,0.00,,---,0.00,VWS V14.01,2013-04-05 01:35:00,
2013-04-04 20:36:00,30.4,19.3,28.97,NNW,338,3.8,6.3,63,0.00,,---,0.00,VWS V14.01,2013-04-05 01:36:00,
2013-04-04 20:37:00,30.4,19.3,28.97,NNW,338,5.6,5.6,63,0.00,,---,0.00,VWS V14.01,2013-04-05 01:37:00,
2013-04-04 20:38:00,30.4,19.7,28.97,NW,315,5.8,5.8,64,0.00,,---,0.00,VWS V14.01,2013-04-05 01:38:00,
2013-04-04 20:39:00,30.4,19.7,28.97,North,0,5.4,6.0,64,0.00,,---,0.00,VWS V14.01,2013-04-05 01:39:00,
2013-04-04 20:40:00,30.4,19.7,28.97,NW,315,4.3,5.8,64,0.00,,---,0.00,VWS V14.01,2013-04-05 01:40:00,
2013-04-04 20:41:00,30.4,19.7,28.97,NNW,338,5.4,5.4,64,0.00,,---,0.00,VWS V14.01,2013-04-05 01:41:00,
2013-04-04 20:42:00,30.4,19.7,28.97,North,0,3.6,5.4,64,0.00,,---,0.00,VWS V14.01,2013-04-05 01:42:00,
2013-04-04 20:43:00,30.4,20.0,28.97,NNW,338,3.8,5.8,65,0.00,,---,0.00,VWS V14.01,2013-04-05 01:43:00,
2013-04-04 20:44:00,30.4,20.0,28.97,NNW,338,5.6,5.8,65,0.00,,---,0.00,VWS V14.01,2013-04-05 01:44:00,
2013-04-04 20:45:00,30.4,20.0,28.97,NNW,338,4.0,5.8,65,0.00,,---,0.00,VWS V14.01,2013-04-05 01:45:00,
2013-04-04 20:46:00,30.4,20.0,28.97,NNW,338,5.6,5.6,65,0.00,,---,0.00,VWS V14.01,2013-04-05 01:46:00,
2013-04-04 20:47:00,30.4,20.0,28.97,NNW,338,6.0,6.0,65,0.00,,---,0.00,VWS V14.01,2013-04-05 01:47:00,
2013-04-04 20:48:00,30.4,20.4,28.97,NNW,338,4.0,4.0,66,0.00,,---,0.00,VWS V14.01,2013-04-05 01:48:00,
2013-04-04 20:49:00,30.4,20.4,28.97,NNW,338,4.0,5.6,66,0.00,,---,0.00,VWS V14.01,2013-04-05 01:49:00,
2013-04-04 20:50:00,30.4,20.4,28.97,NNW,338,7.6,7.6,66,0.00,,---,0.00,VWS V14.01,2013-04-05 01:50:00,
2013-04-04 20:51:00,30.4,20.4,28.97,NNW,338,4.9,7.6,66,0.00,,---,0.00,VWS V14.01,2013-04-05 01:51:00,
2013-04-04 20:52:00,30.4,20.4,28.97,NNW,338,7.2,7.2,66,0.00,,---,0.00,VWS V14.01,2013-04-05 01:52:00,
2013-04-04 20:53:00,30.4,20.4,28.97,NNW,338,5.8,5.8,66,0.00,,---,0.00,VWS V14.01,2013-04-05 01:53:00,
2013-04-04 20:54:00,30.4,20.4,28.97,NNW,338,5.8,5.8,66,0.00,,---,0.00,VWS V14.01,2013-04-05 01:54:00,
2013-04-04 20:55:00,30.4,20.4,28.97,NNW,338,5.6,5.8,66,0.00,,---,0.00,VWS V14.01,2013-04-05 01:55:00,
2013-04-04 20:56:00,30.4,20.8,28.97,NNW,338,6.5,7.8,67,0.00,,---,0.00,VWS V14.01,2013-04-05 01:56:00,
2013-04-04 20:57:00,30.4,20.8,28.97,NW,315,6.3,6.5,67,0.00,,---,0.00,VWS V14.01,2013-04-05 01:57:00,
2013-04-04 20:58:00,30.2,20.6,28.97,NNW,338,4.3,6.0,67,0.00,,---,0.00,VWS V14.01,2013-04-05 01:58:00,
2013-04-04 20:59:00,30.2,20.6,28.97,NNW,338,6.0,6.7,67,0.00,,---,0.00,VWS V14.01,2013-04-05 01:59:00,
2013-04-04 21:00:00,30.2,20.6,28.97,NNW,338,6.5,6.5,67,0.00,,---,0.00,VWS V14.01,2013-04-05 02:00:00,
2013-04-04 21:01:00,30.2,20.9,28.97,NNW,338,5.4,6.5,68,0.00,,---,0.00,VWS V14.01,2013-04-05 02:01:00,
2013-04-04 21:02:00,30.2,20.9,28.97,NNW,338,4.3,5.4,68,0.00,,---,0.00,VWS V14.01,2013-04-05 02:02:00,
2013-04-04 21:03:00,30.2,20.6,28.97,NNW,338,4.3,6.0,67,0.00,,---,0.00,VWS V14.01,2013-04-05 02:03:00,
2013-04-04 21:05:00,30.2,20.6,28.97,NNW,338,4.0,6.0,67,0.00,,---,0.00,VWS V14.01,2013-04-05 02:05:00,
2013-04-04 21:06:00,30.0,20.8,28.97,North,0,4.3,5.6,68,0.00,,---,0.00,VWS V14.01,2013-04-05 02:06:00,
2013-04-04 21:07:00,30.0,20.8,28.97,NNW,338,5.4,5.8,68,0.00,,---,0.00,VWS V14.01,2013-04-05 02:07:00,
2013-04-04 21:08:00,30.0,20.4,28.97,NNW,338,4.9,4.9,67,0.00,,---,0.00,VWS V14.01,2013-04-05 02:08:00,
2013-04-04 21:09:00,30.0,20.4,28.97,NNW,338,3.6,5.8,67,0.00,,---,0.00,VWS V14.01,2013-04-05 02:09:00,
2013-04-04 21:10:00,30.0,20.4,28.97,NNW,338,4.0,6.0,67,0.00,,---,0.00,VWS V14.01,2013-04-05 02:10:00,
2013-04-04 21:11:00,29.8,20.6,28.97,NNW,338,6.3,6.3,68,0.00,,---,0.00,VWS V14.01,2013-04-05 02:11:00,
2013-04-04 21:12:00,29.8,20.6,28.97,NNW,338,4.9,6.5,68,0.00,,---,0.00,VWS V14.01,2013-04-05 02:12:00,
2013-04-04 21:13:00,29.8,20.6,28.97,NNW,338,4.9,6.0,68,0.00,,---,0.00,VWS V14.01,2013-04-05 02:13:00,
2013-04-04 21:14:00,29.8,20.6,28.97,NNW,338,6.0,6.0,68,0.00,,---,0.00,VWS V14.01,2013-04-05 02:14:00,
2013-04-04 21:15:00,29.7,20.4,28.97,NNW,338,6.3,7.2,68,0.00,,---,0.00,VWS V14.01,2013-04-05 02:15:00,
2013-04-04 21:16:00,29.7,20.4,28.97,NNW,338,5.8,6.5,68,0.00,,---,0.00,VWS V14.01,2013-04-05 02:16:00,
2013-04-04 21:17:00,29.7,20.4,28.97,NNW,338,5.4,7.8,68,0.00,,---,0.00,VWS V14.01,2013-04-05 02:17:00,
2013-04-04 21:18:00,29.7,20.8,28.97,NNW,338,6.3,6.3,69,0.00,,---,0.00,VWS V14.01,2013-04-05 02:18:00,
2013-04-04 21:19:00,29.7,20.8,28.97,NNW,338,6.0,7.4,69,0.00,,---,0.00,VWS V14.01,2013-04-05 02:19:00,
2013-04-04 21:20:00,29.7,20.8,28.97,NNW,338,6.3,6.3,69,0.00,,---,0.00,VWS V14.01,2013-04-05 02:20:00,
2013-04-04 21:21:00,29.7,20.8,28.97,NNW,338,6.3,6.3,69,0.00,,---,0.00,VWS V14.01,2013-04-05 02:21:00,
2013-04-04 21:22:00,29.7,20.8,28.97,NNW,338,3.6,6.3,69,0.00,,---,0.00,VWS V14.01,2013-04-05 02:22:00,
2013-04-04 21:23:00,29.7,20.8,28.97,NNW,338,5.8,5.8,69,0.00,,---,0.00,VWS V14.01,2013-04-05 02:23:00,
2013-04-04 21:24:00,29.7,20.8,28.97,North,0,5.4,6.3,69,0.00,,---,0.00,VWS V14.01,2013-04-05 02:24:00,
2013-04-04 21:25:00,29.7,20.8,28.97,NNW,338,6.3,6.3,69,0.00,,---,0.00,VWS V14.01,2013-04-05 02:25:00,
2013-04-04 21:26:00,29.7,20.8,28.97,NNW,338,4.9,6.3,69,0.00,,---,0.00,VWS V14.01,2013-04-05 02:26:00,
2013-04-04 21:27:00,29.7,20.8,28.97,NNE,22,4.3,5.4,69,0.00,,---,0.00,VWS V14.01,2013-04-05 02:27:00,
2013-04-04 21:28:00,29.5,20.6,28.97,NNW,338,5.4,5.4,69,0.00,,---,0.00,VWS V14.01,2013-04-05 02:28:00,
2013-04-04 21:29:00,29.5,20.6,28.97,NNW,338,5.4,5.4,69,0.00,,---,0.00,VWS V14.01,2013-04-05 02:29:00,
2013-04-04 21:30:00,29.7,20.8,28.97,North,0,4.3,5.6,69,0.00,,---,0.00,VWS V14.01,2013-04-05 02:30:00,
2013-04-04 21:31:00,29.5,20.6,28.97,North,0,4.9,6.0,69,0.00,,---,0.00,VWS V14.01,2013-04-05 02:31:00,
2013-04-04 21:32:00,29.5,20.6,28.97,NNW,338,5.8,5.8,69,0.00,,---,0.00,VWS V14.01,2013-04-05 02:32:00,
2013-04-04 21:33:00,29.5,20.6,28.97,North,0,6.0,6.0,69,0.00,,---,0.00,VWS V14.01,2013-04-05 02:33:00,
2013-04-04 21:34:00,29.5,20.6,28.97,NNW,338,4.3,5.4,69,0.00,,---,0.00,VWS V14.01,2013-04-05 02:34:00,
2013-04-04 21:35:00,29.5,20.6,28.97,North,0,6.0,6.0,69,0.00,,---,0.00,VWS V14.01,2013-04-05 02:35:00,
2013-04-04 21:36:00,29.5,20.6,28.97,North,0,6.0,6.0,69,0.00,,---,0.00,VWS V14.01,2013-04-05 02:36:00,
2013-04-04 21:37:00,29.5,20.6,28.97,NNW,338,5.6,6.0,69,0.00,,---,0.00,VWS V14.01,2013-04-05 02:37:00,
2013-04-04 21:38:00,29.5,20.6,29.00,NNW,338,5.4,6.3,69,0.00,,---,0.00,VWS V14.01,2013-04-05 02:38:00,
2013-04-04 21:39:00,29.5,20.6,29.00,NNW,338,6.3,7.2,69,0.00,,---,0.00,VWS V14.01,2013-04-05 02:39:00,
2013-04-04 21:40:00,29.5,20.6,29.00,NNW,338,4.0,6.3,69,0.00,,---,0.00,VWS V14.01,2013-04-05 02:40:00,
2013-04-04 21:41:00,29.5,20.6,29.00,NNW,338,5.4,5.4,69,0.00,,---,0.00,VWS V14.01,2013-04-05 02:41:00,
2013-04-04 21:42:00,29.5,20.6,29.00,NNW,338,5.4,6.0,69,0.00,,---,0.00,VWS V14.01,2013-04-05 02:42:00,
2013-04-04 21:43:00,29.3,20.4,29.00,NNW,338,4.9,6.3,69,0.00,,---,0.00,VWS V14.01,2013-04-05 02:43:00,
2013-04-04 21:44:00,29.3,20.4,29.00,North,0,3.1,5.8,69,0.00,,---,0.00,VWS V14.01,2013-04-05 02:44:00,
2013-04-04 21:45:00,29.3,20.4,29.00,NNW,338,3.8,6.3,69,0.00,,---,0.00,VWS V14.01,2013-04-05 02:45:00,
2013-04-04 21:46:00,29.3,20.4,29.00,NNW,338,4.0,4.9,69,0.00,,---,0.00,VWS V14.01,2013-04-05 02:46:00,
2013-04-04 21:47:00,29.3,20.4,29.00,NNW,338,3.4,5.4,69,0.00,,---,0.00,VWS V14.01,2013-04-05 02:47:00,
2013-04-04 21:48:00,29.1,20.2,29.00,NNW,338,6.0,6.0,69,0.00,,---,0.00,VWS V14.01,2013-04-05 02:48:00,
2013-04-04 21:49:00,29.1,20.2,29.00,NNW,338,4.9,4.9,69,0.00,,---,0.00,VWS V14.01,2013-04-05 02:49:00,
2013-04-04 21:50:00,29.1,20.2,29.00,NNW,338,6.0,6.0,69,0.00,,---,0.00,VWS V14.01,2013-04-05 02:50:00,
2013-04-04 21:51:00,29.1,20.2,29.00,NNW,338,3.4,6.0,69,0.00,,---,0.00,VWS V14.01,2013-04-05 02:51:00,
2013-04-04 21:52:00,28.9,20.4,29.00,NNW,338,4.0,4.3,70,0.00,,---,0.00,VWS V14.01,2013-04-05 02:52:00,
2013-04-04 21:53:00,28.9,20.4,28.94,NNW,338,4.7,6.3,70,0.00,,---,0.00,VWS V14.01,2013-04-05 02:53:00,
2013-04-04 21:54:00,28.9,20.4,28.94,NNW,338,6.3,6.3,70,0.00,,---,0.00,VWS V14.01,2013-04-05 02:54:00,
2013-04-04 21:55:00,28.9,20.4,28.94,NNW,338,3.8,6.3,70,0.00,,---,0.00,VWS V14.01,2013-04-05 02:55:00,
2013-04-04 21:56:00,28.9,20.4,28.94,NNW,338,2.5,6.3,70,0.00,,---,0.00,VWS V14.01,2013-04-05 02:56:00,
2013-04-04 21:57:00,28.9,20.7,28.94,NNW,338,4.5,5.6,71,0.00,,---,0.00,VWS V14.01,2013-04-05 02:57:00,
2013-04-04 21:58:00,28.9,20.7,28.94,NNW,338,6.5,6.5,71,0.00,,---,0.00,VWS V14.01,2013-04-05 02:58:00,
2013-04-04 21:59:00,28.9,20.7,28.94,NNW,338,5.8,5.8,71,0.00,,---,0.00,VWS V14.01,2013-04-05 02:59:00,
2013-04-04 22:01:00,28.9,20.7,28.94,NNW,338,6.3,6.5,71,0.00,,---,0.00,VWS V14.01,2013-04-05 03:01:00,
2013-04-04 22:02:00,28.9,20.7,28.94,NNW,338,6.0,6.3,71,0.00,,---,0.00,VWS V14.01,2013-04-05 03:02:00,
2013-04-04 22:03:00,28.8,20.6,28.94,NNW,338,4.5,5.8,71,0.00,,---,0.00,VWS V14.01,2013-04-05 03:03:00,
2013-04-04 22:04:00,28.9,20.7,28.94,NNW,338,5.8,5.8,71,0.00,,---,0.00,VWS V14.01,2013-04-05 03:04:00,
2013-04-04 22:05:00,28.8,20.6,28.94,NNW,338,4.9,5.8,71,0.00,,---,0.00,VWS V14.01,2013-04-05 03:05:00,
2013-04-04 22:06:00,28.8,20.6,28.94,NNW,338,6.0,6.0,71,0.00,,---,0.00,VWS V14.01,2013-04-05 03:06:00,
2013-04-04 22:07:00,28.6,20.4,28.94,NNW,338,5.6,6.0,71,0.00,,---,0.00,VWS V14.01,2013-04-05 03:07:00,
2013-04-04 22:08:00,28.6,20.4,28.94,NNW,338,5.4,5.4,71,0.00,,---,0.00,VWS V14.01,2013-04-05 03:08:00,
2013-04-04 22:09:00,28.6,20.4,28.97,NNW,338,5.4,5.4,71,0.00,,---,0.00,VWS V14.01,2013-04-05 03:09:00,
2013-04-04 22:10:00,28.6,20.4,28.97,NNW,338,5.4,5.4,71,0.00,,---,0.00,VWS V14.01,2013-04-05 03:10:00,
2013-04-04 22:11:00,28.6,20.4,28.97,NNW,338,5.4,6.7,71,0.00,,---,0.00,VWS V14.01,2013-04-05 03:11:00,
2013-04-04 22:12:00,28.6,20.4,28.97,NNW,338,4.3,5.6,71,0.00,,---,0.00,VWS V14.01,2013-04-05 03:12:00,
2013-04-04 22:13:00,28.6,20.4,28.97,NNE,22,4.7,4.7,71,0.00,,---,0.00,VWS V14.01,2013-04-05 03:13:00,
2013-04-04 22:14:00,28.6,20.4,28.97,NNE,22,4.7,5.6,71,0.00,,---,0.00,VWS V14.01,2013-04-05 03:14:00,
2013-04-04 22:15:00,28.6,20.4,28.97,NNE,22,4.7,4.7,71,0.00,,---,0.00,VWS V14.01,2013-04-05 03:15:00,
2013-04-04 22:16:00,28.6,20.4,28.97,NNW,338,3.8,4.9,71,0.00,,---,0.00,VWS V14.01,2013-04-05 03:16:00,
2013-04-04 22:17:00,28.4,20.2,28.97,NNE,22,4.3,4.3,71,0.00,,---,0.00,VWS V14.01,2013-04-05 03:17:00,
2013-04-04 22:18:00,28.4,20.2,28.97,North,0,3.8,3.8,71,0.00,,---,0.00,VWS V14.01,2013-04-05 03:18:00,
2013-04-04 22:19:00,28.4,20.2,28.97,NNW,338,2.7,2.7,71,0.00,,---,0.00,VWS V14.01,2013-04-05 03:19:00,
2013-04-04 22:20:00,28.4,20.2,28.97,NE,45,2.9,3.8,71,0.00,,---,0.00,VWS V14.01,2013-04-05 03:20:00,
2013-04-04 22:21:00,28.4,20.2,28.97,North,0,4.0,5.4,71,0.00,,---,0.00,VWS V14.01,2013-04-05 03:21:00,
2013-04-04 22:22:00,28.4,20.2,28.97,NNE,22,3.1,4.0,71,0.00,,---,0.00,VWS V14.01,2013-04-05 03:22:00,
2013-04-04 22:23:00,28.4,20.2,28.94,North,0,3.1,5.6,71,0.00,,---,0.00,VWS V14.01,2013-04-05 03:23:00,
2013-04-04 22:24:00,28.4,20.2,28.94,NNW,338,2.5,4.3,71,0.00,,---,0.00,VWS V14.01,2013-04-05 03:24:00,
2013-04-04 22:25:00,28.4,20.2,28.94,NNE,22,2.5,5.6,71,0.00,,---,0.00,VWS V14.01,2013-04-05 03:25:00,
2013-04-04 22:26:00,28.4,20.2,28.94,NNW,338,4.9,4.9,71,0.00,,---,0.00,VWS V14.01,2013-04-05 03:26:00,
2013-04-04 22:27:00,28.4,20.2,28.94,NE,45,4.0,4.9,71,0.00,,---,0.00,VWS V14.01,2013-04-05 03:27:00,
2013-04-04 22:28:00,28.4,20.2,28.94,NNW,338,4.3,4.3,71,0.00,,---,0.00,VWS V14.01,2013-04-05 03:28:00,
2013-04-04 22:29:00,28.4,20.2,28.94,North,0,3.4,3.4,71,0.00,,---,0.00,VWS V14.01,2013-04-05 03:29:00,
2013-04-04 22:30:00,28.4,20.2,28.94,NNW,338,4.3,4.3,71,0.00,,---,0.00,VWS V14.01,2013-04-05 03:30:00,
2013-04-04 22:31:00,28.4,20.2,28.94,North,0,2.7,4.3,71,0.00,,---,0.00,VWS V14.01,2013-04-05 03:31:00,
2013-04-04 22:32:00,28.4,20.2,28.94,NNW,338,3.4,4.3,71,0.00,,---,0.00,VWS V14.01,2013-04-05 03:32:00,
2013-04-04 22:33:00,28.4,20.2,28.94,NNE,22,2.9,5.6,71,0.00,,---,0.00,VWS V14.01,2013-04-05 03:33:00,
2013-04-04 22:34:00,28.4,20.2,28.94,North,0,5.6,5.8,71,0.00,,---,0.00,VWS V14.01,2013-04-05 03:34:00,
2013-04-04 22:35:00,28.4,20.2,28.94,NNW,338,2.5,5.6,71,0.00,,---,0.00,VWS V14.01,2013-04-05 03:35:00,
2013-04-04 22:36:00,28.4,20.2,28.94,NNW,338,4.3,6.5,71,0.00,,---,0.00,VWS V14.01,2013-04-05 03:36:00,
2013-04-04 22:37:00,28.4,20.2,28.94,NNW,338,3.6,4.3,71,0.00,,---,0.00,VWS V14.01,2013-04-05 03:37:00,
2013-04-04 22:38:00,28.2,20.0,28.97,North,0,5.8,5.8,71,0.00,,---,0.00,VWS V14.01,2013-04-05 03:38:00,
2013-04-04 22:39:00,28.4,20.2,28.97,NNW,338,2.7,4.9,71,0.00,,---,0.00,VWS V14.01,2013-04-05 03:39:00,
2013-04-04 22:41:00,28.2,20.0,28.97,North,0,5.8,5.8,71,0.00,,---,0.00,VWS V14.01,2013-04-05 03:41:00,
2013-04-04 22:42:00,28.2,20.0,28.97,NNW,338,3.4,5.8,71,0.00,,---,0.00,VWS V14.01,2013-04-05 03:42:00,
2013-04-04 22:43:00,28.2,20.0,28.97,NNW,338,3.8,4.9,71,0.00,,---,0.00,VWS V14.01,2013-04-05 03:43:00,
2013-04-04 22:45:00,28.2,20.0,28.97,NNW,338,3.8,4.9,71,0.00,,---,0.00,VWS V14.01,2013-04-05 03:45:00,
2013-04-04 22:46:00,28.2,20.4,28.97,NNW,338,7.2,7.2,72,0.00,,---,0.00,VWS V14.01,2013-04-05 03:46:00,
2013-04-04 22:47:00,28.2,20.4,28.97,NNW,338,3.8,7.2,72,0.00,,---,0.00,VWS V14.01,2013-04-05 03:47:00,
2013-04-04 22:48:00,28.0,19.9,28.97,NNE,22,6.9,7.4,71,0.00,,---,0.00,VWS V14.01,2013-04-05 03:48:00,
2013-04-04 22:50:00,28.0,19.9,28.97,NNW,338,6.3,7.4,71,0.00,,---,0.00,VWS V14.01,2013-04-05 03:50:00,
2013-04-04 22:51:00,28.0,19.9,28.97,North,0,4.9,6.3,71,0.00,,---,0.00,VWS V14.01,2013-04-05 03:51:00,
2013-04-04 22:52:00,28.0,20.2,28.97,NNW,338,5.8,6.3,72,0.00,,---,0.00,VWS V14.01,2013-04-05 03:52:00,
2013-04-04 22:53:00,28.0,20.2,28.97,NNW,338,5.8,5.8,72,0.00,,---,0.00,VWS V14.01,2013-04-05 03:53:00,
2013-04-04 22:54:00,28.2,20.4,28.97,NNW,338,3.8,6.3,72,0.00,,---,0.00,VWS V14.01,2013-04-05 03:54:00,
2013-04-04 22:55:00,28.0,20.2,28.97,NNW,338,5.8,5.8,72,0.00,,---,0.00,VWS V14.01,2013-04-05 03:55:00,
2013-04-04 22:56:00,28.0,20.2,28.97,North,0,4.0,5.8,72,0.00,,---,0.00,VWS V14.01,2013-04-05 03:56:00,
2013-04-04 22:57:00,28.0,20.2,28.97,NNW,338,3.8,5.8,72,0.00,,---,0.00,VWS V14.01,2013-04-05 03:57:00,
2013-04-04 22:58:00,28.0,20.2,28.97,WNW,292,4.9,8.1,72,0.00,,---,0.00,VWS V14.01,2013-04-05 03:58:00,
2013-04-04 22:59:00,28.0,19.9,28.97,NNW,338,2.7,4.3,71,0.00,,---,0.00,VWS V14.01,2013-04-05 03:59:00,
2013-04-04 23:00:00,28.0,19.9,28.97,NNW,338,2.7,2.7,71,0.00,,---,0.00,VWS V14.01,2013-04-05 04:00:00,
2013-04-04 23:01:00,28.0,19.9,28.97,NNW,338,2.7,5.4,71,0.00,,---,0.00,VWS V14.01,2013-04-05 04:01:00,
2013-04-04 23:02:00,28.0,19.9,28.97,NNE,22,2.9,3.8,71,0.00,,---,0.00,VWS V14.01,2013-04-05 04:02:00,
2013-04-04 23:03:00,28.0,19.9,28.97,NNW,338,5.4,5.4,71,0.00,,---,0.00,VWS V14.01,2013-04-05 04:03:00,
2013-04-04 23:04:00,28.0,19.9,28.97,NNW,338,3.8,5.6,71,0.00,,---,0.00,VWS V14.01,2013-04-05 04:04:00,
2013-04-04 23:05:00,28.0,19.9,28.97,NNW,338,3.6,6.3,71,0.00,,---,0.00,VWS V14.01,2013-04-05 04:05:00,
2013-04-04 23:06:00,28.0,20.2,28.97,North,0,6.3,6.3,72,0.00,,---,0.00,VWS V14.01,2013-04-05 04:06:00,
2013-04-04 23:07:00,28.0,19.9,28.97,NNW,338,3.6,6.3,71,0.00,,---,0.00,VWS V14.01,2013-04-05 04:07:00,
2013-04-04 23:08:00,28.0,19.9,28.97,NNW,338,4.9,4.9,71,0.00,,---,0.00,VWS V14.01,2013-04-05 04:08:00,
2013-04-04 23:09:00,28.0,19.9,28.97,NNW,338,6.5,6.5,71,0.00,,---,0.00,VWS V14.01,2013-04-05 04:09:00,
2013-04-04 23:10:00,27.9,20.0,28.97,NNW,338,4.5,6.0,72,0.00,,---,0.00,VWS V14.01,2013-04-05 04:10:00,
2013-04-04 23:11:00,28.0,20.2,28.97,NNW,338,5.4,6.3,72,0.00,,---,0.00,VWS V14.01,2013-04-05 04:11:00,
2013-04-04 23:12:00,27.9,20.0,28.97,NNW,338,4.5,6.0,72,0.00,,---,0.00,VWS V14.01,2013-04-05 04:12:00,
2013-04-04 23:13:00,27.9,20.0,28.97,NNE,22,5.6,5.6,72,0.00,,---,0.00,VWS V14.01,2013-04-05 04:13:00,
2013-04-04 23:14:00,27.9,20.0,28.97,NNW,338,6.0,6.0,72,0.00,,---,0.00,VWS V14.01,2013-04-05 04:14:00,
2013-04-04 23:15:00,27.9,20.0,28.97,North,0,4.3,4.3,72,0.00,,---,0.00,VWS V14.01,2013-04-05 04:15:00,
2013-04-04 23:16:00,27.9,20.0,28.97,ENE,68,3.4,3.8,72,0.00,,---,0.00,VWS V14.01,2013-04-05 04:16:00,
2013-04-04 23:17:00,27.9,20.0,28.97,North,0,4.3,4.3,72,0.00,,---,0.00,VWS V14.01,2013-04-05 04:17:00,
2013-04-04 23:18:00,27.9,20.0,28.97,North,0,5.6,5.6,72,0.00,,---,0.00,VWS V14.01,2013-04-05 04:18:00,
2013-04-04 23:19:00,27.9,20.0,28.97,NNW,338,2.9,5.6,72,0.00,,---,0.00,VWS V14.01,2013-04-05 04:19:00,
2013-04-04 23:20:00,27.9,20.0,28.97,NNW,338,4.7,4.7,72,0.00,,---,0.00,VWS V14.01,2013-04-05 04:20:00,
2013-04-04 23:21:00,27.9,20.0,28.97,NNW,338,3.8,4.9,72,0.00,,---,0.00,VWS V14.01,2013-04-05 04:21:00,
2013-04-04 23:22:00,27.9,20.0,28.97,NNW,338,4.7,6.5,72,0.00,,---,0.00,VWS V14.01,2013-04-05 04:22:00,
2013-04-04 23:23:00,27.9,20.0,28.97,NNW,338,4.3,4.9,72,0.00,,---,0.00,VWS V14.01,2013-04-05 04:23:00,
2013-04-04 23:24:00,27.9,20.0,28.97,NNW,338,4.9,4.9,72,0.00,,---,0.00,VWS V14.01,2013-04-05 04:24:00,
2013-04-04 23:25:00,27.7,19.9,28.97,North,0,4.3,6.0,72,0.00,,---,0.00,VWS V14.01,2013-04-05 04:25:00,
2013-04-04 23:26:00,27.7,19.9,28.97,North,0,3.6,4.9,72,0.00,,---,0.00,VWS V14.01,2013-04-05 04:26:00,
2013-04-04 23:27:00,27.7,19.9,28.97,North,0,4.3,6.0,72,0.00,,---,0.00,VWS V14.01,2013-04-05 04:27:00,
2013-04-04 23:28:00,27.5,19.7,28.97,NNW,338,4.7,5.6,72,0.00,,---,0.00,VWS V14.01,2013-04-05 04:28:00,
2013-04-04 23:29:00,27.5,19.7,28.97,NNW,338,3.4,5.8,72,0.00,,---,0.00,VWS V14.01,2013-04-05 04:29:00,
2013-04-04 23:30:00,27.3,19.5,28.97,North,0,4.0,4.0,72,0.00,,---,0.00,VWS V14.01,2013-04-05 04:30:00,
2013-04-04 23:32:00,27.3,19.5,28.97,North,0,4.0,4.0,72,0.00,,---,0.00,VWS V14.01,2013-04-05 04:32:00,
2013-04-04 23:33:00,27.3,19.5,28.97,NNW,338,3.8,4.9,72,0.00,,---,0.00,VWS V14.01,2013-04-05 04:33:00,
2013-04-04 23:34:00,27.1,19.3,28.97,North,0,3.8,4.0,72,0.00,,---,0.00,VWS V14.01,2013-04-05 04:34:00,
2013-04-04 23:35:00,27.1,19.3,28.97,North,0,5.4,5.4,72,0.00,,---,0.00,VWS V14.01,2013-04-05 04:35:00,
2013-04-04 23:36:00,27.1,19.3,28.97,NNW,338,4.0,4.0,72,0.00,,---,0.00,VWS V14.01,2013-04-05 04:36:00,
2013-04-04 23:37:00,27.1,19.3,28.97,North,0,5.4,5.6,72,0.00,,---,0.00,VWS V14.01,2013-04-05 04:37:00,
2013-04-04 23:38:00,27.1,19.6,28.97,NNW,338,5.8,5.8,73,0.00,,---,0.00,VWS V14.01,2013-04-05 04:38:00,
2013-04-04 23:39:00,27.1,19.6,28.97,NNW,338,5.4,5.8,73,0.00,,---,0.00,VWS V14.01,2013-04-05 04:39:00,
2013-04-04 23:40:00,27.0,19.5,28.97,NW,315,3.8,3.8,73,0.00,,---,0.00,VWS V14.01,2013-04-05 04:40:00,
2013-04-04 23:41:00,27.0,19.5,28.97,NNW,338,3.8,4.0,73,0.00,,---,0.00,VWS V14.01,2013-04-05 04:41:00,
2013-04-04 23:42:00,27.0,19.5,28.97,NW,315,3.8,3.8,73,0.00,,---,0.00,VWS V14.01,2013-04-05 04:42:00,
2013-04-04 23:43:00,27.0,19.5,28.97,North,0,4.0,4.3,73,0.00,,---,0.00,VWS V14.01,2013-04-05 04:43:00,
2013-04-04 23:44:00,27.0,19.1,28.97,NNW,338,2.9,4.9,72,0.00,,---,0.00,VWS V14.01,2013-04-05 04:44:00,
2013-04-04 23:45:00,26.8,19.0,28.97,NW,315,2.9,2.9,72,0.00,,---,0.00,VWS V14.01,2013-04-05 04:45:00,
2013-04-04 23:46:00,26.8,19.0,28.97,NW,315,2.0,2.7,72,0.00,,---,0.00,VWS V14.01,2013-04-05 04:46:00,
2013-04-04 23:47:00,26.8,19.0,28.97,NW,315,2.7,2.9,72,0.00,,---,0.00,VWS V14.01,2013-04-05 04:47:00,
2013-04-04 23:48:00,26.8,19.0,28.97,WNW,292,2.2,2.9,72,0.00,,---,0.00,VWS V14.01,2013-04-05 04:48:00,
2013-04-04 23:49:00,26.8,19.0,28.97,NW,315,1.3,2.2,72,0.00,,---,0.00,VWS V14.01,2013-04-05 04:49:00,
2013-04-04 23:50:00,26.6,18.8,28.97,NW,315,0.0,0.0,72,0.00,,---,0.00,VWS V14.01,2013-04-05 04:50:00,
2013-04-04 23:51:00,26.6,18.8,28.97,NW,315,2.5,2.5,72,0.00,,---,0.00,VWS V14.01,2013-04-05 04:51:00,
2013-04-04 23:52:00,26.6,18.8,28.97,NW,315,0.0,2.5,72,0.00,,---,0.00,VWS V14.01,2013-04-05 04:52:00,
2013-04-04 23:53:00,26.6,18.8,28.97,North,0,2.0,2.5,72,0.00,,---,0.00,VWS V14.01,2013-04-05 04:53:00,
2013-04-04 23:54:00,26.6,18.8,29.00,NNW,338,2.9,2.9,72,0.00,,---,0.00,VWS V14.01,2013-04-05 04:54:00,
2013-04-04 23:55:00,26.4,18.6,29.00,NNW,338,3.6,3.6,72,0.00,,---,0.00,VWS V14.01,2013-04-05 04:55:00,
2013-04-04 23:57:00,26.4,18.6,29.00,NNW,338,3.6,3.6,72,0.00,,---,0.00,VWS V14.01,2013-04-05 04:57:00,
2013-04-04 23:58:00,26.4,18.6,29.00,NNW,338,2.7,3.8,72,0.00,,---,0.00,VWS V14.01,2013-04-05 04:58:00,
2013-04-04 23:59:00,26.4,18.6,29.00,NNW,338,6.5,6.5,72,0.00,,---,0.00,VWS V14.01,2013-04-05 04:59:00,